GFSSW_500_spd_000.txt.gz
Wind_Speed
22 21 20 20 20 19 18 20 19 18 18 16 16 16 16 15 14 14 12 11 10 10 10 10 11 12 12 13 13 13 13 12 13 14 12 13 14 15 18 19 22 22 20 18 17
26 26 25 25 25 25 25 24 24 24 24 23 21 21 21 20 19 20 19 18 17 16 15 15 14 15 16 15 16 17 17 17 16 16 16 16 17 16 19 21 20 20 18 20 19
31 30 30 29 29 29 30 30 30 30 29 29 29 27 26 25 24 26 25 25 25 24 23 22 22 21 21 21 22 20 22 22 22 22 21 20 20 21 19 24 19 20 19 21 20
34 33 33 32 31 31 31 32 32 33 33 33 32 32 32 31 30 31 31 30 29 30 29 29 29 29 29 27 27 27 28 27 27 26 28 26 25 24 24 27 24 20 25 20 24
36 35 34 34 35 34 34 34 34 34 34 35 35 35 35 34 33 34 34 34 34 35 35 35 35 36 36 35 34 33 32 33 34 32 33 32 31 30 25 30 30 30 27 27 28
36 35 35 35 35 35 35 35 36 37 37 37 37 37 36 35 36 36 35 36 36 38 38 38 38 39 38 37 38 39 38 37 38 37 38 38 36 36 31 32 34 34 32 33 30
35 35 36 37 38 37 37 37 36 36 37 38 39 40 39 37 37 39 38 38 39 40 40 40 40 41 40 40 42 42 42 42 39 40 40 43 42 38 37 37 36 36 38 36 36
39 39 40 40 41 40 39 39 37 37 39 40 41 42 40 38 38 38 39 38 39 40 40 40 42 42 40 42 43 42 45 46 43 44 45 44 43 38 41 40 36 38 38 39 38
41 41 42 42 43 41 42 44 41 40 41 42 43 45 43 39 40 41 41 40 40 40 41 41 44 41 40 43 40 39 45 45 41 40 44 45 42 34 42 44 39 38 37 39 39
44 44 44 43 44 44 44 47 45 45 45 45 46 47 46 42 41 41 41 42 42 42 43 42 45 41 36 40 41 40 44 42 39 40 49 45 40 32 33 39 40 35 34 36 38
46 45 45 45 45 46 46 48 49 50 48 47 49 48 49 47 44 43 42 43 43 45 44 47 49 40 37 42 46 44 44 45 34 35 53 48 47 40 39 32 33 30 28 33 37
47 47 47 46 46 46 45 45 47 51 54 48 49 52 49 48 50 44 45 45 46 46 47 52 55 41 45 46 50 48 50 49 47 42 52 52 52 44 39 36 27 27 28 32 38
50 49 47 46 46 47 47 46 48 50 58 56 50 54 51 49 49 47 47 48 50 52 50 54 55 50 50 51 51 52 53 53 54 48 55 53 57 44 36 32 28 26 29 31 35
48 50 49 49 46 46 48 50 51 52 60 63 59 57 54 53 54 48 46 44 46 49 52 57 54 53 55 55 49 56 52 53 52 54 59 55 64 47 40 37 35 31 31 31 31
47 50 51 49 50 50 50 51 52 51 63 62 65 61 54 48 47 48 47 47 47 47 48 50 49 51 51 48 47 53 51 51 55 59 63 62 61 58 51 43 41 37 40 35 33
56 53 50 52 52 50 51 52 52 52 67 64 64 62 58 58 53 49 49 48 46 48 49 49 50 54 55 53 53 56 57 58 59 61 70 64 60 57 54 50 50 52 48 42 36
60 57 58 55 54 55 57 55 56 58 62 59 60 58 61 62 61 60 57 51 50 51 51 49 51 52 54 54 52 52 57 59 64 67 68 65 66 61 57 55 51 53 53 45 44
60 59 61 64 59 59 57 59 59 60 59 60 62 62 64 63 63 62 62 60 59 52 51 55 56 50 48 48 49 52 53 57 61 64 66 65 65 58 55 54 55 57 55 49 45
72 68 67 67 67 61 54 58 61 59 60 62 65 69 65 65 66 65 65 63 60 58 60 56 58 57 55 52 51 56 59 53 59 61 65 63 65 61 59 60 55 56 58 47 40
77 75 73 71 69 68 69 64 58 63 68 65 66 65 68 69 73 70 66 67 66 61 59 64 61 56 58 59 63 62 58 60 64 67 70 67 64 59 64 69 66 55 52 54 49
81 82 80 79 76 75 76 72 70 58 59 60 65 64 67 69 71 72 70 69 69 64 62 62 64 64 64 63 60 62 64 66 67 71 74 73 63 64 69 66 64 62 59 55 58
84 86 84 84 85 84 86 81 80 74 71 68 69 59 63 67 68 62 72 73 66 67 70 66 71 77 73 68 65 70 71 70 72 73 76 73 72 68 65 62 61 62 63 60 59
87 87 87 86 90 94 94 90 88 82 80 83 85 79 70 67 71 60 60 63 61 65 78 77 80 82 80 71 70 70 68 68 70 69 75 77 77 62 58 61 59 65 61 57 61
87 87 89 89 91 90 91 93 95 94 90 87 89 86 82 79 81 79 71 63 52 52 59 67 68 55 55 54 54 67 68 73 67 60 71 75 73 61 60 61 59 56 56 60 62
85 86 86 87 88 89 84 86 89 94 96 90 94 91 86 90 93 94 95 82 77 78 91 87 74 71 66 70 60 53 57 53 51 61 68 71 73 69 64 62 59 60 63 61 63
81 81 83 84 84 86 85 88 88 84 86 90 93 88 88 91 90 93 91 96 103 104 100 99 106 98 97 86 87 88 82 81 66 65 66 71 74 68 59 59 61 61 60 48 47
79 83 81 80 79 81 83 82 83 81 84 82 79 85 86 89 87 89 89 91 90 93 98 98 94 100 97 97 97 87 92 83 74 68 63 64 64 51 53 51 49 46 46 51 57

GFSSW_500_spd_003.txt.gz
Wind_Speed
20 21 20 20 18 18 18 19 18 17 19 18 17 18 16 16 16 16 16 15 16 15 15 15 15 14 15 15 15 15 15 14 15 13 13 14 15 16 17 17 18 18 17 16 16
26 26 27 26 26 24 24 23 23 23 23 23 23 22 22 21 21 22 21 21 21 22 22 21 20 20 20 19 20 19 19 19 19 19 17 16 17 17 18 19 20 19 20 16 17
31 32 32 31 31 31 31 30 29 27 27 27 27 27 26 25 25 25 26 27 28 28 29 28 28 28 27 25 26 24 25 26 24 24 24 22 21 22 21 22 24 21 22 21 19
35 34 34 35 35 34 34 32 32 31 31 31 30 30 30 29 28 29 29 30 31 32 33 34 35 35 34 34 34 31 31 31 30 31 30 30 26 26 25 25 27 25 23 22 24
34 34 34 34 35 34 34 34 35 35 34 34 33 34 33 30 30 32 32 31 32 34 35 36 37 38 37 38 38 36 36 34 35 36 36 37 34 35 24 29 31 31 30 27 25
33 33 33 33 32 33 33 34 34 35 35 35 36 36 35 32 33 34 34 34 34 35 37 39 39 40 39 39 41 40 40 39 37 37 41 40 38 41 32 35 33 33 32 32 32
32 33 34 34 34 34 35 37 36 37 37 37 37 38 36 33 33 35 35 35 36 37 36 38 40 41 41 39 41 43 43 40 36 41 43 42 38 36 38 41 36 36 34 35 34
37 37 37 39 40 40 40 43 41 40 40 40 40 41 36 33 35 38 39 37 37 37 38 38 41 40 38 39 41 41 40 38 29 37 40 41 38 29 36 39 37 35 33 36 36
42 42 42 43 43 43 43 45 44 42 43 44 44 45 41 37 36 39 40 39 39 39 39 40 43 43 38 40 40 36 41 41 32 35 41 41 39 23 27 34 31 26 28 30 31
47 46 46 46 46 45 45 46 46 47 46 46 49 49 49 43 40 40 40 40 40 40 41 42 46 47 38 41 42 39 47 43 40 35 46 49 45 34 32 35 33 28 27 27 31
50 50 49 49 48 47 46 47 48 49 48 47 51 50 51 48 45 42 40 41 41 43 42 46 51 48 37 44 46 49 49 52 43 38 53 53 54 40 34 33 33 32 30 29 30
49 50 50 51 49 48 48 48 49 51 52 48 49 52 51 49 49 43 41 42 42 43 45 47 52 44 44 47 51 53 54 54 53 45 54 56 58 51 40 34 30 28 25 27 32
49 48 49 49 49 50 50 49 48 51 56 51 47 52 53 51 50 46 46 45 44 46 44 49 50 47 46 48 51 51 55 55 57 52 55 58 63 52 44 38 33 30 33 34 33
51 49 50 52 51 52 52 53 50 51 54 57 53 49 49 52 54 48 46 47 47 43 42 51 43 43 46 48 44 51 44 49 53 54 60 53 67 53 45 44 38 37 35 33 33
52 53 48 43 55 51 52 53 51 52 53 56 56 51 47 48 48 48 46 46 47 46 47 46 48 48 49 47 48 52 50 50 52 56 60 63 63 55 50 44 39 36 38 39 36
53 52 46 49 49 51 54 52 50 53 61 58 58 57 54 52 51 52 50 48 47 46 49 47 47 50 50 48 48 48 52 54 54 56 60 57 58 56 52 51 44 40 38 39 39
50 49 53 56 55 53 58 62 55 57 62 60 59 59 60 58 58 59 56 53 54 56 51 47 48 48 50 51 48 46 51 56 59 60 61 58 59 55 58 52 50 47 44 45 43
61 62 62 62 57 62 61 57 60 66 60 61 66 62 61 60 57 60 65 61 60 56 59 57 55 54 51 50 49 52 52 58 58 60 61 61 60 57 61 59 53 53 53 50 49
62 68 67 70 68 68 65 58 66 59 62 62 61 67 64 65 67 64 64 62 62 62 64 64 64 60 58 55 55 59 60 53 58 59 63 64 66 56 60 60 63 56 59 54 50
70 71 71 75 78 77 74 76 72 70 66 64 68 67 65 64 64 65 70 67 67 66 62 66 67 65 61 59 62 63 60 59 62 63 64 64 66 67 61 61 63 63 62 51 28
74 75 72 76 80 82 83 79 77 75 72 70 71 74 73 68 64 62 56 61 60 57 62 66 68 65 62 60 57 58 58 60 63 66 70 72 67 64 64 65 65 63 63 60 57
76 77 76 80 80 84 86 84 82 80 82 85 84 79 80 77 82 82 76 64 60 53 57 57 63 60 55 52 57 62 63 63 66 69 73 76 75 58 61 65 69 71 63 62 60
75 76 76 79 82 81 82 80 81 80 80 80 78 76 75 79 82 85 87 81 72 76 71 61 62 60 50 44 42 46 47 51 55 66 73 73 74 55 61 62 63 69 67 65 63
76 77 79 79 78 78 78 80 82 81 82 81 76 72 73 71 80 83 85 87 82 80 80 74 72 79 70 68 65 70 69 70 56 50 56 58 58 47 52 57 59 62 62 63 65
73 74 76 78 80 77 76 78 79 78 79 78 81 78 76 75 76 80 81 79 77 78 80 78 87 93 93 94 90 93 92 87 75 81 86 84 86 62 46 41 44 52 58 61 63
72 73 73 74 72 73 77 80 77 77 77 80 82 82 81 77 72 72 64 58 69 76 79 79 86 84 86 87 90 96 93 93 100 100 93 81 74 72 76 77 78 63 50 51 45
69 73 73 71 72 71 70 68 70 73 74 73 76 78 80 79 79 75 67 62 56 55 67 74 67 78 77 75 73 77 85 86 89 88 92 84 87 67 66 67 70 76 69 66 67

GFSSW_500_spd_006.txt.gz
Wind_Speed
18 19 19 19 19 18 18 17 17 18 18 18 18 17 16 17 17 16 16 16 17 18 19 20 20 20 20 20 21 20 19 19 18 16 14 14 14 15 14 14 14 12 15 14 13
24 24 24 25 25 24 24 24 23 23 23 23 23 23 24 21 22 22 21 21 21 22 24 24 25 26 26 26 26 26 26 27 24 25 23 22 19 18 18 17 18 16 19 19 17
30 30 30 30 30 30 29 29 28 29 28 28 27 27 26 26 26 25 25 25 26 27 27 28 28 29 31 31 33 31 31 32 31 31 29 29 29 26 23 19 23 21 21 21 23
36 36 36 36 35 34 34 33 33 31 31 30 30 29 27 27 28 29 29 29 28 29 30 32 31 32 32 33 34 32 32 35 33 34 33 34 33 32 32 23 28 27 25 24 25
36 37 37 37 37 36 35 34 33 33 33 32 32 32 30 27 30 31 31 31 31 31 33 33 34 36 35 37 38 36 35 36 35 36 37 39 35 36 30 32 33 31 29 28 27
33 33 34 34 34 34 34 33 32 32 33 33 33 33 31 26 31 31 30 31 32 32 34 36 36 38 37 36 39 37 36 35 34 35 40 42 34 33 24 36 33 34 34 32 31
36 36 35 35 34 34 34 36 35 34 35 36 37 38 35 30 32 34 34 33 33 34 34 37 39 40 39 37 38 37 37 34 27 32 41 40 29 24 28 36 33 33 33 34 32
39 38 38 38 37 37 37 39 38 39 41 43 43 43 38 33 35 36 38 35 35 36 37 37 40 42 39 37 40 40 39 34 24 32 39 40 32 21 27 32 30 29 29 28 27
42 42 42 43 42 42 43 45 45 45 46 46 48 48 44 39 37 40 40 40 40 39 39 39 42 42 38 37 42 37 43 40 34 31 39 44 43 28 31 36 31 27 28 27 27
46 46 46 46 47 47 47 48 49 48 48 49 50 49 46 43 40 40 41 42 42 41 42 42 47 48 39 38 45 42 50 47 43 31 43 50 49 41 35 39 36 29 27 29 30
51 51 51 50 50 50 50 50 51 51 50 49 50 48 48 48 45 42 41 41 42 44 42 46 50 47 39 42 45 48 51 53 47 38 48 52 55 50 40 37 36 35 31 27 28
53 52 53 51 51 51 51 51 51 51 52 52 50 52 51 50 48 43 41 41 43 44 45 47 52 42 43 44 47 50 50 51 49 44 51 54 56 52 46 38 32 33 30 29 32
54 52 52 50 51 51 52 51 50 50 54 51 51 51 50 49 46 44 43 44 44 47 44 49 50 48 48 48 48 47 50 49 54 52 52 54 58 47 40 38 35 33 33 33 34
56 53 51 54 55 54 51 51 53 54 57 55 54 48 48 47 47 48 45 42 43 41 42 50 44 45 44 46 40 51 43 51 54 56 58 54 56 46 40 42 38 38 33 30 34
61 65 61 58 57 56 56 56 52 46 56 52 52 49 41 43 44 44 46 45 46 46 46 47 47 48 50 46 48 52 50 51 53 56 59 61 62 55 46 41 40 31 34 32 28
62 65 67 62 59 60 60 55 52 47 61 57 55 53 49 47 48 51 53 52 51 50 49 47 46 49 50 51 50 50 53 49 51 55 62 58 57 48 53 48 43 44 39 41 35
55 58 62 66 64 61 58 58 55 57 60 56 55 56 53 58 60 54 54 58 60 57 55 52 54 53 52 52 53 48 52 58 62 60 62 61 57 52 55 58 55 52 48 44 44
54 55 57 60 54 57 57 56 61 57 54 56 58 58 60 63 62 60 60 62 62 63 69 66 58 56 55 54 57 57 58 61 65 65 64 62 66 54 60 59 61 59 57 61 51
76 68 64 65 66 64 63 67 64 61 63 61 61 65 68 71 68 66 69 67 65 63 62 65 68 63 62 60 59 61 66 60 63 65 69 70 69 62 61 62 65 62 58 60 62
78 75 72 67 71 71 73 70 70 66 66 67 68 69 69 72 73 71 69 73 71 67 66 65 67 68 60 59 62 58 56 60 66 71 72 72 74 69 65 65 67 65 62 61 61
70 72 80 70 71 75 76 78 72 68 72 67 68 72 72 74 76 78 79 76 74 75 74 76 76 69 68 59 51 52 55 59 64 72 75 77 70 59 63 64 63 61 60 60 52
69 69 69 69 73 74 78 72 71 71 69 73 72 73 73 71 77 82 86 86 81 72 72 75 77 79 79 73 69 61 54 50 56 59 68 75 78 45 56 57 58 62 58 56 56
72 71 70 71 73 72 72 72 71 66 67 70 72 70 68 71 76 76 77 75 72 71 71 73 67 75 79 75 76 72 71 65 61 57 68 72 72 55 58 57 48 53 50 48 50
67 68 68 70 70 70 68 67 69 66 68 68 70 70 70 72 69 74 74 72 65 65 65 71 75 76 78 77 75 80 74 73 74 67 72 79 88 67 50 50 54 70 67 68 58
67 68 71 71 69 67 66 67 69 70 70 68 70 71 71 73 73 73 67 70 70 70 67 67 72 73 76 71 64 65 71 72 76 83 91 90 90 83 82 81 83 81 80 69 70
67 67 68 67 64 65 64 63 62 60 62 66 68 66 68 70 66 66 62 62 66 68 67 64 63 60 66 65 62 68 62 58 63 64 68 70 75 62 67 64 62 81 73 62 58
65 65 65 64 63 64 64 64 63 63 63 62 63 65 64 66 67 66 65 67 68 66 66 66 67 67 65 52 56 65 62 63 57 55 67 68 60 58 52 52 59 74 84 89 78

GFSSW_500_spd_009.txt.gz
Wind_Speed
17 17 18 18 17 17 17 17 16 16 16 16 17 18 18 18 18 19 19 19 18 19 19 20 21 22 23 24 24 24 23 24 22 23 22 21 19 19 17 17 16 17 18 18 18
22 21 21 22 23 23 24 23 23 23 22 22 22 22 22 22 23 23 22 23 24 23 23 23 24 25 27 27 27 29 27 27 28 28 26 25 25 25 22 21 20 22 20 21 22
29 28 27 27 28 29 28 29 29 28 27 27 27 26 25 24 26 25 26 25 25 25 27 27 28 29 29 30 30 30 29 30 31 31 31 29 29 29 28 21 26 28 26 22 24
35 35 35 34 34 34 35 35 35 34 33 32 30 28 27 26 28 28 28 28 27 27 28 28 29 30 31 32 34 32 30 33 30 35 34 33 32 31 31 25 29 29 28 25 26
42 42 42 41 40 39 39 38 38 37 37 36 35 33 28 23 29 30 29 30 29 29 29 30 29 32 33 34 35 33 32 32 32 33 36 36 33 35 27 29 31 29 29 30 31
37 37 38 37 37 36 36 37 36 35 35 35 34 33 31 24 31 33 31 31 31 30 31 32 33 36 36 35 37 37 34 31 29 30 34 37 35 35 17 31 30 28 28 28 29
38 37 37 38 38 38 38 38 37 36 36 37 37 36 32 28 33 36 37 37 35 34 33 35 37 40 39 37 37 39 37 32 24 27 35 40 36 23 23 32 29 28 28 28 26
42 41 40 39 38 38 39 39 38 38 38 40 42 43 40 36 38 39 41 40 39 38 39 38 42 44 41 38 41 40 41 35 22 31 38 43 42 21 30 34 31 32 30 29 29
44 44 44 43 43 42 43 43 43 43 44 46 47 48 46 40 38 40 41 41 43 42 42 43 47 47 42 40 46 39 47 45 39 29 39 44 48 29 34 39 39 36 35 33 30
48 48 47 46 46 46 46 46 48 48 48 49 51 50 49 44 43 41 41 42 44 45 47 48 51 50 42 42 48 45 49 48 45 30 40 49 50 43 35 42 43 40 37 36 34
52 52 52 51 51 51 51 51 52 53 52 51 53 52 50 49 46 43 40 41 44 45 46 49 53 50 40 43 47 51 51 50 45 40 49 49 50 44 38 34 35 35 36 36 37
53 55 56 55 55 54 54 55 56 55 54 51 50 54 52 51 50 46 44 43 44 45 46 47 52 45 47 47 49 51 52 53 54 50 54 53 51 48 43 39 32 30 30 29 32
59 56 57 56 56 56 54 56 55 56 58 53 54 55 54 53 53 49 47 45 44 45 44 48 50 48 51 51 51 50 53 54 56 52 53 55 55 49 42 36 34 32 34 35 32
60 61 60 58 57 56 56 55 56 56 60 61 59 56 53 56 56 50 50 47 46 45 42 51 44 44 49 52 45 53 44 49 52 56 57 55 53 47 42 41 39 38 38 32 33
59 60 63 61 60 60 59 59 58 59 64 62 61 58 50 44 44 40 43 44 43 44 46 47 47 45 48 48 52 53 55 54 54 57 58 56 60 55 52 46 39 34 32 36 30
55 54 59 61 59 57 60 66 65 64 72 66 65 62 60 54 49 49 52 51 49 49 51 46 49 52 48 49 52 53 54 56 57 58 60 57 57 51 55 57 59 53 44 48 51
59 60 54 57 61 61 56 55 57 67 70 69 67 62 59 55 55 53 50 50 53 54 53 54 51 53 51 50 51 52 55 58 63 65 62 63 61 56 61 60 65 65 65 62 58
62 63 64 57 54 57 57 55 58 67 65 65 63 61 60 58 59 57 58 57 57 60 62 63 60 61 58 55 56 56 57 61 64 65 68 68 73 64 62 63 67 66 68 67 69
71 67 65 62 63 59 58 61 62 63 63 65 66 66 63 63 61 63 62 62 64 62 60 64 68 68 65 61 60 61 60 54 60 62 70 76 76 73 68 68 66 67 72 72 66
74 70 73 72 71 70 69 74 71 66 60 66 73 72 71 68 69 69 70 67 67 68 66 66 70 69 71 70 71 68 67 65 63 65 67 67 68 75 75 72 70 70 68 67 65
70 68 70 67 66 69 77 80 82 75 74 72 71 76 78 76 74 70 71 71 69 70 71 71 73 76 78 76 72 72 74 76 75 75 78 78 75 59 61 69 69 65 65 61 51
70 71 69 69 69 67 71 67 68 66 69 69 69 70 72 72 77 72 72 73 68 68 74 71 70 64 77 77 74 75 73 70 69 73 70 67 71 59 53 47 57 57 61 53 45
67 65 66 67 70 69 67 66 66 65 65 68 69 68 67 70 72 74 71 64 64 66 69 69 69 70 75 76 74 63 61 67 72 71 75 78 78 66 61 60 60 66 65 58 59
69 70 68 67 67 68 68 67 66 62 66 68 69 66 67 68 67 70 67 66 66 68 69 68 72 75 69 69 73 75 75 70 73 76 76 74 74 68 61 57 61 64 73 73 70
70 69 69 70 69 68 67 67 67 66 65 63 67 65 66 67 68 69 70 67 68 66 64 62 67 68 71 73 71 74 72 68 65 67 70 70 72 72 68 65 69 71 79 82 83
68 68 70 69 67 68 66 66 66 62 65 67 68 65 65 67 65 67 66 65 64 63 61 57 60 66 67 64 65 71 71 72 66 68 65 77 79 69 69 64 60 65 75 79 77
67 70 70 69 69 69 67 67 67 65 65 65 66 66 64 65 66 66 65 64 64 64 62 66 68 69 76 73 78 82 73 67 67 66 67 68 69 61 59 63 67 67 69 71 80

GFSSW_500_spd_015.txt.gz
Wind_Speed
22 21 20 17 17 17 17 16 15 15 14 15 15 15 15 16 17 17 18 19 20 19 19 20 21 20 21 22 22 23 22 20 24 22 21 20 20 20 19 20 21 24 22 20 17
21 21 19 19 18 17 18 19 20 20 21 22 22 22 21 21 23 22 22 23 23 23 23 23 23 24 24 25 25 26 23 23 25 27 25 24 22 24 22 22 25 24 28 23 23
26 25 24 24 24 23 23 23 24 24 25 26 27 27 27 26 28 25 26 27 26 26 26 25 26 27 26 28 28 26 24 25 25 29 29 26 24 26 26 22 27 28 28 28 28
33 32 32 31 30 30 30 30 30 30 31 32 32 32 31 29 30 30 30 28 27 26 27 27 28 29 28 28 29 28 26 27 26 29 30 29 27 28 31 23 31 31 31 30 32
40 39 39 38 37 36 36 36 37 37 38 38 38 36 33 27 29 31 29 27 28 29 29 30 30 33 32 32 32 31 28 27 26 28 30 33 29 36 30 29 30 31 27 30 30
40 40 40 41 41 40 40 39 38 38 38 36 35 32 30 22 29 31 31 31 31 30 32 35 37 38 39 37 37 35 34 31 30 32 35 38 33 36 26 38 32 32 29 30 28
36 36 35 36 36 36 35 34 33 34 35 36 38 38 33 26 30 31 33 32 33 36 38 41 42 43 43 41 41 43 41 36 31 34 42 43 38 31 31 38 37 33 32 34 33
41 40 39 39 39 39 39 39 40 40 40 40 41 41 34 30 33 34 36 37 37 38 40 41 43 44 44 44 44 45 47 43 34 38 42 46 44 31 35 37 38 36 35 38 37
44 44 44 44 45 45 44 44 43 43 44 44 45 47 42 38 36 38 39 39 40 41 43 43 45 47 44 43 47 46 52 50 44 34 42 48 47 37 35 38 34 33 33 34 37
46 46 46 45 45 45 46 45 45 46 47 49 50 49 49 45 42 39 41 43 44 44 44 44 47 49 44 43 50 50 52 51 49 38 41 51 50 43 38 38 34 34 34 34 34
49 51 51 50 50 49 50 50 50 49 49 49 51 53 52 53 51 46 45 46 46 45 45 46 51 49 44 46 49 51 53 55 48 44 52 47 50 45 38 38 34 32 31 35 35
50 51 50 49 48 49 49 48 49 50 48 49 51 53 55 55 55 51 48 47 47 47 48 49 53 48 48 49 52 52 55 53 52 48 52 51 50 49 46 35 35 32 30 33 28
54 53 53 53 52 52 52 52 53 55 56 53 54 57 58 57 54 51 49 48 48 48 47 51 54 52 52 55 53 53 54 54 57 52 53 55 57 54 46 42 33 37 38 36 37
59 58 59 60 60 61 60 60 58 58 60 61 60 56 52 50 53 52 49 48 48 45 42 50 42 45 46 48 49 55 46 53 54 56 57 56 60 56 54 50 45 42 39 34 28
54 55 53 55 56 56 55 57 54 54 59 58 59 56 53 49 51 49 49 50 50 51 53 51 49 46 49 46 50 51 52 52 54 55 62 60 61 62 64 56 55 49 44 40 41
50 49 49 49 50 50 50 50 49 49 60 58 57 54 51 51 51 53 52 52 50 49 51 51 52 53 53 56 55 57 59 60 60 61 62 63 59 62 64 63 58 48 42 49 45
55 56 50 51 51 51 51 52 53 56 55 56 54 53 52 52 53 52 51 52 53 54 52 52 52 53 53 56 57 54 58 62 66 66 66 62 64 65 65 60 62 57 48 48 54
58 53 53 47 51 54 53 54 58 61 58 51 52 54 54 53 54 53 54 53 51 52 56 59 59 57 56 56 59 58 56 56 62 65 67 67 71 67 67 66 61 63 58 59 62
60 54 55 59 56 55 56 60 61 62 64 61 59 59 59 58 59 63 62 61 57 58 60 62 65 59 60 59 59 61 64 60 65 65 68 71 71 67 67 66 66 67 67 66 66
61 57 54 60 65 60 60 66 65 64 65 69 69 68 67 63 64 64 61 64 63 64 61 62 67 67 64 62 65 62 62 64 64 64 67 70 70 68 68 71 74 73 73 73 73
62 63 60 58 60 65 68 68 64 61 63 66 68 66 67 65 64 62 63 65 62 65 66 62 63 63 66 68 63 64 67 66 61 62 65 68 70 64 64 65 68 71 72 73 72
64 60 61 60 58 62 61 56 59 61 59 58 60 60 61 61 63 63 65 64 63 65 66 66 67 67 67 67 66 67 66 61 62 61 66 68 70 59 63 66 67 73 78 75 73
54 53 55 55 57 54 56 55 57 57 59 61 61 60 59 62 66 65 65 63 63 62 62 57 58 64 67 63 65 66 63 64 67 67 70 73 71 69 69 72 74 75 76 77 73
56 56 56 56 57 59 60 58 59 60 60 61 61 61 62 63 62 66 65 64 62 63 63 65 66 67 70 71 69 62 60 54 52 63 71 74 78 74 71 66 67 69 72 75 79
58 58 57 58 60 59 60 62 62 60 58 56 59 57 58 61 61 62 62 63 63 64 66 68 71 67 67 67 71 71 67 69 72 75 79 82 80 74 75 70 70 74 76 78 80
59 58 59 57 57 59 59 59 60 58 62 62 62 58 59 61 62 63 64 64 66 66 67 68 72 73 75 71 73 75 73 72 72 71 78 77 78 76 74 74 74 74 75 77 78
59 59 60 59 58 60 62 62 62 62 65 63 65 65 63 66 68 69 70 69 71 71 72 74 75 76 81 75 77 80 73 72 72 71 74 76 75 76 78 78 79 81 82 82 81

GFSSW_500_spd_021.txt.gz
Wind_Speed
23 23 22 21 21 20 19 19 18 17 16 15 13 13 13 15 15 15 15 17 18 18 19 20 20 20 20 21 22 22 21 21 21 21 23 21 23 21 23 24 26 23 25 26 25
27 26 25 25 23 21 20 19 19 21 21 21 20 20 19 19 20 21 21 23 24 23 24 24 24 24 23 23 22 23 21 23 23 24 23 24 23 24 23 24 26 25 26 25 25
30 29 28 25 24 22 21 21 21 22 23 24 24 24 24 24 26 27 27 28 28 29 29 28 27 26 25 24 23 21 21 24 24 27 27 26 26 24 25 22 27 31 28 28 26
34 32 30 29 27 26 26 26 27 28 28 28 28 29 29 29 32 32 32 33 32 29 28 28 27 26 25 25 25 25 26 28 28 29 29 30 29 29 28 22 31 31 29 29 28
36 35 33 33 33 33 33 33 34 34 35 35 35 34 34 33 36 38 35 32 30 28 28 29 29 30 29 27 29 30 31 33 32 31 31 33 31 38 26 29 34 33 31 31 30
39 39 39 39 39 39 38 39 39 39 39 40 39 37 36 32 34 35 31 29 31 32 32 32 32 34 32 31 36 36 35 33 32 33 35 37 33 39 28 37 34 35 35 34 34
41 41 41 40 40 38 37 36 36 35 36 35 35 34 30 28 31 34 35 35 35 34 33 35 38 39 37 37 37 37 39 36 33 36 39 43 33 34 36 38 36 36 35 35 36
41 40 40 40 40 39 39 38 37 37 37 36 36 36 34 33 36 38 38 36 36 36 38 39 41 41 39 40 42 41 44 42 36 34 42 48 45 32 38 39 36 34 34 37 35
43 43 43 44 44 43 43 43 43 43 43 43 43 44 41 38 37 37 38 39 40 40 40 41 44 44 41 43 47 46 49 46 43 35 41 50 52 40 35 38 36 34 36 38 39
43 43 43 44 44 43 43 43 43 44 43 44 45 44 44 41 41 40 41 41 42 43 44 44 46 48 44 45 49 49 50 50 51 40 43 52 50 48 41 39 36 34 36 38 39
45 46 47 46 46 46 45 45 47 48 47 48 49 49 50 48 46 43 42 42 43 43 44 43 48 50 46 50 47 49 52 53 51 51 55 51 51 52 52 44 40 36 35 37 39
48 49 49 49 48 47 49 48 48 49 49 48 48 49 48 48 47 41 40 41 42 45 48 50 53 52 50 48 49 49 54 57 56 56 58 57 56 50 50 46 39 37 38 41 42
54 54 54 53 53 53 53 53 53 54 54 50 49 51 52 50 50 51 49 50 51 52 51 52 52 54 50 52 51 53 55 56 58 59 59 64 61 58 54 50 45 44 44 42 40
60 58 59 57 57 57 57 56 55 56 58 60 59 57 55 53 50 50 47 46 41 43 45 47 43 47 50 48 50 53 52 56 58 59 62 66 69 62 60 60 61 57 53 52 48
56 55 57 58 60 57 55 53 52 54 56 57 56 52 47 44 43 40 41 41 42 41 44 46 45 47 49 51 53 53 54 54 55 59 62 62 66 66 63 64 64 60 56 55 55
50 46 44 49 51 51 50 50 49 48 56 51 50 47 46 46 46 48 49 46 44 44 43 43 50 47 47 50 51 51 54 54 55 56 60 61 60 63 62 61 65 65 63 55 42
46 47 45 47 50 50 50 47 48 50 55 54 49 49 50 50 49 46 46 46 46 48 49 51 52 52 51 53 52 53 55 60 60 60 62 59 63 63 65 62 64 61 61 49 43
50 51 46 47 51 52 52 51 54 58 58 55 55 55 53 51 50 47 47 45 47 49 51 53 52 55 58 53 53 55 54 56 61 61 64 61 68 66 67 66 65 65 62 60 55
47 50 50 50 48 47 49 53 55 54 53 53 53 56 56 56 52 53 52 51 52 53 55 54 55 56 55 55 54 54 54 55 60 58 64 65 66 63 63 67 66 66 69 71 70
55 55 51 50 51 53 53 53 54 51 50 52 53 54 54 55 56 54 52 55 54 53 52 54 55 54 52 52 51 52 52 52 53 58 63 62 64 65 61 66 66 66 66 69 70
56 53 52 52 56 60 60 58 58 60 62 63 62 61 60 60 61 63 65 57 54 54 53 54 54 57 57 57 53 55 57 57 58 62 65 64 61 61 59 61 64 66 65 67 70
61 66 64 66 67 68 67 67 69 69 68 65 65 60 54 47 48 48 47 47 50 49 50 52 57 58 56 53 55 59 56 55 54 58 61 58 50 51 60 61 62 64 69 73 73
67 66 66 68 69 66 66 68 65 68 65 57 53 48 47 49 52 49 49 51 52 54 55 56 60 60 61 58 60 57 57 56 59 59 60 63 66 65 67 69 71 73 68 74 73
62 64 63 64 64 65 62 63 62 58 56 51 49 50 51 51 53 54 52 54 53 54 56 59 59 61 62 60 58 59 58 58 61 65 65 66 67 63 55 50 62 70 69 62 76
66 67 67 68 66 61 60 63 61 58 55 53 53 54 55 56 55 56 55 57 56 56 57 59 60 58 61 61 61 61 62 61 65 65 70 71 72 66 69 82 85 83 78 81 89
69 69 70 66 61 61 61 60 59 57 56 55 56 57 56 56 57 57 58 59 58 59 59 60 63 62 64 62 64 69 69 71 72 75 77 79 82 78 81 83 85 84 84 88 93
71 63 61 60 58 59 58 56 56 56 56 55 56 57 59 60 60 60 60 60 59 60 61 62 64 66 71 66 70 78 72 76 78 79 82 83 82 82 84 86 87 88 88 89 90

GFSSW_500_spd_024.txt.gz
Wind_Speed
23 23 22 21 20 20 19 18 18 17 16 15 15 13 13 13 14 14 15 16 17 18 20 20 22 22 21 22 23 23 21 19 21 21 23 21 19 23 22 20 23 21 23 25 21
28 27 26 25 24 23 22 21 19 19 20 20 20 19 20 19 20 20 20 21 22 23 24 25 26 26 25 25 25 24 21 21 21 22 23 25 25 24 23 23 23 28 23 22 22
32 31 30 28 27 26 24 22 21 20 20 20 22 23 24 24 25 26 26 27 28 27 29 31 29 27 26 24 26 23 23 23 21 25 24 27 27 28 27 20 30 27 28 27 26
35 34 33 31 30 28 26 25 25 25 25 26 26 27 28 29 31 32 31 32 34 33 32 30 28 26 24 24 24 24 26 26 26 30 30 31 31 31 30 25 29 33 30 29 28
38 38 37 36 34 33 31 31 31 31 32 32 33 33 34 33 35 38 35 35 36 34 31 28 27 28 27 26 28 28 27 29 34 32 31 32 31 35 27 32 29 31 31 32 31
38 37 38 38 37 36 36 36 37 37 38 39 39 38 37 36 37 39 36 33 31 30 30 32 32 31 28 29 34 32 32 33 32 34 35 34 32 36 30 32 31 33 33 34 34
41 41 41 41 41 41 41 41 40 39 38 37 36 34 31 30 31 32 32 31 33 34 34 34 34 33 34 34 36 35 37 34 33 38 41 39 31 33 35 33 32 31 33 36 37
40 40 40 39 40 40 40 38 38 38 36 36 36 36 34 32 34 35 36 37 38 38 37 35 38 38 38 38 40 40 41 40 37 40 41 43 41 33 36 34 35 31 33 36 37
43 42 42 41 42 41 40 41 40 40 40 41 41 42 39 37 37 39 39 38 38 38 38 39 41 42 41 41 44 41 46 45 47 44 41 44 46 39 32 37 36 34 38 39 39
42 41 41 43 42 42 41 40 41 41 40 40 41 41 41 38 40 39 40 40 41 42 43 44 45 45 40 43 45 46 46 49 50 47 48 47 48 48 45 39 38 40 38 38 45
44 44 45 46 44 43 43 44 44 45 42 42 44 43 45 43 44 42 42 43 43 43 42 44 43 42 43 45 49 52 53 52 51 48 50 48 47 50 51 50 42 39 40 42 42
48 47 49 48 46 45 44 45 45 46 45 42 44 47 45 44 45 41 39 41 41 42 45 45 46 48 52 50 51 53 58 55 52 52 53 52 53 47 46 46 48 50 46 42 41
51 51 51 51 49 49 49 50 50 51 52 48 48 50 50 48 48 47 42 45 46 46 48 50 48 52 55 52 50 50 50 51 53 51 50 56 58 56 52 47 50 50 46 43 41
57 55 57 56 55 54 54 55 55 55 55 57 56 54 50 49 46 43 42 42 42 42 41 44 35 40 45 46 46 45 45 49 52 55 56 57 62 59 55 58 61 57 48 45 44
54 55 58 59 57 55 56 55 55 55 56 56 57 53 48 42 38 39 39 39 40 37 39 42 42 41 41 43 47 48 46 46 47 51 56 55 57 61 59 61 61 58 56 52 49
49 47 46 48 53 56 54 52 51 49 56 52 50 47 47 44 42 41 41 43 44 45 45 46 48 46 44 42 43 46 47 49 51 52 57 56 59 62 60 58 58 57 58 58 55
49 45 44 44 47 50 49 46 45 47 51 50 49 48 47 48 49 48 47 47 48 48 50 49 47 48 49 49 47 47 50 53 55 55 57 58 60 59 58 61 61 60 59 56 55
50 49 49 50 48 49 49 48 51 54 51 52 49 49 49 47 49 49 50 49 49 50 49 48 49 49 53 53 52 50 50 49 53 56 58 54 58 56 55 56 59 60 61 61 60
54 48 46 47 47 51 53 54 54 49 47 47 48 50 51 51 51 53 51 51 53 51 47 49 51 49 50 51 52 51 49 49 53 55 57 59 59 55 54 58 59 62 63 61 60
55 60 55 52 51 54 52 52 53 48 47 46 47 49 50 48 51 51 50 53 52 50 53 56 56 52 50 51 48 47 48 50 51 53 57 59 58 56 55 58 58 59 60 63 63
55 54 57 50 50 55 56 53 48 45 43 47 53 55 57 60 59 60 63 61 58 55 51 47 47 48 47 44 45 48 49 51 52 55 58 60 59 53 57 57 58 61 64 62 61
56 55 54 52 52 57 54 51 55 56 58 59 61 62 62 58 58 56 56 50 53 49 44 45 48 49 48 46 48 51 52 53 57 58 58 56 51 42 47 54 54 55 60 60 63
70 63 55 58 61 58 58 63 63 62 62 63 63 61 60 59 57 56 52 51 51 48 49 49 53 54 54 52 52 53 54 53 56 57 55 56 57 53 52 54 62 65 67 72 76
63 57 57 59 59 60 61 58 58 59 61 61 60 60 60 56 53 54 52 51 51 51 52 53 55 56 57 56 56 57 57 56 60 63 63 64 65 60 61 64 66 66 67 71 72
64 67 67 66 68 68 65 64 58 61 60 59 60 58 56 56 56 54 54 54 56 56 54 56 57 59 58 60 59 61 62 61 64 64 67 67 67 66 67 72 74 75 76 77 78
68 69 69 72 73 69 64 64 63 63 63 61 56 56 56 56 56 57 57 56 57 59 59 60 61 61 62 62 62 64 64 65 65 66 70 72 75 71 75 76 77 78 79 79 82
69 73 74 77 70 70 66 63 62 60 61 58 56 56 59 59 58 57 57 59 60 60 61 63 64 66 69 66 69 71 64 67 69 69 72 77 76 76 77 79 80 79 76 77 77

GFSSW_500_spd_027.txt.gz
Wind_Speed
22 21 20 19 18 17 17 17 17 16 15 15 14 13 13 12 11 12 13 14 14 16 16 17 18 18 20 22 23 22 21 21 22 21 20 19 18 17 19 19 20 18 21 21 17
26 25 24 24 23 22 21 20 20 19 18 18 19 18 17 18 18 18 19 19 20 21 22 23 23 24 25 24 24 23 21 21 22 22 20 23 23 23 21 19 24 23 24 23 21
30 29 29 28 27 26 25 23 22 21 19 19 18 20 21 22 23 23 23 24 26 26 27 27 28 29 28 23 23 21 20 22 23 24 22 23 26 31 29 20 27 26 26 29 28
33 33 32 32 31 30 29 27 25 24 23 23 22 23 23 24 27 28 28 29 30 31 31 32 31 28 24 22 23 21 22 23 26 26 27 28 29 30 27 28 25 26 29 29 32
37 38 37 36 35 34 33 32 31 29 28 28 28 28 28 29 32 35 34 34 35 35 35 31 27 23 24 27 25 22 24 25 28 29 31 32 30 28 29 28 29 27 28 31 34
40 39 39 38 38 37 37 36 35 35 34 33 34 34 34 35 35 36 35 34 34 33 29 27 29 29 29 27 28 27 28 29 28 30 32 33 29 30 31 29 27 28 30 31 34
41 42 42 41 40 38 38 38 38 38 39 39 38 37 35 32 29 29 29 28 28 29 31 33 34 33 31 30 31 33 33 32 33 36 36 37 32 34 33 30 28 29 31 32 38
41 42 42 42 43 43 43 42 41 41 40 39 36 34 33 30 31 32 33 33 34 34 36 37 36 35 34 34 36 36 39 36 35 37 39 40 39 31 33 33 28 29 31 35 36
42 42 43 43 43 43 41 40 39 39 38 38 38 38 36 34 34 35 35 35 34 35 35 36 37 38 37 39 40 39 42 39 38 37 39 42 42 39 28 31 29 29 34 36 36
41 41 41 43 44 44 43 43 42 41 40 40 39 38 36 34 35 36 37 37 37 38 39 41 41 39 38 41 40 40 40 41 43 44 45 47 44 44 43 38 35 37 36 34 33
44 42 44 44 44 44 42 42 41 41 39 39 41 40 40 37 37 36 38 38 38 38 40 41 41 36 38 41 42 42 44 46 46 48 50 44 45 41 42 41 41 41 38 37 39
45 44 46 47 47 46 45 44 43 43 41 38 39 41 40 39 41 39 38 39 39 39 41 43 43 40 44 45 45 47 50 49 49 47 47 45 45 39 37 44 44 43 40 36 35
48 48 49 50 49 48 47 46 45 45 46 40 43 46 48 45 44 40 40 41 42 41 39 42 44 43 44 46 44 42 43 43 46 43 43 48 47 43 40 42 40 42 42 42 40
53 54 56 54 52 49 50 51 49 49 51 53 51 48 48 47 45 39 33 34 36 33 33 37 32 36 37 38 41 39 41 41 42 44 47 46 53 48 51 53 52 49 49 48 46
54 52 52 53 54 51 52 53 54 53 55 54 53 48 42 39 36 35 34 35 36 34 36 38 38 37 36 39 42 42 42 42 41 45 52 47 52 54 54 54 53 54 53 51 49
50 51 50 51 54 52 47 46 44 47 56 51 47 44 43 39 37 38 37 37 39 39 40 42 43 42 43 42 43 46 46 45 47 48 52 51 54 56 55 53 52 52 51 50 49
46 47 49 49 47 45 46 43 41 47 49 49 45 42 40 39 42 44 44 42 41 40 43 44 42 44 45 44 44 44 45 47 51 52 53 54 54 53 52 54 55 55 55 53 51
39 41 41 42 45 48 45 45 48 50 46 45 44 43 44 43 43 44 45 44 44 46 45 43 43 45 46 47 47 48 46 46 50 52 53 51 53 50 52 54 56 54 53 53 54
42 44 46 48 48 49 49 50 53 47 45 44 44 47 46 45 45 43 43 43 45 44 43 43 43 44 45 46 47 50 51 52 53 50 51 52 50 50 51 52 52 53 54 56 59
49 49 51 50 53 51 50 49 52 50 46 45 47 47 47 43 43 42 41 45 44 44 46 48 49 50 50 49 48 47 47 48 49 51 53 52 49 50 51 49 51 54 55 57 59
55 53 53 54 53 54 57 56 55 57 52 51 49 50 47 41 44 48 52 53 53 54 51 51 51 49 48 46 45 45 44 46 48 51 54 56 54 52 50 52 55 55 54 55 57
48 55 60 60 57 55 57 53 48 50 51 51 51 47 45 49 54 55 55 56 58 54 50 49 46 48 44 45 46 47 45 48 53 55 55 57 56 51 51 55 54 53 54 58 60
54 60 66 66 56 56 56 51 50 53 52 57 56 55 53 55 55 52 50 51 54 55 53 48 51 51 51 49 48 48 48 51 55 58 58 58 60 55 55 54 56 58 61 64 65
62 61 69 67 58 60 58 54 52 53 56 56 55 54 55 52 52 55 55 55 55 54 55 53 53 53 51 50 53 54 53 55 58 60 59 60 59 56 57 59 62 63 64 68 69
68 66 64 66 66 55 52 49 55 57 55 61 63 59 52 53 55 58 57 56 54 53 54 55 55 56 56 57 59 59 58 57 61 59 61 63 63 63 62 66 67 68 69 71 74
57 52 56 61 59 56 55 54 59 62 59 56 62 63 63 59 56 53 52 55 54 54 54 55 59 60 60 60 61 65 61 63 63 64 68 68 72 67 70 71 72 74 74 76 79
60 58 61 63 61 62 63 61 62 65 65 65 61 58 57 57 56 53 52 53 56 57 58 60 61 63 64 63 64 68 58 62 65 65 69 73 73 72 72 73 74 77 78 80 81

GFSSW_500_spd_030.txt.gz
Wind_Speed
23 22 21 20 19 18 16 16 15 14 14 14 14 13 13 12 12 11 11 11 12 13 14 15 16 17 17 20 22 22 20 22 21 21 19 18 16 13 15 18 20 21 22 20 18
27 25 24 23 23 22 21 20 18 17 16 16 16 17 17 17 17 17 17 17 17 19 19 20 20 21 22 24 25 24 21 20 20 19 21 23 22 19 17 20 23 21 25 24 23
30 29 28 27 27 26 25 24 22 20 19 19 18 18 19 21 22 22 22 22 23 24 24 24 24 25 27 26 25 20 20 21 21 21 22 24 26 28 27 24 22 21 26 30 28
35 34 32 32 31 30 29 28 26 24 22 22 22 21 21 21 24 24 24 25 26 28 29 29 29 29 29 26 20 17 22 22 24 25 26 25 25 27 30 27 24 23 25 29 30
38 37 36 35 35 34 33 33 31 30 28 27 26 26 25 25 28 29 29 30 32 34 35 35 33 29 24 23 24 23 23 23 23 28 28 26 26 25 27 27 29 31 28 27 29
41 40 39 38 39 38 38 38 37 36 34 33 31 31 29 30 33 34 35 34 32 31 30 29 26 25 25 27 27 24 25 24 27 30 30 28 27 27 28 26 29 33 36 33 31
43 43 42 41 40 40 40 39 39 38 37 36 36 35 34 35 36 35 32 30 29 28 29 28 29 31 30 30 28 28 27 28 32 33 33 32 27 29 29 29 29 35 35 33 32
43 42 42 42 42 41 41 42 41 40 40 39 39 39 37 34 32 32 32 32 32 32 33 33 33 33 31 31 31 31 32 31 33 34 34 34 29 27 31 30 30 35 33 32 33
45 44 43 43 43 43 41 40 41 41 40 39 38 39 36 33 34 34 35 35 35 34 33 33 34 34 33 35 37 36 37 33 30 33 35 37 35 34 32 32 30 32 30 30 32
43 43 43 43 43 43 43 42 41 42 41 41 41 41 38 35 34 33 33 33 34 34 35 37 37 34 33 37 36 37 38 37 34 34 40 41 42 42 39 35 35 33 30 30 31
45 44 44 43 43 43 42 42 41 40 39 40 39 39 38 37 36 36 34 33 32 32 35 36 37 33 35 38 37 37 38 39 37 40 43 38 40 37 37 37 34 32 34 34 36
47 46 45 43 43 42 44 44 43 44 43 42 42 42 41 39 37 35 35 36 36 36 38 40 41 37 41 42 41 40 41 40 41 39 39 37 36 35 33 35 35 34 32 33 33
49 49 49 46 45 44 44 42 44 45 47 41 43 43 42 42 39 37 40 41 40 39 39 41 40 37 37 38 38 36 35 36 38 36 39 43 42 35 37 35 35 38 37 35 36
55 56 54 52 50 47 47 49 49 48 51 49 44 49 47 45 46 43 41 40 38 34 35 35 30 34 34 33 35 34 38 38 39 42 42 41 48 41 42 43 42 41 40 40 39
61 61 58 55 53 52 52 53 52 49 53 52 53 48 48 47 43 39 35 33 33 33 34 36 34 32 33 35 36 37 38 40 42 44 48 44 47 48 48 49 46 45 45 43 43
65 58 61 55 55 54 54 50 47 48 54 51 50 44 41 39 38 38 35 34 34 35 35 37 39 37 37 39 39 41 41 43 44 45 49 44 47 51 51 48 47 49 49 46 45
48 48 48 49 50 52 51 50 49 50 48 45 43 39 37 37 37 36 36 36 37 37 39 40 39 39 39 39 39 40 41 43 46 47 48 49 52 51 49 50 50 49 48 47 49
39 39 42 46 47 47 46 47 46 48 43 42 41 41 39 41 40 40 40 39 40 41 40 40 39 39 41 40 41 42 40 40 44 47 49 52 55 55 52 50 46 47 47 47 49
38 41 50 49 44 41 41 42 43 42 47 44 43 45 46 43 42 42 43 44 46 43 41 41 40 37 39 39 39 42 44 46 50 50 52 55 56 54 51 51 51 51 50 51 52
49 51 50 52 44 47 49 46 50 53 48 48 47 48 48 45 47 45 46 48 43 41 42 42 42 43 45 46 47 46 47 48 50 51 53 52 51 53 51 51 52 53 52 53 55
54 53 51 52 52 54 56 55 56 55 54 51 51 49 50 50 50 51 52 49 47 42 42 44 46 47 49 46 45 46 46 48 48 51 53 54 55 56 54 54 55 56 56 56 58
58 58 56 58 62 66 64 58 58 58 56 56 54 56 57 54 55 55 52 54 53 49 43 43 45 49 49 49 46 45 47 48 51 54 55 57 56 56 57 58 58 58 60 63 63
58 58 55 63 64 62 60 58 61 62 59 46 47 51 51 50 53 51 52 52 55 54 52 44 48 48 50 49 47 47 47 49 54 55 58 61 62 57 59 60 61 62 65 66 66
54 55 55 61 63 66 65 64 65 63 60 56 48 52 54 57 55 55 55 51 47 50 50 49 50 51 51 52 56 53 52 56 59 61 62 63 64 60 62 63 65 66 66 67 68
62 60 63 63 63 62 66 68 64 59 58 57 52 53 48 53 56 55 56 54 50 50 53 56 57 58 60 58 57 56 53 62 63 63 67 62 64 62 60 63 66 65 66 68 70
68 65 63 62 66 68 68 74 69 57 57 54 49 48 51 56 61 59 52 56 57 55 56 58 60 59 57 59 61 62 56 63 64 63 64 63 67 58 64 66 67 69 70 72 73
69 67 67 66 66 66 68 65 60 52 47 49 46 50 53 61 61 61 57 59 58 57 57 58 58 59 58 61 66 68 60 60 63 65 66 67 65 66 65 68 70 71 72 73 74

GFSSW_500_spd_036.txt.gz
Wind_Speed
26 25 24 22 22 20 18 17 16 14 13 12 12 12 13 13 13 14 14 13 13 12 12 12 13 14 15 17 17 18 21 22 21 18 16 14 13 14 15 16 18 19 20 15 10
29 28 27 26 24 23 22 21 19 18 17 16 15 15 15 16 17 16 16 17 17 17 17 17 18 18 19 21 21 22 24 24 22 18 16 15 16 15 16 17 19 22 18 13 13
33 32 31 30 28 27 26 25 23 22 21 20 20 18 16 17 19 20 20 21 21 22 22 22 21 22 23 24 25 25 26 23 19 17 18 18 18 17 19 19 17 19 21 18 17
36 35 34 33 32 31 30 28 27 26 26 25 24 22 21 19 22 21 22 23 23 23 23 24 25 25 28 29 28 25 23 19 20 22 21 19 20 19 24 21 21 19 19 20 20
39 39 38 38 36 35 34 33 32 31 31 30 28 26 25 24 26 24 25 26 26 26 26 27 29 31 31 28 25 20 21 21 23 25 21 21 21 22 26 26 25 24 21 18 19
43 42 42 41 40 38 38 37 36 36 35 34 32 31 29 29 30 30 30 30 31 31 30 31 32 32 28 26 24 22 22 25 27 27 24 23 23 26 27 29 28 26 24 22 23
46 45 45 45 44 43 42 41 40 39 39 38 37 37 34 34 34 34 35 35 34 34 35 35 32 30 28 28 28 27 26 25 25 26 27 25 24 28 28 28 27 25 25 26 27
48 47 47 47 47 46 45 45 44 43 42 41 40 38 37 35 35 35 35 35 35 36 36 35 32 31 31 30 29 28 26 25 26 26 28 27 24 27 27 28 27 27 29 30 29
49 48 48 49 49 47 47 47 46 45 44 44 42 41 39 36 37 38 38 38 39 37 35 35 34 34 31 29 30 30 28 25 26 26 28 28 22 25 31 31 30 32 34 33 29
52 51 50 50 49 48 48 48 48 46 44 44 45 44 41 39 37 38 38 38 37 36 36 36 35 33 28 32 32 29 27 27 25 29 33 33 31 28 34 34 34 33 31 30 29
52 51 52 52 51 50 51 50 50 49 46 44 45 44 42 40 38 38 38 38 38 37 35 35 34 30 33 33 33 32 32 32 30 34 36 34 32 34 33 31 30 28 27 27 28
54 52 52 50 49 49 49 49 49 48 46 44 43 42 41 39 38 37 36 37 36 36 37 37 35 32 33 34 36 37 37 35 37 37 35 33 29 30 30 30 31 31 30 30 30
56 55 54 54 51 49 48 48 49 49 50 44 46 44 43 41 39 39 38 39 39 39 38 38 37 35 36 39 41 42 41 40 40 37 35 33 31 31 30 31 34 35 36 35 34
59 58 56 56 55 52 52 52 52 53 54 50 46 48 45 43 44 40 39 40 41 39 39 41 39 40 42 43 44 45 42 42 38 38 36 36 37 33 33 35 36 36 35 35 35
64 63 61 60 58 57 54 54 54 54 59 55 52 49 49 49 46 42 43 46 46 44 44 45 46 45 44 43 41 40 40 40 39 39 40 39 41 42 39 35 35 36 34 34 36
73 67 66 65 63 60 58 58 61 60 65 59 56 50 51 48 44 44 44 43 44 46 44 42 45 45 42 40 40 39 39 40 41 42 43 39 43 45 42 42 39 37 37 39 41
63 73 63 62 61 68 67 65 66 67 65 58 57 56 57 52 50 46 44 45 45 44 41 39 39 39 40 39 38 39 41 43 44 42 43 44 47 45 44 44 43 41 40 39 39
57 64 68 70 64 66 69 71 68 56 61 66 59 59 51 45 47 47 44 44 42 38 36 36 38 37 38 38 40 43 43 43 42 46 48 47 47 45 47 46 44 42 39 39 40
52 55 59 60 56 53 55 65 60 56 54 56 58 54 50 46 46 46 44 44 41 39 39 40 41 39 40 41 42 43 43 39 45 47 50 53 50 47 48 49 45 40 40 43 46
52 51 50 47 46 52 61 62 54 51 49 52 52 50 48 46 47 47 44 40 40 41 42 43 41 41 42 43 44 43 42 45 46 48 52 55 53 54 51 50 47 46 48 48 51
55 58 57 50 49 63 68 59 51 52 51 48 49 48 48 47 46 47 45 42 41 43 44 42 41 43 43 46 45 45 48 49 49 52 54 55 56 57 55 52 52 51 50 51 52
60 61 60 58 62 66 66 60 55 54 53 55 55 54 54 51 49 48 49 43 45 46 49 46 48 49 48 50 51 52 51 51 52 50 50 54 59 60 55 52 53 53 53 54 57
58 57 61 59 63 63 65 65 62 60 60 60 60 59 56 52 54 51 52 52 50 50 53 52 54 52 55 58 57 54 49 46 47 51 60 57 63 56 55 55 53 53 56 59 62
52 58 57 61 67 67 69 71 71 67 69 67 66 65 63 60 57 56 57 59 59 54 59 60 58 60 60 59 60 57 57 54 53 62 60 61 55 57 55 54 54 56 59 63 66
58 50 55 55 58 61 66 67 65 67 66 68 70 69 71 67 64 64 63 62 59 60 61 63 62 61 60 60 61 63 60 56 61 61 60 56 57 53 55 56 60 64 66 68 71
60 60 57 54 48 56 60 65 65 61 62 68 69 72 72 74 68 68 65 64 67 64 63 64 61 60 61 58 61 63 58 66 63 62 64 60 62 57 58 61 63 67 70 71 74
64 60 60 56 59 54 55 58 55 58 65 64 64 68 69 67 68 58 57 58 56 52 54 58 60 58 61 60 60 65 66 62 65 64 62 65 61 60 61 65 66 70 73 73 74

GFSSW_500_spd_042.txt.gz
Wind_Speed
27 26 25 24 22 21 19 18 16 16 15 13 10 8 7 6 7 7 7 8 9 9 10 10 10 10 10 11 12 14 15 16 17 17 16 12 8 9 8 7 6 7 7 7 5
29 29 28 26 25 24 23 21 20 18 17 16 14 12 10 9 9 9 10 11 12 13 14 14 14 14 15 15 15 16 17 19 21 20 16 11 10 12 12 9 9 8 9 8 7
33 31 31 30 29 27 26 24 23 22 20 19 18 17 15 13 12 11 12 14 15 16 18 18 19 19 19 19 19 19 20 22 21 19 15 12 13 15 14 12 13 11 10 11 11
36 35 35 34 33 31 30 28 27 26 25 23 22 21 20 17 16 16 16 16 17 18 20 22 22 22 22 21 21 21 22 22 20 18 15 15 16 15 14 15 14 14 15 13 14
40 39 38 37 36 34 33 32 31 30 29 28 26 25 23 22 21 20 20 21 20 20 21 22 22 23 24 24 24 23 24 23 20 19 18 19 19 16 15 15 16 17 16 16 15
43 42 41 41 39 38 37 36 34 33 33 32 30 29 27 27 25 25 25 25 24 25 26 26 26 27 27 28 27 25 24 23 22 23 22 22 21 18 16 16 17 17 16 15 15
46 45 44 44 43 42 41 40 39 37 36 35 34 33 31 31 30 30 29 29 29 30 31 30 31 31 30 30 30 27 25 24 25 26 25 24 22 20 19 19 19 19 18 18 18
50 49 47 47 45 44 43 43 42 41 39 39 38 37 35 35 34 33 34 34 33 32 31 31 32 32 31 30 30 29 27 27 26 26 26 24 25 23 22 20 20 20 21 21 22
53 52 51 50 49 48 47 46 45 44 43 42 41 41 40 37 37 38 37 36 36 35 35 34 34 34 33 33 33 30 30 28 27 25 27 26 24 25 24 24 24 24 25 24 24
54 53 53 52 52 51 50 50 49 48 47 46 46 45 44 41 41 40 39 39 38 38 37 36 36 35 32 32 33 33 28 27 26 27 28 27 26 27 27 27 28 28 28 27 26
57 56 55 53 53 53 53 52 52 52 51 49 49 48 47 44 43 42 41 41 41 41 39 37 38 31 33 36 34 31 29 27 28 31 32 31 30 31 30 30 32 31 30 29 28
57 58 57 56 55 53 53 53 52 53 53 52 52 51 49 47 46 44 44 44 42 39 38 35 32 31 33 33 33 31 31 30 31 34 35 34 33 33 32 33 33 32 30 29 28
59 60 59 59 61 58 53 54 54 54 57 54 54 54 51 51 48 46 43 40 38 37 34 36 36 34 35 35 36 35 35 34 36 36 38 37 37 34 35 35 33 32 31 31 30
65 66 62 60 59 57 56 55 55 54 60 61 53 55 52 49 49 44 41 38 37 37 37 39 36 35 35 35 36 38 36 38 39 40 41 39 42 35 33 34 30 30 30 32 32
62 68 71 66 65 62 55 57 58 57 62 60 56 54 52 53 50 41 40 39 38 37 38 39 39 38 40 38 42 43 40 42 42 44 46 44 41 41 33 30 29 30 32 34 34
56 59 65 70 65 66 63 61 60 59 64 62 57 52 49 47 46 45 41 40 38 40 42 42 41 43 44 41 41 43 46 45 45 48 52 45 41 45 32 29 29 31 33 33 33
60 59 58 63 60 69 70 66 67 69 66 64 61 58 52 49 46 44 42 40 46 43 42 42 46 45 46 47 45 43 42 45 48 48 46 41 41 42 38 32 30 31 32 32 32
58 59 60 59 57 62 76 76 78 64 68 68 66 62 58 53 48 48 49 47 46 48 46 51 49 46 47 47 45 43 44 44 44 43 41 41 44 39 38 38 36 35 33 32 32
52 49 54 56 53 57 70 74 73 65 68 69 68 65 61 61 55 51 51 52 52 49 48 53 56 52 46 44 45 43 44 36 39 40 42 42 40 40 40 39 39 37 36 36 37
49 57 57 58 44 51 69 75 62 71 71 71 67 65 65 64 64 59 55 51 52 48 49 51 54 53 49 48 49 47 40 40 40 39 40 42 41 42 42 43 41 41 40 39 38
48 58 62 57 60 64 66 64 56 58 64 65 65 62 61 60 63 63 56 53 49 44 47 46 47 49 49 48 44 44 43 41 40 43 44 44 40 41 44 46 47 46 42 42 43
49 59 57 59 66 72 73 56 58 56 58 57 57 52 54 55 56 57 54 48 43 40 41 42 45 48 47 47 46 47 48 46 47 43 43 46 47 50 50 50 49 48 49 46 47
59 62 65 68 68 67 68 68 62 60 63 58 57 53 51 52 54 54 53 44 40 39 40 41 45 45 47 49 50 51 50 44 43 44 44 49 52 55 56 54 51 51 52 53 53
64 65 68 72 73 65 65 67 69 68 65 62 57 57 58 57 56 55 53 48 44 45 44 49 49 48 46 46 45 46 47 48 50 55 56 56 56 57 56 57 57 56 58 57 58
67 72 70 70 68 68 63 63 60 66 68 67 66 64 61 62 60 57 56 54 50 49 50 52 51 52 47 48 52 52 52 55 61 61 63 59 65 60 57 60 63 61 59 60 60
73 74 68 66 60 62 61 59 58 60 62 66 66 68 68 66 62 56 54 58 58 56 55 56 58 56 57 53 55 60 59 59 61 64 70 69 66 61 56 60 62 61 63 61 61
69 75 71 69 73 64 62 62 57 54 55 60 55 57 62 63 60 61 62 62 63 61 59 60 59 58 60 55 58 66 62 65 66 67 67 68 59 59 59 60 62 62 65 62 61

GFSSW_500_spd_045.txt.gz
Wind_Speed
31 30 30 29 28 26 24 22 20 18 17 15 13 11 9 8 8 8 9 9 10 10 10 10 10 10 10 10 12 14 14 14 14 16 17 15 12 9 9 8 10 8 8 7 7
34 34 33 31 30 28 27 25 23 22 20 19 17 15 13 11 10 10 10 10 11 12 12 12 13 13 14 15 16 17 18 17 17 18 17 16 13 11 11 10 12 12 10 8 8
37 36 35 34 32 31 29 27 26 25 23 22 20 19 17 15 13 12 12 13 14 14 15 16 17 18 19 19 20 20 21 21 21 20 17 15 15 14 14 13 13 14 14 12 12
39 38 37 36 34 33 32 31 29 27 26 25 24 22 21 20 18 17 16 15 15 16 17 18 20 21 22 23 22 22 23 23 23 21 18 16 16 16 17 14 15 15 15 16 17
42 41 40 38 38 36 35 34 32 31 29 28 27 26 25 24 23 21 19 18 18 19 19 19 20 21 22 23 24 24 25 25 25 23 20 18 19 18 19 19 17 17 17 17 18
45 44 43 42 41 40 39 37 36 34 33 32 31 30 29 27 27 25 24 22 22 22 23 24 24 25 26 27 27 27 28 28 27 25 23 23 22 21 20 20 19 19 19 18 18
48 46 45 45 44 43 42 41 40 38 37 36 35 34 33 32 30 29 28 27 27 27 27 28 29 30 30 30 30 30 30 29 28 27 26 27 24 23 20 21 21 21 20 20 20
52 50 49 48 47 46 45 44 43 42 41 40 39 39 36 35 34 33 32 32 31 31 31 32 31 30 31 31 31 31 31 31 30 30 28 31 26 23 23 23 23 22 22 22 22
56 54 52 51 50 49 49 48 47 46 45 44 43 42 40 38 37 37 36 36 35 34 35 33 33 33 33 34 34 33 33 34 34 30 31 32 31 26 26 24 23 24 25 26 25
59 58 57 55 54 52 51 51 50 49 48 47 46 46 44 41 41 41 40 40 39 38 37 36 36 36 34 34 34 37 33 33 31 32 33 31 31 29 29 26 25 27 29 28 28
60 60 59 59 58 56 55 54 54 54 52 49 50 49 48 46 45 44 44 44 43 41 38 39 40 35 35 39 39 36 35 33 34 35 34 34 33 34 32 30 30 30 30 29 29
62 62 61 60 61 59 58 57 57 57 56 55 54 53 52 51 50 48 47 47 45 42 42 41 44 34 38 36 37 35 35 31 33 34 39 38 37 36 36 31 33 33 33 32 32
65 62 61 62 62 59 58 57 58 59 62 58 57 57 55 55 53 52 51 49 46 45 43 44 42 37 35 35 34 35 36 34 38 40 42 43 42 39 37 33 34 36 36 36 34
62 66 64 63 61 62 59 59 58 59 62 65 60 60 59 56 58 55 50 50 48 46 42 41 41 35 36 37 35 37 38 37 39 43 43 47 48 42 38 35 37 36 36 34 33
55 59 68 69 65 62 60 62 61 60 66 67 68 64 60 58 57 55 51 48 47 43 42 42 40 39 38 34 37 39 41 41 43 46 48 49 50 41 41 36 37 37 36 35 34
57 55 51 61 67 68 62 63 66 65 67 66 63 60 59 58 59 56 50 49 48 47 43 43 44 39 38 38 39 43 45 45 46 47 54 49 49 46 45 38 40 35 34 32 33
58 58 56 59 58 58 58 63 74 77 67 68 68 67 61 56 53 53 48 44 41 41 43 41 43 44 40 40 42 43 43 46 53 56 54 52 52 47 45 37 34 32 33 35 35
55 54 55 57 56 58 59 65 73 61 72 72 74 74 67 61 59 54 50 48 45 44 45 45 45 43 44 44 49 51 48 49 55 56 54 51 51 49 39 35 32 31 32 33 34
59 55 56 53 54 57 64 70 69 63 64 65 72 73 71 66 60 57 54 52 51 50 46 48 50 51 50 53 54 56 54 42 48 50 54 51 46 43 37 32 32 32 31 31 31
62 59 56 56 55 58 63 72 65 61 59 60 63 66 69 67 63 61 59 57 55 51 52 53 53 53 56 54 55 57 55 52 50 52 52 50 47 37 30 33 34 33 31 31 33
62 62 57 50 65 69 73 67 60 62 61 60 60 59 60 66 63 61 59 59 57 53 52 53 56 58 58 55 49 49 51 49 49 51 52 51 48 36 35 38 39 37 36 35 35
64 62 58 58 73 72 74 58 57 58 59 56 56 54 58 62 62 65 63 61 63 61 60 56 56 58 56 54 50 51 50 50 52 52 51 51 48 46 42 40 42 43 43 42 42
67 64 64 64 62 61 63 64 64 65 60 56 55 55 60 61 61 57 60 58 58 58 54 55 54 52 52 55 54 52 45 44 45 48 49 54 47 48 45 45 46 48 48 48 49
68 70 76 65 63 57 61 67 67 67 67 65 59 55 59 61 57 55 57 59 55 50 51 54 55 52 52 47 48 46 45 45 47 48 46 48 45 48 48 49 52 53 52 56 59
66 71 77 73 72 64 62 60 69 72 70 72 71 65 61 58 58 55 56 57 57 52 53 56 55 53 49 48 49 53 50 49 48 47 52 45 50 51 52 56 57 58 60 63 62
66 67 71 75 68 63 59 66 67 67 69 70 69 65 70 70 62 58 55 56 58 57 57 59 56 55 53 50 54 55 56 56 56 53 56 53 55 58 60 59 60 59 62 64 64
68 67 68 71 73 70 68 63 63 65 68 68 66 64 66 66 65 64 67 66 65 64 59 58 55 56 58 57 56 62 53 57 58 59 56 58 55 56 60 63 63 63 61 63 61

GFSSW_500_spd_048.txt.gz
Wind_Speed
35 34 33 31 30 28 26 24 23 22 21 19 17 14 13 11 10 9 9 9 9 10 11 11 11 11 11 10 10 10 11 12 13 14 15 15 14 12 11 9 11 11 9 8 9
37 36 35 34 32 31 29 28 26 25 23 21 19 17 15 13 11 10 10 10 11 12 12 12 12 12 12 13 13 14 15 15 16 15 18 17 16 12 12 10 13 13 13 10 10
39 38 38 36 35 34 33 31 30 28 26 24 22 20 18 16 14 12 12 12 13 13 13 14 14 15 15 16 18 18 19 18 17 17 19 16 17 14 13 13 12 15 15 14 13
41 40 40 39 38 37 36 35 33 31 29 27 25 24 22 20 18 16 15 14 14 15 16 17 17 18 18 19 21 21 20 20 20 20 20 17 17 17 16 14 16 15 17 17 18
42 42 42 42 41 40 39 37 35 33 31 30 28 27 26 24 22 21 19 17 17 17 16 17 17 18 19 19 21 21 21 24 24 24 23 20 19 18 18 19 18 18 18 19 20
45 45 45 44 43 42 41 40 38 36 34 33 32 30 29 28 26 24 23 22 21 20 19 19 20 21 21 23 24 24 26 27 27 27 25 23 21 18 22 22 20 20 20 19 20
48 48 48 47 46 45 44 43 41 39 38 37 35 34 33 31 30 28 27 26 26 25 23 23 23 24 24 27 28 27 28 28 27 28 27 28 24 21 23 23 23 22 22 21 20
52 51 50 50 50 48 47 46 44 43 42 41 40 38 35 34 33 32 31 31 30 29 28 28 28 27 28 28 28 29 30 32 29 30 31 32 25 28 25 24 24 24 23 23 22
56 55 54 52 52 51 50 49 48 47 46 45 43 42 40 37 36 35 35 34 34 33 33 32 32 31 31 30 31 30 33 33 34 31 30 33 31 29 28 28 26 25 24 24 25
59 58 57 56 54 53 53 52 51 50 49 48 47 45 44 39 40 40 39 38 38 37 37 35 36 35 31 32 32 36 36 34 35 34 33 34 32 32 30 30 27 26 25 26 26
62 61 60 59 58 58 56 55 54 55 53 50 50 49 48 45 44 43 43 42 42 41 40 40 41 35 33 36 36 39 39 38 32 38 36 35 35 36 32 32 29 29 29 28 29
66 63 64 62 61 60 59 58 58 59 58 55 54 52 51 49 48 46 46 46 45 44 45 43 41 36 38 38 40 40 39 34 34 38 36 35 36 35 36 30 33 34 32 32 31
68 71 66 63 65 62 62 61 61 62 64 59 57 57 55 53 52 50 50 50 49 48 45 45 42 41 40 41 41 36 37 34 36 39 39 38 41 36 37 37 34 32 36 35 33
47 70 71 72 66 62 59 62 62 63 65 64 60 59 59 57 58 55 53 53 53 49 45 49 43 45 40 39 37 38 36 38 37 40 42 42 50 38 36 38 38 35 38 39 37
48 42 63 72 66 70 65 64 65 65 67 67 67 67 62 60 59 59 57 56 54 48 48 49 46 45 43 37 39 39 38 40 39 41 47 44 52 45 38 37 36 34 40 42 39
53 49 44 47 56 68 69 65 66 69 70 72 69 65 65 63 62 63 62 57 54 53 51 49 47 43 40 38 38 40 39 42 45 46 52 45 46 52 43 40 38 37 39 41 41
62 54 54 51 46 49 61 66 61 70 62 62 64 63 64 61 60 60 60 59 58 54 54 47 46 49 47 45 42 42 42 45 50 52 54 49 50 44 46 42 38 37 37 37 35
64 63 58 49 41 51 49 64 63 61 66 67 67 66 64 64 63 60 59 56 52 50 49 51 46 44 43 35 37 43 45 47 48 52 56 56 50 44 41 33 35 33 33 32 31
64 65 64 57 56 54 49 62 60 50 57 60 66 67 66 65 62 64 62 60 57 51 46 47 50 48 45 46 45 47 50 40 50 53 57 55 51 47 44 31 28 29 29 28 29
64 66 67 63 60 57 61 64 56 55 53 59 62 63 64 63 61 59 54 52 52 53 51 51 52 55 51 50 49 50 50 51 57 58 57 53 50 47 44 35 31 29 27 26 27
64 67 66 64 60 62 69 59 58 55 57 59 61 61 60 60 57 57 55 52 52 54 50 51 54 58 55 55 49 52 54 53 52 56 57 53 47 48 46 42 35 33 31 28 26
63 66 66 64 67 70 69 60 57 58 62 60 57 60 60 61 62 58 55 52 51 52 56 52 52 55 55 54 57 59 59 56 56 53 51 53 42 45 44 44 37 36 35 32 30
64 62 64 65 66 67 65 67 63 61 65 64 60 56 55 56 61 60 59 50 49 51 51 53 56 56 60 62 63 60 54 52 47 49 53 53 46 48 40 42 42 38 37 39 42
67 65 65 70 68 61 67 68 67 62 66 72 66 65 62 57 58 59 58 55 48 50 51 55 57 59 56 55 57 55 50 47 49 54 53 51 47 45 40 41 40 40 41 44 47
71 69 66 69 71 70 55 69 71 69 66 62 64 70 66 64 57 54 52 56 56 53 56 59 57 55 54 50 50 55 55 53 54 51 54 44 46 42 41 43 44 45 47 49 49
73 71 71 69 70 74 75 62 73 70 69 60 59 61 61 62 64 56 57 56 55 55 52 54 57 53 53 50 51 53 56 57 58 55 55 51 49 50 45 45 48 49 49 50 53
75 73 72 73 70 73 77 74 62 62 62 62 55 53 55 60 59 58 59 60 62 61 56 55 53 53 53 54 53 57 51 53 58 59 55 55 44 49 50 52 52 51 51 54 56

GFSSW_500_spd_051.txt.gz
Wind_Speed
38 36 35 34 33 32 29 27 25 23 22 21 19 18 16 15 14 13 12 12 12 13 13 13 13 12 12 11 10 9 9 9 12 13 8 12 12 13 9 9 11 8 10 9 8
39 38 37 37 36 34 32 30 28 26 24 23 21 20 18 16 15 14 13 13 13 13 14 14 13 13 13 13 12 11 12 12 13 15 11 12 13 14 11 9 10 12 12 13 11
41 40 40 39 38 37 35 33 31 29 28 26 24 22 20 19 16 14 14 13 13 14 14 14 14 13 14 14 14 15 15 15 15 16 14 14 14 13 13 8 11 15 14 13 14
42 42 42 41 40 39 38 37 34 33 31 30 28 26 24 21 19 17 16 15 14 15 14 15 15 15 16 15 18 17 17 17 15 17 17 17 18 17 14 12 14 16 16 16 16
44 44 43 44 42 42 41 39 38 36 35 33 32 30 28 25 23 21 19 18 16 15 14 14 14 17 16 16 18 16 17 19 19 20 21 20 20 18 14 17 17 17 18 19 19
45 46 45 45 44 44 43 42 41 40 39 37 36 34 31 29 27 25 24 22 20 18 17 17 18 17 18 18 19 20 21 22 22 23 22 22 21 18 18 21 21 19 20 21 19
47 47 47 47 46 46 45 45 44 43 41 40 38 36 34 32 30 29 27 26 25 24 22 22 21 19 19 20 21 23 24 23 23 24 23 26 22 20 23 22 24 22 21 22 20
50 50 49 49 49 49 48 47 47 46 45 43 41 39 37 35 33 31 30 30 28 27 27 26 25 24 23 24 24 25 26 27 26 27 28 30 21 27 25 24 24 24 24 22 22
54 53 53 52 51 51 51 50 50 48 48 46 45 43 41 38 36 35 34 33 33 32 31 30 29 28 27 26 27 27 30 30 29 29 31 33 28 28 28 27 26 26 25 25 25
58 57 56 55 55 53 53 53 52 51 51 50 48 46 44 40 40 39 38 37 36 36 34 33 33 32 29 30 31 32 32 31 32 34 35 35 34 35 32 30 28 26 26 27 27
61 61 60 58 58 57 55 54 54 54 54 52 51 49 47 46 44 43 42 41 39 39 37 38 37 32 32 35 35 35 35 34 34 40 42 38 35 35 34 30 26 26 27 27 28
68 60 62 62 60 59 58 57 57 58 57 55 54 53 51 49 47 46 45 44 43 43 43 41 38 35 37 37 37 35 36 36 39 43 43 37 33 32 34 29 28 28 26 28 29
64 71 58 61 65 62 61 60 60 60 62 58 57 57 54 52 51 49 49 48 46 46 45 44 42 39 40 39 39 36 38 39 42 40 42 39 37 32 29 30 28 27 30 31 31
47 57 70 69 63 66 61 63 63 63 66 64 59 60 58 57 57 54 52 52 51 47 47 48 43 42 41 41 40 42 41 41 39 42 42 41 45 33 28 31 31 30 32 33 34
47 44 58 47 72 68 63 63 64 65 67 67 65 62 61 61 60 56 54 54 53 50 50 48 47 45 46 42 41 43 40 40 41 43 47 45 49 36 29 27 28 32 34 36 35
53 53 50 40 53 60 68 69 65 69 77 75 72 66 66 63 61 60 57 55 55 54 53 52 52 50 47 45 41 42 39 40 44 46 55 43 47 44 35 33 29 31 35 38 37
60 56 56 49 38 41 44 61 57 71 72 71 73 71 69 65 62 63 63 61 57 55 56 55 54 54 53 48 47 43 41 44 50 53 53 46 50 42 40 37 35 31 33 33 34
61 60 60 54 52 51 46 46 62 68 68 69 69 73 72 69 68 65 65 65 62 59 55 54 54 49 47 47 45 42 49 52 51 51 51 50 47 42 43 42 35 30 30 29 30
61 62 61 60 59 60 57 55 47 43 53 61 71 69 62 62 60 59 59 56 52 52 53 54 51 53 47 45 45 46 45 34 43 49 53 53 51 48 44 43 36 29 31 29 27
62 61 60 62 64 61 66 67 52 50 48 50 60 67 70 68 61 62 64 60 56 47 43 48 51 55 51 45 49 50 46 46 48 51 52 54 50 45 42 40 36 33 31 28 28
63 63 58 62 64 60 66 69 61 53 52 52 51 60 60 56 55 57 55 53 50 47 43 43 46 52 51 53 51 52 50 51 49 50 52 51 47 45 44 42 38 32 25 26 29
68 64 61 61 64 62 68 70 64 60 56 59 56 58 55 54 54 56 56 51 49 46 41 39 44 47 49 50 51 53 53 54 56 51 49 54 45 47 44 42 37 37 32 26 27
75 68 64 61 65 63 63 66 72 64 64 62 57 59 50 51 54 52 53 52 50 49 47 46 49 50 52 54 57 60 54 47 45 49 54 55 43 47 44 43 41 40 38 33 33
75 75 71 69 66 63 68 70 70 69 66 67 59 57 57 55 56 58 53 50 47 48 48 49 51 53 55 53 51 51 50 51 50 54 53 52 46 46 43 39 39 41 41 39 37
71 76 74 73 69 66 65 63 68 73 72 72 71 65 61 61 60 60 55 56 57 55 49 53 53 51 48 47 49 52 53 54 58 56 55 48 50 46 46 41 37 39 40 39 38
70 69 72 74 72 70 67 67 65 66 68 66 71 66 62 63 58 55 55 61 66 62 54 51 48 49 49 50 54 55 54 55 57 58 57 51 48 50 41 41 43 46 48 47 47
67 67 68 74 73 73 70 65 65 61 58 68 70 68 66 60 62 56 52 53 55 59 60 54 51 51 51 49 51 58 47 51 49 52 54 55 41 41 44 44 45 48 49 48 48

GFSSW_500_spd_054.txt.gz
Wind_Speed
42 41 39 37 35 33 31 29 28 26 24 23 22 20 18 18 18 18 18 17 17 17 17 17 17 16 15 14 12 11 8 8 8 7 7 9 9 9 9 9 7 9 10 10 10
44 42 41 39 37 35 34 32 31 29 27 25 24 22 21 20 20 18 18 17 17 17 16 17 16 16 15 14 13 12 10 11 12 12 9 9 10 10 9 9 10 11 12 12 12
43 44 43 41 40 38 37 36 34 32 30 28 27 25 24 23 21 19 18 18 17 17 17 17 17 16 16 15 15 14 13 14 15 14 12 11 12 12 11 9 13 13 12 12 14
43 44 44 43 41 40 40 39 38 35 33 32 30 29 28 26 24 21 20 19 18 17 17 17 17 18 17 17 16 15 16 16 17 15 14 15 15 14 13 11 15 16 14 15 14
44 44 44 44 43 42 42 42 41 39 37 35 33 32 31 29 27 25 23 21 20 18 18 17 19 18 16 17 16 16 17 15 16 18 18 18 18 16 16 15 15 17 18 18 18
46 45 45 45 45 45 44 44 43 42 41 39 37 36 35 33 30 27 26 24 22 20 19 19 19 17 17 17 16 17 17 17 20 21 19 19 18 17 20 19 17 18 20 21 21
45 47 46 46 47 47 47 46 45 45 44 42 41 40 38 37 34 31 30 27 26 24 23 22 21 20 19 18 18 18 19 20 23 21 20 22 20 20 22 23 22 21 21 22 22
48 47 48 47 48 49 49 49 48 48 47 46 44 43 41 39 37 35 33 32 30 29 28 26 25 24 22 22 20 20 21 23 23 23 24 26 20 26 26 26 25 25 25 23 22
53 51 49 50 49 49 50 51 51 51 51 49 48 46 44 41 39 38 37 35 34 32 31 30 28 27 26 24 25 26 26 25 24 25 27 29 25 29 30 30 29 28 26 25 25
59 56 53 52 52 50 51 52 52 53 53 52 51 49 46 43 42 42 40 38 37 36 35 34 33 31 28 27 30 30 28 28 28 29 30 31 29 34 35 35 33 30 29 27 26
67 61 58 56 55 54 53 53 53 54 55 54 53 52 49 47 46 45 43 42 41 39 37 38 37 31 30 32 34 33 32 31 30 34 34 34 36 38 37 32 29 30 29 27 26
45 68 62 60 59 57 56 55 55 56 57 56 56 54 53 51 49 47 46 45 44 43 42 41 37 34 35 35 36 36 35 33 33 35 42 40 40 38 37 28 27 26 24 24 26
49 47 62 67 63 60 59 58 58 59 62 58 59 58 57 55 53 51 50 49 48 47 44 44 41 38 39 37 37 37 37 36 38 40 48 48 47 38 30 28 27 24 25 25 26
45 42 47 63 74 62 62 62 61 61 65 65 60 61 59 57 57 55 54 52 51 47 47 47 44 41 40 40 39 40 37 40 40 46 49 49 56 39 30 27 27 25 29 29 30
54 48 40 45 61 74 68 58 63 65 67 67 66 63 61 61 60 55 54 54 53 50 49 49 46 45 44 41 41 40 39 41 44 48 50 51 54 42 32 28 25 28 30 31 34
54 53 48 42 43 54 68 72 73 67 70 72 70 67 66 62 63 61 57 56 56 54 53 52 51 47 45 43 43 42 44 42 45 48 58 47 51 37 32 28 25 26 31 35 37
55 55 53 47 43 43 46 44 51 67 79 77 74 70 69 66 64 63 60 59 57 55 56 53 52 51 49 46 45 45 42 45 54 58 61 52 51 35 33 28 28 26 30 32 38
58 57 55 53 51 51 46 54 49 48 54 76 78 79 75 74 71 67 64 61 59 58 58 58 57 53 53 51 46 44 50 52 55 50 51 53 48 35 36 33 33 32 30 35 36
59 58 55 55 57 58 58 64 58 46 46 54 62 68 69 73 73 70 70 67 63 60 59 60 59 58 57 58 52 48 51 44 47 51 51 45 43 41 36 34 35 32 28 29 32
62 61 57 58 58 58 61 68 63 53 46 49 54 63 67 61 58 60 62 64 64 64 61 56 60 61 56 54 55 54 50 50 50 53 52 50 50 45 39 37 35 34 30 30 31
63 63 58 58 60 57 59 70 61 53 52 52 50 44 54 57 59 62 62 62 60 53 53 55 57 58 56 54 52 52 55 52 53 54 54 52 43 47 47 45 39 33 30 25 27
65 66 64 63 63 62 57 66 65 65 62 57 58 56 46 49 51 49 57 57 58 57 54 46 47 54 55 54 53 51 51 55 55 57 57 53 40 46 47 42 41 38 35 34 33
69 66 67 61 67 66 63 61 57 62 67 67 63 60 56 54 54 52 52 51 49 52 50 46 49 49 50 51 53 53 52 52 54 53 50 53 37 47 41 42 43 41 39 41 41
74 72 69 73 66 64 67 66 70 71 73 68 64 69 65 59 58 59 55 50 47 48 45 45 46 51 51 50 51 50 46 47 48 52 54 50 47 46 50 46 43 40 44 41 38
81 77 73 74 74 72 68 67 70 72 73 55 57 68 68 67 62 62 56 53 48 47 44 47 48 45 46 47 49 53 54 53 57 52 57 43 48 42 49 50 45 45 44 43 42
82 81 77 74 73 74 76 73 68 68 70 74 62 71 68 75 72 59 57 56 58 57 54 53 52 51 53 48 51 57 56 58 59 58 59 54 52 49 48 48 48 46 47 48 48
81 81 79 79 74 74 77 77 72 69 68 69 75 66 71 72 70 70 68 65 64 63 60 52 52 56 59 53 53 56 52 58 58 56 56 58 50 49 50 48 47 46 48 50 49

GFSSW_500_spd_057.txt.gz
Wind_Speed
44 42 40 38 35 33 32 30 29 28 26 26 25 23 22 22 21 21 22 20 18 19 19 19 20 20 19 17 16 14 11 9 8 7 10 10 7 7 7 7 7 8 9 9 9
47 46 43 41 38 36 35 34 33 31 30 29 27 26 24 23 22 23 22 20 20 20 19 19 19 19 19 18 17 14 13 12 10 10 10 11 10 11 9 8 8 10 11 10 11
48 47 46 44 41 39 37 36 35 34 33 32 29 26 25 25 24 24 22 22 22 21 20 20 20 20 20 19 18 16 15 14 13 13 12 11 12 12 12 11 12 11 12 12 13
46 49 48 46 45 43 41 40 38 37 36 33 31 29 29 28 27 26 24 23 22 22 21 21 21 21 20 20 19 18 17 16 16 15 13 13 14 14 15 15 15 13 13 13 15
39 46 49 49 47 45 44 42 41 39 37 35 33 33 33 32 30 28 26 25 24 23 22 22 23 21 21 21 20 19 18 17 16 15 15 16 16 15 17 16 17 16 15 15 16
40 40 46 50 49 47 45 44 43 41 40 39 37 37 36 35 33 31 29 28 26 25 24 23 23 22 22 22 20 19 17 16 17 17 17 17 15 16 19 17 19 19 19 19 19
43 41 42 45 50 49 47 46 45 44 43 43 41 42 40 39 36 34 32 31 29 28 27 25 24 23 22 22 20 19 18 18 20 19 18 19 16 20 20 20 21 21 23 22 22
44 43 43 44 46 49 49 48 47 46 46 46 45 45 43 41 40 38 36 34 33 31 29 27 26 25 24 23 21 20 21 21 21 20 20 21 16 23 23 22 24 25 26 26 24
54 48 47 46 46 48 49 49 49 49 49 49 49 49 47 44 43 42 40 38 36 34 32 31 29 27 26 25 24 24 26 23 23 24 25 25 20 26 25 25 27 30 30 29 27
48 54 54 51 49 48 50 50 50 51 52 52 52 52 50 47 46 44 42 41 39 38 36 34 33 31 28 27 28 31 28 27 26 28 30 29 22 28 29 30 30 32 30 29 28
44 49 61 57 54 51 51 51 52 53 54 53 54 54 52 51 50 48 46 45 44 42 40 39 38 32 31 33 32 32 32 31 29 33 36 33 30 28 34 31 33 35 32 28 27
39 44 48 63 62 56 54 54 53 55 56 56 57 56 56 53 52 51 49 48 47 45 44 43 40 35 36 35 35 34 34 33 33 36 42 36 36 33 35 36 35 33 29 25 26
49 46 48 45 55 67 58 57 57 58 60 57 58 59 57 57 56 53 53 51 50 49 47 46 43 39 40 38 37 36 37 37 38 39 42 42 46 41 37 33 33 28 27 28 28
52 55 51 47 44 57 64 58 60 61 63 62 58 60 59 58 60 57 56 55 54 51 50 50 46 43 41 40 40 40 39 40 41 43 44 42 55 48 39 35 32 29 30 31 32
54 58 61 49 58 40 52 65 63 64 66 66 63 62 61 61 59 56 56 56 55 52 52 50 49 48 46 42 42 43 41 41 43 44 49 47 56 51 41 31 24 28 32 33 34
58 56 58 58 53 44 42 48 54 69 67 66 67 64 63 62 63 61 57 56 57 56 56 55 53 51 48 45 43 45 44 44 44 47 57 50 57 51 43 35 24 26 31 32 35
62 61 57 53 56 54 46 39 55 49 68 77 69 67 64 63 64 63 62 61 58 57 58 56 55 52 49 49 47 46 45 46 48 51 58 56 63 50 39 31 24 25 27 31 32
63 62 58 56 51 57 55 48 48 58 58 75 81 76 70 67 64 65 65 63 62 62 61 59 59 55 52 50 48 47 48 49 53 58 61 62 55 40 32 27 25 29 25 27 34
63 62 59 56 55 53 59 62 54 39 47 58 68 79 77 74 72 69 66 64 62 60 59 59 61 59 55 53 51 53 54 52 51 60 64 54 45 43 39 34 35 26 27 28 31
58 62 59 57 59 55 55 65 58 47 45 51 58 55 61 57 67 77 77 74 70 68 67 65 67 65 64 63 62 59 58 57 58 60 63 54 48 41 39 39 37 34 35 31 30
53 58 56 57 63 64 63 62 57 53 54 55 57 53 54 52 52 60 67 74 72 64 56 61 69 71 69 71 66 61 61 63 63 61 60 57 45 46 46 46 42 37 34 29 29
56 55 55 56 64 67 68 63 65 62 60 60 56 59 57 56 51 47 55 61 61 58 56 52 56 64 66 65 67 66 64 64 63 60 57 56 46 46 46 44 38 36 32 31 34
61 60 57 60 65 66 63 65 65 64 64 62 61 60 59 56 55 48 40 43 48 55 55 53 57 61 64 66 64 64 61 60 61 62 57 57 43 47 48 46 43 43 42 41 38
64 65 64 68 64 62 63 67 67 66 68 66 60 64 62 64 62 56 52 50 46 44 45 48 50 56 62 61 60 58 55 53 54 57 56 56 49 47 49 46 46 45 44 43 42
68 67 68 71 67 65 64 64 69 71 71 67 67 59 62 69 67 65 60 58 55 51 54 53 53 46 50 51 53 56 55 55 57 55 59 49 52 41 44 50 49 45 42 45 47
66 65 68 70 71 72 70 69 66 66 72 71 67 59 58 53 58 60 61 64 65 64 57 57 53 51 52 54 54 55 53 57 60 59 60 55 56 46 47 46 48 49 52 51 52
60 63 68 71 76 78 75 71 68 68 66 72 71 73 74 65 61 59 66 69 71 66 63 61 57 56 60 52 51 57 58 56 55 54 54 58 53 49 52 54 52 50 55 58 55

GFSSW_500_spd_060.txt.gz
Wind_Speed
45 44 42 39 37 35 33 31 29 27 25 24 22 22 23 21 21 23 22 22 20 20 20 21 21 21 20 17 16 14 11 10 9 7 5 6 6 7 8 8 8 7 7 7 7
45 46 45 42 40 37 35 32 31 29 27 26 25 24 23 23 24 24 24 23 22 20 21 21 21 20 20 19 17 15 14 13 11 10 9 9 9 7 8 10 10 10 9 9 9
42 45 47 45 43 40 37 35 33 32 31 30 27 26 26 26 25 25 26 26 23 23 22 22 21 21 21 20 19 17 17 16 14 13 12 12 11 10 10 10 12 12 11 11 12
38 42 44 47 45 43 40 38 36 34 34 32 31 30 29 28 27 28 27 26 25 24 23 24 23 22 22 21 20 20 19 17 16 14 13 12 12 13 14 14 13 13 13 12 13
35 40 45 45 46 46 44 42 39 37 36 35 34 32 32 30 30 29 29 28 27 25 25 24 23 23 23 22 22 21 20 18 17 16 14 13 14 14 16 14 13 12 14 14 15
35 37 42 45 47 47 47 45 43 41 39 38 37 36 34 33 33 32 31 29 28 27 27 25 25 24 24 24 22 21 20 19 20 17 15 14 13 14 16 15 15 16 15 17 18
39 36 39 44 46 48 48 49 47 45 43 42 41 39 37 36 36 36 34 31 30 30 29 27 26 26 25 25 23 22 21 20 21 19 16 16 12 17 16 15 15 17 17 19 20
38 42 40 39 42 47 49 49 50 49 47 46 44 42 41 40 40 39 37 35 34 33 31 29 28 28 26 26 24 23 22 23 22 19 18 19 12 19 18 17 17 18 21 23 25
39 38 45 41 40 42 46 49 51 51 51 50 48 46 44 43 44 43 41 39 37 36 33 32 31 29 28 27 25 23 26 24 22 22 24 24 17 24 22 19 18 21 24 25 27
40 41 41 48 43 42 43 45 48 52 52 51 50 49 47 46 46 46 44 42 41 39 37 36 35 33 30 27 28 30 28 25 26 26 29 29 23 26 27 24 22 23 28 30 31
40 44 41 43 47 51 46 44 46 50 51 52 51 51 50 49 50 50 49 47 45 44 42 40 39 36 31 35 34 31 31 30 29 31 34 34 31 28 32 27 24 28 31 30 30
42 34 36 43 45 46 55 50 49 50 51 52 53 52 52 51 52 53 52 50 49 47 46 46 44 38 39 39 37 35 34 34 33 35 40 38 38 32 32 31 28 30 31 33 32
51 45 44 43 40 43 45 57 54 53 54 51 53 54 54 54 54 55 55 54 53 52 50 50 48 44 43 42 40 38 37 37 39 39 41 43 45 38 33 33 31 30 32 35 35
55 53 49 46 53 40 43 42 57 60 59 56 54 55 55 56 58 57 57 57 56 54 54 54 50 47 44 42 43 42 41 42 42 43 42 44 55 42 38 34 34 33 35 37 38
57 55 51 49 51 48 45 42 50 50 67 65 57 57 57 58 57 55 57 57 57 55 54 53 51 49 48 45 45 45 44 44 45 45 46 51 53 48 43 38 35 35 33 37 38
56 56 54 53 55 52 52 55 43 40 40 67 68 61 58 58 60 60 57 58 59 57 57 57 56 53 50 48 47 47 47 47 46 47 51 55 54 50 45 44 37 39 36 40 44
54 57 58 56 55 53 53 54 47 51 45 50 63 67 64 59 60 61 60 60 59 57 60 59 57 56 53 52 50 48 47 47 49 51 52 56 60 54 46 48 46 40 31 31 37
53 55 58 59 58 56 55 44 56 48 49 55 54 59 67 70 59 61 62 61 61 62 61 60 61 58 56 53 52 49 47 49 53 54 54 57 63 60 49 45 47 34 28 31 35
57 55 56 57 59 56 54 61 69 60 39 57 54 53 56 63 72 68 60 61 60 61 60 60 61 60 56 54 51 53 54 52 52 55 60 65 61 60 53 48 46 40 32 27 31
45 51 55 57 60 60 58 58 61 61 60 51 54 58 56 56 60 64 68 67 63 60 59 59 62 62 60 59 58 58 57 55 57 58 61 67 67 62 60 54 42 42 39 41 32
45 46 46 51 60 64 67 64 64 62 64 61 58 53 60 56 53 58 64 69 69 68 64 64 66 69 67 67 65 63 63 64 63 63 64 68 67 62 61 57 55 50 46 39 33
50 48 47 49 55 61 66 60 61 61 62 67 62 59 56 53 51 52 56 59 56 56 53 61 67 75 73 73 71 70 70 71 71 70 67 66 61 58 60 59 51 48 40 32 33
52 51 53 55 56 56 55 58 60 64 64 60 56 57 56 57 59 57 57 49 49 46 49 47 55 63 70 74 79 79 72 67 67 67 71 71 62 61 60 57 54 52 50 47 42
58 57 56 59 58 57 56 56 58 60 66 66 63 46 48 63 60 60 57 55 50 46 43 42 47 49 59 62 63 65 63 60 58 60 71 65 54 52 54 55 55 54 55 55 50
62 61 62 63 60 60 61 62 60 58 62 67 69 67 65 66 64 69 64 57 56 53 52 54 57 51 45 52 55 59 61 63 65 65 65 56 58 44 51 55 59 54 52 49 43
65 62 63 62 64 65 65 63 64 59 59 61 69 66 62 66 63 60 64 66 62 58 60 63 61 53 57 50 53 58 59 63 66 66 66 68 66 50 51 52 52 52 51 50 51
63 63 62 66 64 68 66 64 64 65 66 61 63 67 70 62 54 64 62 63 59 68 65 68 67 64 64 57 59 63 59 61 61 60 60 63 59 53 56 58 53 52 54 57 59

GFSSW_500_spd_063.txt.gz
Wind_Speed
44 44 42 41 39 37 35 32 30 28 27 25 24 24 23 23 21 21 22 23 22 21 19 20 21 20 20 19 18 15 11 9 7 4 3 2 3 4 4 5 5 6 6 7 5
47 46 45 43 42 40 37 34 32 32 29 28 27 26 24 24 23 23 23 23 22 21 19 20 22 22 22 21 19 16 13 12 10 8 6 5 6 6 5 7 7 7 7 7 8
47 49 48 47 45 43 40 38 35 33 32 31 29 28 26 25 24 24 24 24 22 22 21 22 23 24 23 23 20 17 15 14 13 11 9 8 8 7 7 9 9 9 8 8 9
43 47 50 49 47 45 43 41 39 37 35 33 31 29 28 26 26 25 23 24 24 23 23 24 24 24 24 23 21 18 17 16 15 13 12 10 9 9 10 10 9 9 8 9 10
33 40 46 50 51 49 47 45 42 40 38 35 34 32 30 28 27 25 24 24 24 25 26 25 25 25 25 23 22 19 18 17 16 15 13 12 10 10 12 8 8 8 9 10 11
35 35 39 45 49 51 49 46 45 43 40 37 35 34 33 31 29 28 27 26 25 26 26 27 26 26 25 24 22 21 20 20 18 17 14 13 11 12 13 9 9 8 8 9 11
34 38 36 38 42 47 51 49 47 45 43 40 39 37 36 34 32 31 29 29 28 28 28 29 28 27 25 25 23 22 22 21 21 20 15 16 12 17 12 11 10 9 10 11 13
34 35 40 37 38 40 45 49 49 47 44 43 42 39 38 37 35 33 33 33 32 31 31 31 31 29 27 26 25 24 23 23 24 21 17 18 13 18 16 12 12 12 12 15 17
39 39 35 36 39 39 42 45 48 49 47 46 43 42 40 40 38 36 35 36 36 35 34 34 33 31 29 27 26 25 26 26 24 22 22 22 17 22 20 16 14 13 15 17 21
36 38 40 38 35 41 40 42 44 47 48 47 46 45 43 42 41 40 39 39 40 39 39 38 37 34 31 28 28 31 29 26 24 25 27 26 22 24 25 21 19 17 19 20 24
32 39 37 39 39 37 38 42 42 44 46 47 48 47 46 46 46 45 44 44 45 44 43 42 41 36 31 35 35 32 30 29 27 30 32 30 28 27 30 24 23 24 23 23 28
36 36 42 39 41 38 40 40 48 44 44 45 48 49 48 48 48 48 47 47 48 48 47 46 44 39 38 39 37 36 34 33 32 34 37 35 34 30 31 30 28 27 26 28 30
47 45 44 43 41 41 43 38 41 46 48 46 47 49 49 49 50 50 51 50 51 52 52 51 48 45 44 43 41 39 38 38 39 38 39 39 42 35 30 32 32 30 30 32 33
56 54 54 43 43 32 36 41 40 44 45 54 49 50 48 49 52 51 52 53 55 54 55 55 53 49 46 44 44 43 42 43 43 43 41 40 51 37 31 30 31 31 33 34 35
63 61 62 58 56 43 40 46 44 40 45 47 54 51 50 52 52 50 51 53 54 54 56 55 54 52 50 46 47 48 47 46 46 46 46 46 50 45 35 33 31 32 34 37 35
65 66 58 56 58 53 48 45 44 49 43 45 45 46 57 53 54 52 51 53 54 56 57 59 58 55 53 50 49 49 49 49 48 48 49 50 49 46 40 38 35 35 35 38 41
61 62 56 55 54 55 52 50 45 52 52 45 44 47 50 53 61 55 54 53 53 55 57 59 60 58 55 54 52 51 50 49 50 53 52 53 54 50 44 46 40 40 40 40 37
56 56 56 54 52 53 55 49 50 49 55 49 48 47 44 46 55 63 57 54 55 57 58 59 61 60 59 56 53 50 49 51 56 56 54 55 59 55 50 46 49 48 48 45 41
46 52 54 53 52 55 55 57 58 58 59 56 50 52 55 47 44 51 57 58 57 57 58 60 60 60 58 57 55 55 56 53 53 55 59 60 57 57 56 53 49 51 51 52 49
36 42 46 55 54 55 58 59 60 58 61 63 56 49 50 49 52 52 54 58 61 59 53 57 61 59 59 59 60 60 60 59 59 59 61 62 62 59 58 58 58 55 53 56 54
37 37 39 44 51 60 63 61 60 58 57 60 63 65 60 51 48 52 53 53 51 57 62 61 60 63 64 63 61 59 61 63 62 61 63 65 65 62 61 60 62 63 62 56 50
43 42 42 42 46 51 56 58 58 57 56 59 60 61 59 58 64 52 49 54 53 50 51 53 62 71 69 65 65 65 64 64 65 65 64 64 70 65 63 65 63 62 62 63 61
48 47 48 50 47 47 46 49 55 61 59 59 59 60 56 55 60 64 54 50 48 52 47 45 50 57 68 74 76 75 71 68 68 68 69 70 72 66 69 67 65 65 67 65 60
55 54 53 52 50 50 50 49 51 53 57 58 60 62 57 56 59 63 66 58 56 55 50 55 54 57 62 61 60 63 65 66 64 66 76 74 75 71 71 69 64 62 58 57 58
63 59 58 57 53 53 53 53 53 53 52 54 58 60 61 63 58 48 59 60 62 61 56 60 61 57 58 52 55 57 57 58 64 68 68 76 69 65 64 61 60 58 55 55 55
67 65 64 61 59 59 59 54 54 54 55 56 57 55 60 66 66 62 56 54 63 68 64 64 61 56 56 51 50 51 53 54 58 60 65 67 66 60 55 55 57 56 56 57 56
68 68 68 67 66 65 61 58 59 61 59 58 59 61 61 60 64 66 63 64 52 52 48 51 54 64 67 53 60 68 60 55 55 55 56 59 57 47 53 53 52 53 57 60 59

GFSSW_500_spd_066.txt.gz
Wind_Speed
46 45 44 42 40 38 36 35 32 30 28 27 26 23 23 22 22 23 24 23 22 22 23 21 21 20 20 18 18 17 15 13 11 8 5 2 0 2 2 3 4 4 4 3 4
49 49 48 46 44 42 39 36 34 32 31 29 27 25 24 24 22 23 23 23 23 23 23 22 22 22 21 20 20 18 18 17 14 10 7 4 3 4 5 5 5 5 4 4 5
49 51 51 50 48 46 43 40 36 34 33 31 30 29 27 26 24 24 24 24 24 24 24 23 22 23 22 22 22 20 21 19 16 12 8 7 6 6 6 7 7 6 5 5 5
47 50 50 50 49 47 45 43 40 38 36 33 31 31 29 27 26 26 25 24 25 25 26 24 23 23 23 23 22 23 23 21 19 14 11 10 8 8 9 8 6 5 5 5 6
41 46 50 52 51 49 47 45 43 41 38 36 34 33 31 30 29 27 27 26 27 27 28 26 24 24 23 22 24 24 24 23 20 17 14 13 12 10 13 7 7 6 6 6 6
38 41 45 49 51 51 50 48 46 43 41 38 36 35 34 33 33 30 29 28 26 27 28 27 25 25 24 24 25 25 25 24 22 19 16 15 14 13 15 9 10 8 6 6 7
38 35 37 45 50 53 53 52 50 47 44 41 40 38 36 37 36 33 31 29 28 26 26 27 27 27 25 26 26 26 26 25 23 21 18 18 15 19 15 12 11 10 9 9 10
43 39 39 37 42 47 51 53 52 51 49 46 43 40 37 38 38 36 34 31 29 28 27 27 28 28 28 28 28 28 28 26 24 23 20 20 16 20 18 14 12 10 11 12 13
37 38 36 38 40 42 45 47 51 51 51 50 47 45 41 40 38 38 36 33 32 31 30 30 31 30 30 28 29 30 29 28 27 25 24 23 20 23 21 16 14 13 14 15 17
39 37 36 36 36 41 40 42 46 48 49 50 50 49 46 42 40 38 38 37 34 34 35 34 34 33 32 30 30 33 33 31 27 27 28 27 23 26 24 20 17 17 19 18 20
36 38 39 42 40 39 37 43 41 45 48 48 48 49 47 45 42 41 40 40 39 38 38 38 38 36 32 36 38 38 35 31 28 31 32 30 27 27 28 21 21 22 22 21 23
37 36 37 37 44 41 39 39 41 43 41 44 49 49 48 48 46 45 43 42 41 41 41 42 42 38 38 40 40 39 37 33 32 34 37 34 31 29 30 25 24 26 25 27 27
40 42 38 33 34 40 39 41 41 41 44 43 44 46 47 49 48 48 46 46 45 45 44 44 45 43 43 44 43 41 40 37 37 39 40 37 39 33 28 29 30 27 28 29 30
48 47 48 38 37 37 42 42 42 39 39 38 42 45 44 47 50 50 50 50 49 48 48 49 49 48 47 45 46 45 42 43 43 44 44 40 48 36 30 32 30 29 31 31 31
57 55 56 52 43 44 47 43 43 40 39 36 37 42 48 48 48 47 49 50 50 49 49 49 49 50 50 47 48 49 48 48 48 47 47 45 51 42 35 33 32 32 32 34 36
60 60 60 53 55 49 49 44 43 43 41 35 33 35 43 42 51 48 47 50 50 51 51 53 53 52 52 52 52 53 52 51 51 51 52 49 49 50 42 34 35 34 33 35 36
61 61 62 59 58 57 51 47 53 55 46 43 38 43 39 43 43 51 48 48 50 51 52 52 54 53 53 53 53 54 53 52 53 55 55 54 55 54 48 42 39 36 35 38 39
60 59 58 60 60 57 52 54 56 64 60 57 51 50 49 43 43 45 47 55 53 52 54 55 56 55 54 53 52 50 51 52 56 57 58 59 59 55 50 49 45 43 42 40 43
53 55 54 58 58 55 52 55 59 64 63 60 57 55 55 53 51 46 47 49 53 59 57 57 57 56 54 52 52 56 58 55 56 58 62 64 59 57 54 52 51 48 50 47 45
43 46 47 51 55 56 55 59 65 63 67 63 60 58 56 53 53 53 50 45 46 53 57 56 58 56 56 58 58 58 57 58 59 62 65 66 64 59 55 56 56 54 54 53 52
36 38 40 45 50 57 62 63 60 58 58 58 57 58 61 56 53 51 54 51 46 42 47 52 59 62 62 61 60 58 58 60 61 62 64 66 68 61 59 61 61 60 57 57 55
37 38 38 40 43 47 51 54 55 55 56 57 56 60 60 60 60 58 52 53 47 44 47 49 52 57 62 63 61 61 61 61 63 65 65 64 69 62 61 62 65 63 61 59 60
45 44 43 42 42 41 40 42 48 55 57 58 60 62 61 61 63 64 61 58 55 54 49 48 51 50 53 59 64 69 68 65 62 64 67 67 67 60 64 65 63 63 62 64 62
52 52 50 48 45 43 43 44 44 46 50 55 59 60 61 62 62 64 65 63 58 56 59 58 50 55 58 53 56 58 61 62 65 67 72 73 70 62 66 65 65 64 64 66 65
61 57 56 54 49 48 49 47 46 46 46 48 52 57 59 64 62 62 60 63 61 58 59 60 61 61 56 53 59 61 60 60 61 63 67 64 64 65 64 68 69 65 64 63 59
67 63 62 59 58 56 56 50 49 49 50 51 50 51 55 58 60 62 62 53 52 57 62 65 66 63 66 63 62 64 63 62 64 65 67 67 65 52 50 54 59 58 59 60 59
71 70 68 66 64 64 60 54 54 55 54 52 52 55 57 54 59 58 62 65 64 59 51 53 53 61 66 64 65 70 65 61 61 62 60 60 56 45 49 51 50 54 54 56 58

GFSSW_500_spd_069.txt.gz
Wind_Speed
46 45 45 43 42 40 37 34 33 31 29 27 26 25 25 25 26 25 24 24 24 25 24 23 23 22 21 21 19 17 16 14 13 12 9 6 3 2 2 1 2 1 0 1 3
49 49 48 47 45 44 43 39 36 34 31 28 28 26 26 27 27 26 26 26 25 25 24 23 24 24 23 24 22 20 19 18 17 15 12 9 6 4 4 4 3 3 3 3 3
49 50 50 49 49 47 45 43 41 38 35 31 30 29 28 27 27 26 26 26 26 26 24 24 24 24 25 25 24 23 22 20 20 18 16 13 10 6 7 6 5 5 5 4 4
48 51 51 51 50 49 47 45 43 41 37 35 33 32 31 30 29 28 27 27 27 26 25 25 24 24 25 25 25 25 25 24 22 21 19 16 14 10 10 7 8 7 6 4 4
44 50 53 53 51 50 49 48 46 44 40 38 36 34 34 32 31 30 28 28 27 26 26 26 26 26 25 25 26 26 26 25 24 23 22 19 17 13 14 9 10 9 8 6 7
41 48 51 53 53 51 50 50 49 46 43 41 38 37 35 34 33 32 30 30 29 28 28 28 28 28 27 25 27 24 26 26 26 25 24 22 20 16 18 10 12 11 10 9 8
38 44 49 52 53 53 52 51 51 49 47 44 41 39 37 35 36 34 33 31 31 29 28 30 30 30 27 27 26 26 27 27 27 27 26 25 21 19 19 15 13 13 12 12 11
43 41 44 49 52 53 54 54 52 51 50 48 44 42 39 38 37 36 36 34 33 31 31 30 31 31 30 29 28 28 28 28 27 28 27 28 22 24 21 18 16 13 12 13 14
45 42 39 40 45 49 51 53 54 53 52 49 47 45 43 40 37 36 37 37 36 34 33 32 32 31 30 31 29 29 29 30 29 30 30 30 25 25 24 20 17 15 14 14 16
39 42 41 41 39 39 44 48 52 53 52 52 51 49 46 43 41 38 38 38 37 37 35 34 34 33 32 32 28 31 32 32 31 31 32 32 27 29 27 23 19 18 18 18 18
40 38 38 38 41 36 41 40 44 49 52 53 52 51 47 46 45 42 41 39 39 40 38 37 35 35 32 33 35 34 34 34 32 33 35 34 32 30 30 24 21 22 21 20 21
41 42 42 42 42 40 40 41 42 42 43 49 52 53 51 50 47 46 45 43 42 41 41 39 38 36 37 36 37 37 37 35 33 34 39 37 35 31 31 26 26 24 23 24 25
38 40 38 44 45 41 41 40 40 41 43 43 46 49 49 51 52 50 48 48 45 44 42 43 42 40 39 41 41 40 39 37 36 38 41 41 37 32 33 28 28 26 26 27 28
36 36 37 39 39 43 42 45 47 41 44 42 43 45 46 48 51 50 51 50 49 48 46 47 47 43 42 43 44 43 42 41 41 43 45 44 45 36 34 33 31 28 30 31 31
47 43 40 41 35 45 41 43 44 38 43 46 46 43 44 45 46 47 48 50 50 49 49 49 47 46 45 44 46 48 47 46 46 46 48 47 50 42 35 36 33 32 33 34 34
53 51 48 47 47 48 44 41 42 45 47 41 42 43 43 44 45 46 45 47 49 50 50 51 52 51 49 48 48 50 51 50 50 50 52 49 51 50 43 37 36 36 37 37 38
54 55 54 54 55 53 48 48 41 47 43 42 43 43 41 41 41 41 43 48 48 49 50 51 53 53 51 51 50 51 53 52 53 56 54 56 56 53 53 46 43 40 41 41 40
53 55 56 58 58 54 41 50 50 49 50 47 44 43 45 38 36 36 39 43 44 52 50 53 55 54 52 51 49 47 49 51 55 56 59 62 59 51 57 53 49 47 46 45 44
50 53 56 56 56 56 51 49 50 58 57 54 53 48 48 46 42 42 42 42 45 46 51 54 53 53 53 51 52 54 55 51 54 56 61 64 60 58 57 56 57 51 49 49 49
48 51 53 54 55 56 59 63 63 65 65 63 59 57 58 57 56 51 50 49 48 45 44 51 59 61 58 56 57 56 55 56 59 61 64 65 63 60 57 60 58 60 56 56 55
44 48 49 51 53 57 62 65 66 66 67 64 64 66 63 62 59 57 55 54 54 53 50 48 51 58 60 62 63 60 59 60 61 62 63 64 66 59 59 61 62 61 60 62 59
41 44 45 49 52 57 60 62 64 63 59 63 63 62 61 61 59 58 58 60 58 53 51 51 53 52 54 58 61 64 61 59 63 63 66 65 67 57 58 59 61 63 62 62 62
42 41 42 46 50 51 49 52 58 60 60 61 61 60 60 59 58 60 60 61 59 55 52 52 54 55 54 55 56 57 58 59 63 62 66 68 65 51 56 60 60 60 58 60 61
48 47 46 45 44 44 44 46 49 53 57 59 62 63 61 62 64 66 65 65 62 59 58 59 57 59 60 55 59 59 57 58 58 62 63 68 64 57 59 60 60 58 61 62 64
58 54 52 50 46 44 45 44 43 44 45 48 55 62 63 65 66 66 65 65 66 65 65 67 66 62 63 63 60 63 62 60 58 59 65 61 60 53 52 54 55 59 62 62 67
65 61 59 56 53 53 53 48 46 45 46 45 46 48 52 58 60 63 67 69 70 68 66 65 67 69 73 69 68 68 67 66 63 62 64 62 63 54 52 53 57 57 61 64 64
69 68 67 64 62 63 56 50 51 52 50 48 48 50 51 50 54 55 59 64 67 69 66 64 60 58 68 68 71 75 71 68 70 66 63 65 60 57 57 58 59 59 63 63 64

GFSSW_500_spd_072.txt.gz
Wind_Speed
44 43 41 41 41 46 35 35 32 31 30 29 27 25 24 23 24 25 26 28 27 27 25 24 22 20 19 17 16 14 13 11 11 10 8 6 5 4 5 2 1 1 1 1 2
46 46 45 43 43 41 39 36 33 32 31 29 27 25 24 23 25 24 25 26 27 26 26 26 25 23 22 21 20 18 16 17 14 12 10 10 9 6 6 5 3 2 4 2 3
45 48 47 45 41 46 43 45 41 38 31 30 27 27 25 26 26 26 26 26 26 27 26 25 24 24 23 23 22 22 20 22 17 16 15 13 12 9 8 8 5 5 6 4 3
45 47 49 48 45 46 46 44 40 39 37 34 31 29 28 27 27 27 27 27 28 27 26 26 26 25 25 24 24 24 26 24 21 21 19 16 16 12 11 8 8 8 6 6 4
46 47 49 50 49 47 45 44 43 42 39 38 35 31 29 29 28 27 27 27 28 28 28 27 27 26 25 26 24 27 26 27 24 25 22 20 19 15 15 12 9 10 8 8 7
48 47 49 50 51 49 47 46 45 43 42 40 38 35 33 31 31 30 29 29 28 28 29 29 28 26 27 23 27 23 25 30 27 27 25 23 21 17 20 15 11 11 11 9 9
45 46 49 49 50 50 49 48 48 46 45 43 41 38 35 33 33 32 30 32 32 31 30 30 29 29 26 26 26 24 27 29 28 28 26 27 23 20 23 18 16 13 12 12 12
41 52 44 47 49 52 51 51 50 49 48 47 45 41 38 36 35 33 33 33 33 32 32 32 30 29 29 28 28 28 28 29 29 28 29 30 22 24 24 21 20 16 13 14 14
39 44 55 46 48 51 53 53 54 52 50 49 48 45 43 40 37 36 33 33 34 34 33 32 32 30 30 30 31 29 28 30 32 30 30 31 26 26 25 24 21 19 17 15 15
43 37 44 47 45 49 51 53 55 54 53 52 50 49 47 43 41 39 36 34 35 35 36 34 33 32 31 32 29 29 32 32 31 31 31 32 27 28 27 26 23 21 20 19 17
46 41 45 45 45 45 46 48 52 54 54 52 52 51 49 46 45 42 39 37 38 36 37 37 36 34 32 32 32 34 32 32 32 31 31 32 30 29 28 26 25 24 24 21 20
45 43 41 50 46 42 43 42 46 48 53 52 54 54 52 50 48 46 43 42 41 38 38 39 38 36 36 36 35 35 35 34 32 33 32 33 34 29 28 27 28 27 24 24 23
45 46 43 42 51 46 49 46 45 44 48 50 52 53 53 52 50 49 47 46 44 42 41 40 40 40 39 37 38 38 38 36 35 38 34 36 39 29 31 29 28 25 26 27 27
44 50 50 45 45 45 41 42 42 41 45 46 48 50 51 51 52 50 51 50 48 45 46 44 43 42 42 40 40 40 40 40 39 39 40 40 43 31 32 28 27 27 28 30 30
36 46 43 45 47 40 44 43 42 40 46 44 46 48 46 47 48 47 50 50 49 48 49 46 44 45 43 42 43 43 42 44 42 43 44 42 45 34 31 32 30 30 31 33 33
40 41 42 36 44 38 38 45 44 44 49 49 43 44 43 43 46 44 45 47 48 48 49 49 49 47 47 45 45 46 45 46 47 47 47 46 45 44 36 36 35 33 34 36 37
45 45 47 44 36 34 35 40 47 48 43 43 48 46 46 46 47 42 42 44 45 46 47 48 49 49 48 48 48 49 49 49 49 51 49 52 50 46 48 43 38 38 37 39 40
48 51 51 50 42 40 41 44 41 47 44 45 43 41 39 37 42 44 44 46 47 46 49 48 50 51 50 48 46 47 48 50 53 54 53 55 51 46 51 51 48 45 46 45 46
52 52 51 53 52 53 48 42 46 52 47 44 41 43 42 40 40 45 44 43 45 46 46 47 47 49 49 48 50 52 53 49 52 54 59 59 53 52 51 53 56 54 52 51 50
51 54 51 51 52 55 58 60 59 57 52 51 49 44 44 45 42 42 46 43 39 39 43 42 44 46 48 51 53 53 53 53 55 57 60 61 58 53 53 55 56 57 57 56 56
49 51 51 54 56 57 59 61 60 56 55 51 54 53 53 53 49 48 48 48 45 43 42 44 47 45 45 46 50 54 53 55 56 57 60 60 60 55 55 57 58 58 58 57 57
47 50 49 53 56 58 58 58 57 58 60 57 57 58 56 55 54 53 54 56 54 52 51 50 52 52 51 51 50 51 51 55 61 60 64 63 62 52 54 55 58 59 60 58 56
44 46 46 48 53 55 55 56 57 59 66 66 63 63 59 60 60 59 61 62 63 60 56 55 57 56 56 56 58 57 53 51 52 55 61 65 58 50 55 57 56 56 56 57 59
43 42 43 45 48 50 50 53 55 58 63 68 71 70 67 66 66 66 61 62 55 57 53 55 56 59 59 57 60 61 59 54 53 56 58 57 54 47 51 54 56 60 64 64 63
49 46 44 44 43 44 46 49 49 52 54 59 65 66 66 65 63 64 63 62 58 60 59 61 62 60 61 60 56 56 61 60 60 60 59 59 58 49 46 52 55 54 55 59 64
55 51 50 48 46 47 46 43 41 43 48 48 51 53 57 60 61 63 63 62 64 66 66 63 62 62 63 62 62 62 63 66 63 61 60 63 66 58 57 54 58 58 58 59 59
60 60 59 56 54 54 48 43 45 45 44 43 43 46 48 47 50 56 58 62 65 65 66 67 67 67 70 70 72 74 70 67 67 67 68 70 71 66 65 61 61 62 65 67 67

GFSSW_500_spd_075.txt.gz
Wind_Speed
38 41 44 36 44 35 30 30 33 26 29 24 27 27 27 30 32 33 34 32 31 29 28 25 23 20 18 17 15 12 10 10 8 7 5 4 2 2 2 2 2 2 3 3 3
41 41 42 42 41 40 38 37 35 31 29 28 28 26 27 28 30 32 33 32 31 29 28 27 25 23 20 19 16 14 13 13 8 8 10 8 6 5 3 5 3 3 1 5 3
40 39 42 43 43 44 43 39 36 39 37 34 30 28 28 28 29 31 31 30 31 29 28 28 27 25 23 21 20 16 18 15 12 12 11 11 8 8 7 5 6 5 4 4 3
41 43 42 44 44 44 47 44 42 37 34 33 32 32 31 30 29 28 28 29 29 29 28 29 28 26 25 24 23 20 24 19 17 17 14 14 14 11 11 8 8 6 7 4 4
38 43 43 46 46 46 45 50 44 40 38 36 35 33 31 30 29 28 28 28 28 28 28 29 28 28 27 27 24 24 25 23 22 22 19 18 18 13 15 13 9 9 8 7 6
33 43 49 46 47 48 48 49 51 43 42 41 38 36 33 30 28 27 28 28 28 28 28 28 28 27 28 26 24 24 25 27 27 25 23 21 21 15 22 16 9 12 7 8 9
35 41 51 47 48 49 49 53 52 52 48 45 42 39 35 32 30 28 28 28 28 28 27 28 29 28 28 27 26 25 26 27 26 27 25 26 23 20 24 19 15 13 11 9 12
34 32 41 50 47 48 50 52 54 50 48 46 43 39 38 35 32 30 29 28 29 29 29 30 30 29 28 28 28 29 27 27 27 29 28 29 23 25 26 22 20 16 14 12 11
39 36 34 52 49 49 50 51 52 51 50 48 46 44 43 39 36 34 31 31 30 30 31 31 31 30 28 30 30 29 27 29 30 30 28 30 26 28 27 25 22 19 16 16 14
40 38 37 37 53 48 51 51 52 52 51 49 48 47 45 42 40 37 33 32 31 31 33 33 33 31 31 30 28 30 31 31 31 30 30 30 27 29 28 27 25 21 19 19 18
45 40 36 35 49 44 47 50 52 53 52 50 48 47 46 45 42 39 36 35 33 33 33 34 34 32 31 31 32 32 32 30 32 29 30 29 29 29 30 28 26 23 22 21 20
49 43 41 36 39 48 50 44 50 50 51 52 51 49 49 48 45 44 41 39 37 36 35 35 35 34 35 34 32 33 32 32 33 32 31 31 29 29 29 28 26 25 24 23 24
54 46 42 40 38 39 43 56 46 50 51 52 52 52 51 50 48 47 44 43 42 40 39 37 36 35 36 36 35 34 34 35 34 35 33 31 31 28 27 27 26 26 26 26 28
41 49 50 45 42 42 45 47 44 45 50 52 50 52 52 53 52 50 49 48 46 43 43 41 39 38 37 35 36 36 37 36 37 36 37 35 36 29 28 29 27 27 28 29 30
44 48 51 52 43 47 49 47 45 43 47 46 50 50 51 54 51 51 51 50 48 47 46 43 42 41 39 38 39 38 39 40 39 39 39 38 40 28 28 30 28 29 30 28 31
42 39 49 48 51 47 43 50 52 51 57 50 47 47 46 48 50 49 51 52 50 49 50 48 46 45 44 43 42 41 41 43 43 42 42 41 40 42 30 31 31 31 32 33 35
43 41 40 40 37 46 47 47 48 49 46 46 46 47 44 44 46 46 46 48 48 49 51 50 49 47 47 47 46 45 45 45 45 46 44 45 43 44 44 36 36 35 35 37 39
46 47 46 43 36 37 42 41 42 45 50 46 45 43 42 45 46 46 44 44 48 48 47 47 49 48 47 48 46 45 46 48 49 50 49 49 48 44 47 45 41 41 44 44 42
50 49 57 52 47 49 44 40 41 46 48 44 47 44 45 44 49 48 47 46 44 43 44 45 45 45 46 46 47 48 51 47 49 52 54 55 50 50 48 50 50 48 47 46 48
54 51 53 52 51 51 54 47 37 37 39 44 45 45 44 41 41 45 43 46 48 48 48 50 51 50 48 47 47 48 46 48 50 53 55 56 55 50 51 49 51 50 53 53 51
53 53 51 52 50 53 55 53 47 41 45 47 46 44 44 41 43 46 45 42 40 44 45 43 46 48 47 47 43 43 44 47 49 50 52 52 52 51 51 52 53 55 55 56 56
51 52 53 55 54 52 52 53 50 50 49 51 49 48 47 43 47 43 43 43 40 40 43 42 40 41 40 41 40 42 43 44 45 46 49 52 54 50 48 50 51 53 54 55 56
46 50 50 53 55 54 53 51 56 59 60 55 55 55 54 48 49 55 56 50 47 47 49 47 47 46 46 46 47 46 48 48 49 51 49 52 38 37 46 47 49 51 56 57 58
45 47 47 50 52 53 54 55 55 57 62 66 65 62 56 54 52 54 58 55 54 52 51 53 53 55 54 55 55 54 53 54 54 56 56 56 51 43 49 50 49 51 53 57 59
42 44 43 46 47 47 49 51 53 55 57 60 63 63 61 58 57 55 56 55 52 54 55 55 59 62 61 60 61 60 59 58 58 58 62 59 60 46 51 53 55 55 54 55 56
46 44 43 43 44 45 47 48 46 47 50 54 58 60 68 70 64 63 63 64 62 61 61 62 59 55 55 55 55 58 59 59 58 60 61 64 66 60 60 61 62 63 63 62 60
53 50 49 47 44 43 42 41 40 41 44 46 49 55 59 65 68 71 68 70 70 67 65 61 59 61 63 62 62 61 63 61 62 60 59 58 54 58 64 65 67 68 68 69 70

GFSSW_500_spd_078.txt.gz
Wind_Speed
38 39 42 44 41 37 35 37 34 33 32 30 29 31 34 35 35 35 36 36 34 33 31 29 27 25 23 21 18 16 13 9 7 6 5 5 6 4 3 1 2 2 3 4 4
40 40 42 44 44 42 40 39 39 37 31 31 31 31 32 34 35 36 36 37 36 34 32 30 28 26 24 22 18 15 13 10 7 7 6 5 5 4 2 2 3 1 4 2 2
41 42 42 43 44 45 39 43 39 35 33 31 32 33 33 33 36 34 36 38 37 36 34 32 29 28 25 22 19 18 16 12 11 11 10 9 9 7 4 3 5 5 4 4 1
44 43 44 44 46 44 48 45 38 37 33 37 32 30 30 32 33 34 35 36 37 36 35 33 31 29 27 24 22 20 19 16 16 15 14 13 13 10 9 6 6 7 8 5 4
46 44 44 45 46 45 46 50 36 41 38 37 38 32 32 32 33 33 34 35 36 35 34 33 33 31 29 26 24 23 23 20 19 19 18 17 16 13 15 11 8 8 9 7 6
48 45 46 46 47 48 48 46 45 43 42 39 36 36 33 32 33 34 34 35 34 32 33 32 32 31 31 29 27 27 25 24 24 23 22 21 19 17 22 13 11 12 10 11 10
44 45 45 46 45 49 52 53 51 44 47 42 40 40 36 34 33 33 33 34 33 32 32 33 33 31 31 31 29 29 28 27 26 26 26 25 23 22 23 19 17 14 12 11 13
44 42 47 47 46 48 51 51 55 52 49 47 40 40 38 37 36 34 33 33 33 32 33 32 32 32 32 31 31 30 29 28 27 28 27 26 24 25 26 23 21 17 15 14 14
44 39 39 43 49 49 49 50 52 55 53 51 46 42 40 39 38 36 34 34 32 32 32 32 31 31 32 30 30 30 29 29 30 29 28 27 25 29 28 26 24 21 18 17 18
41 38 41 36 49 54 50 52 53 54 55 55 52 49 44 42 40 39 36 35 33 32 32 32 32 31 31 30 27 29 32 31 30 29 28 28 26 29 28 27 26 24 21 21 20
46 46 37 39 38 53 54 50 53 55 58 57 55 48 48 47 44 42 39 35 34 33 32 32 32 30 29 31 35 34 32 31 31 31 31 30 28 29 31 28 28 26 26 25 22
49 46 43 42 42 37 58 52 51 54 57 62 58 55 53 49 47 44 42 40 36 33 32 32 32 32 33 33 34 33 32 31 32 33 31 31 29 29 31 28 27 28 28 28 27
49 48 45 43 41 37 37 53 50 52 57 59 59 56 55 53 51 47 45 43 41 39 37 35 34 34 33 34 34 34 33 32 33 33 32 31 28 29 30 28 29 28 28 30 30
55 50 50 46 41 38 34 44 47 47 54 58 58 58 57 55 53 50 48 48 45 42 41 39 38 35 34 34 34 34 34 35 35 35 34 32 31 26 28 29 29 29 30 31 31
44 53 56 53 45 42 40 40 48 55 52 51 56 57 56 57 53 52 51 50 47 45 44 42 40 38 36 36 37 35 36 37 36 37 36 34 37 28 27 30 29 31 31 30 32
43 45 42 50 53 46 44 43 44 46 52 57 53 54 56 57 56 53 52 51 49 49 48 47 45 44 42 42 41 40 38 38 38 38 38 36 37 38 31 31 32 32 34 34 34
50 48 47 46 49 50 48 46 51 49 44 47 50 53 49 51 53 52 52 52 53 52 52 51 50 48 47 45 45 45 44 43 43 42 40 41 40 42 39 35 36 35 36 37 37
52 50 42 43 50 50 44 51 56 51 48 46 48 48 45 44 47 49 49 51 52 53 53 52 52 50 49 49 47 46 46 45 47 47 45 46 44 42 45 42 39 40 41 42 43
47 48 46 42 42 35 41 50 53 58 53 49 51 49 51 50 51 47 47 48 48 48 49 50 52 52 52 52 52 52 52 47 49 51 52 50 48 46 47 48 47 45 47 48 48
54 53 49 46 50 46 45 45 42 45 46 49 48 50 45 46 45 46 46 46 45 46 48 49 51 51 49 49 51 52 49 49 50 52 54 54 52 50 47 49 50 50 49 49 51
60 60 55 51 53 54 58 48 51 44 38 44 48 47 50 50 49 48 48 48 48 47 48 48 48 49 48 50 49 49 49 48 48 49 51 52 50 49 48 50 53 53 53 51 51
60 62 57 56 57 56 62 58 57 50 51 41 38 48 48 48 47 49 48 48 47 50 49 49 52 55 53 51 52 52 52 53 53 51 49 49 49 49 48 51 53 53 51 52 52
55 59 56 58 59 59 59 60 58 57 51 42 44 47 49 51 52 51 46 43 44 48 47 45 48 50 52 52 53 53 52 52 50 48 46 45 44 40 41 43 42 43 46 49 51
49 52 55 58 59 57 58 56 64 62 61 55 47 49 52 51 51 50 45 43 43 44 47 46 44 43 46 47 48 48 45 46 47 49 46 44 40 41 45 46 44 48 52 52 53
50 51 51 53 56 56 57 57 57 59 55 58 54 49 51 43 45 52 54 54 51 53 53 52 51 50 52 53 53 52 51 51 51 53 54 52 50 46 48 53 55 56 57 57 58
48 50 50 51 51 53 55 57 53 55 56 56 59 60 54 53 53 47 48 48 52 54 56 58 57 59 60 59 56 55 55 58 61 63 65 64 65 58 58 61 62 64 66 67 66
48 49 49 51 49 50 48 49 50 49 52 57 59 64 70 67 63 59 55 54 56 57 56 57 58 55 53 58 60 62 60 61 60 62 60 64 63 65 66 67 66 65 64 66 68

GFSSW_500_spd_081.txt.gz
Wind_Speed
39 38 39 45 42 41 37 36 36 32 39 33 33 38 41 40 39 39 38 38 37 36 34 32 29 28 26 24 21 19 16 12 11 10 8 6 4 4 5 5 3 5 4 5 4
40 40 41 44 47 43 42 39 38 32 39 34 35 37 39 41 40 40 39 38 37 35 34 33 31 29 27 24 22 19 16 13 11 9 8 6 4 4 3 3 2 1 2 3 3
43 42 43 48 46 44 42 43 39 37 39 37 33 34 35 37 41 40 39 38 37 36 35 33 32 30 27 25 22 19 18 15 13 12 10 9 7 6 5 3 3 3 1 2 1
43 43 44 48 47 45 43 41 39 44 36 40 34 35 36 39 40 41 40 39 39 38 36 34 32 30 28 26 22 21 18 16 15 14 11 10 10 9 9 7 5 5 4 3 2
43 45 46 47 49 48 47 45 44 40 41 39 35 35 36 36 36 39 40 41 39 38 37 36 34 32 31 28 25 23 20 18 17 16 16 14 13 12 13 10 8 7 8 5 5
46 46 47 49 48 49 48 44 41 44 45 40 39 35 34 32 36 36 36 39 40 40 39 38 36 35 34 32 29 26 25 23 21 21 19 18 17 15 19 12 13 11 9 9 7
51 48 47 49 49 50 50 49 45 45 41 41 39 36 36 36 36 36 37 38 39 38 39 39 37 37 35 34 31 30 28 26 25 24 22 22 20 21 20 18 18 15 13 11 12
56 50 49 48 48 50 52 49 52 48 45 44 37 38 37 36 36 36 36 36 37 38 40 40 38 38 37 35 33 32 30 28 26 28 26 25 22 24 25 23 20 19 18 15 15
52 52 54 51 50 49 53 52 58 53 47 45 40 40 38 37 36 36 35 36 37 38 39 40 39 38 36 36 33 33 29 30 30 30 28 26 23 26 26 25 23 23 21 19 19
49 51 54 54 52 51 51 53 55 52 51 49 45 41 42 37 38 38 36 35 36 37 39 39 39 37 37 36 32 30 31 33 30 30 29 27 24 26 26 25 25 25 25 24 22
53 53 55 55 53 57 50 53 53 58 55 52 50 50 45 43 42 39 38 37 37 37 37 37 38 35 32 33 34 36 34 32 32 31 32 30 27 26 27 25 27 27 26 26 26
52 57 58 55 59 63 56 52 50 53 55 58 56 53 53 46 43 41 41 39 38 36 35 36 36 35 36 35 36 34 34 32 32 32 33 32 27 27 29 27 27 27 29 30 29
51 51 50 50 47 45 60 59 54 52 56 58 57 56 60 51 48 44 44 43 41 39 37 36 35 35 34 35 34 33 32 32 32 33 33 32 29 27 30 28 29 28 30 32 32
53 45 57 47 44 47 42 51 62 55 56 59 59 58 57 55 58 49 47 47 45 42 40 39 38 36 35 33 34 34 33 33 33 35 35 32 31 25 27 28 30 31 30 31 32
54 49 46 48 46 44 46 46 49 62 61 59 60 59 59 60 56 57 52 50 48 46 45 42 40 38 36 33 34 35 35 35 35 36 35 32 35 30 28 29 30 31 32 32 33
48 50 45 43 45 46 46 50 48 50 70 62 63 62 61 63 61 58 57 54 52 50 49 48 45 42 39 38 38 38 37 37 36 36 36 34 35 35 33 31 30 32 33 34 34
46 50 52 51 45 47 48 48 48 47 44 60 61 60 60 61 62 60 60 57 56 54 52 50 49 47 44 43 43 42 41 40 39 39 38 38 37 37 38 35 35 35 36 37 38
45 48 48 49 56 53 47 46 51 45 40 40 56 56 56 58 60 59 58 59 58 56 56 54 53 50 49 47 46 45 44 44 45 44 43 43 41 41 42 41 39 40 41 41 41
41 46 46 50 48 50 50 55 55 50 47 44 42 49 60 60 57 57 59 58 57 56 55 55 55 53 52 51 50 50 50 47 49 49 49 47 46 46 46 47 47 45 44 45 45
52 55 55 53 47 47 47 51 52 55 52 49 49 47 45 46 49 55 53 55 55 56 55 57 55 54 53 52 53 54 52 51 53 54 54 53 52 52 50 52 53 54 51 50 50
59 60 56 56 50 48 48 48 48 50 51 54 51 52 49 47 46 49 47 49 49 51 53 54 54 55 55 56 55 55 56 56 56 56 57 57 56 55 56 55 55 55 55 54 51
63 59 61 54 57 56 52 47 47 48 54 51 52 49 53 50 50 52 51 50 50 50 50 50 52 53 53 52 52 53 54 54 55 55 55 55 56 56 56 57 56 53 53 52 50
66 67 61 56 60 63 54 46 47 43 53 51 49 52 56 45 52 51 51 50 51 50 50 51 54 54 55 56 54 55 54 53 53 53 54 54 52 53 52 53 53 54 54 52 51
55 58 62 63 68 64 62 54 53 47 47 45 50 42 38 39 49 49 51 53 53 51 50 52 54 55 56 54 54 55 55 55 54 56 56 56 54 56 57 54 53 50 48 49 50
50 56 55 63 68 68 67 64 59 62 55 56 56 51 35 44 42 46 49 51 54 52 54 52 49 50 50 50 52 49 50 51 53 53 54 52 52 52 53 52 49 50 52 52 53
52 52 53 59 63 65 66 66 61 62 61 57 58 56 44 43 50 50 53 53 54 55 56 52 45 46 49 53 51 50 48 49 49 50 51 51 47 46 50 52 55 57 58 60 62
50 53 54 54 55 58 59 61 58 59 58 58 57 57 62 50 50 49 52 55 56 54 55 52 53 54 54 54 56 56 53 53 53 54 55 55 49 54 58 60 64 66 66 67 68

GFSSW_500_spd_084.txt.gz
Wind_Speed
40 38 38 38 41 38 34 39 35 36 37 38 39 40 41 41 44 44 42 40 39 38 36 35 33 31 29 27 24 22 20 18 15 13 10 10 9 9 8 10 10 9 7 6 5
41 40 40 40 44 44 39 43 35 39 37 43 41 39 40 42 43 44 42 40 39 38 36 35 33 31 30 28 25 22 19 17 16 14 10 8 7 7 6 5 7 7 6 5 3
44 42 41 42 48 48 44 44 36 37 37 43 40 42 41 42 44 44 42 41 40 38 37 35 34 32 30 28 24 22 20 17 16 14 13 10 7 5 5 4 5 5 5 4 2
48 43 43 43 52 47 50 50 42 37 38 38 37 39 41 43 43 44 44 42 41 40 37 36 34 32 31 28 25 23 20 18 16 13 13 11 10 8 7 5 3 3 4 4 4
49 45 45 46 48 51 51 45 47 41 40 42 36 39 43 42 45 44 44 43 43 41 38 38 35 34 32 29 27 25 23 20 17 15 13 12 10 11 10 8 7 5 5 5 5
51 47 47 47 47 49 55 49 54 40 41 45 35 38 42 43 43 43 45 44 43 41 39 39 38 36 34 32 30 27 25 23 20 18 16 14 12 12 11 11 12 11 8 7 7
52 50 48 49 49 47 55 44 47 46 40 47 40 37 40 41 41 42 40 41 43 41 40 40 38 36 34 34 33 30 28 25 22 22 19 18 16 17 15 15 16 13 13 12 10
51 49 49 49 48 46 50 48 44 40 41 44 42 40 38 39 38 39 37 39 39 40 41 42 40 38 37 35 34 32 30 27 24 24 21 20 19 20 20 19 18 17 15 15 14
55 56 52 51 49 49 50 48 50 45 48 43 43 41 38 39 39 39 38 39 38 38 41 41 41 40 39 37 36 35 30 29 29 28 25 24 22 23 23 21 20 21 19 19 20
60 63 57 51 49 49 49 53 54 52 50 44 49 45 42 38 38 39 40 38 38 39 40 41 40 39 40 38 34 34 32 32 31 30 28 26 25 25 25 22 21 22 23 23 24
61 64 64 55 51 50 51 53 53 54 47 50 42 52 42 40 37 37 37 39 41 42 39 38 39 38 35 35 36 38 37 35 34 32 31 30 26 26 25 22 23 23 24 27 25
63 58 62 59 50 51 52 52 53 54 55 51 52 51 47 44 40 37 38 39 40 39 39 39 39 36 38 40 38 40 38 36 35 34 34 32 27 27 27 23 25 25 27 27 28
53 56 64 68 58 52 53 52 53 53 56 55 58 54 46 47 47 40 39 39 39 38 37 37 36 37 38 38 39 38 36 36 36 35 35 32 29 28 28 26 29 28 28 28 29
52 59 63 63 56 55 55 57 53 54 55 57 58 60 48 50 46 45 42 40 40 39 39 40 38 37 38 38 38 36 35 36 36 35 36 34 32 27 27 30 29 28 28 29 30
53 62 61 59 58 57 59 57 55 52 57 56 58 56 55 54 50 53 46 45 44 42 40 39 38 38 38 35 36 36 37 37 36 37 36 32 34 29 27 30 29 29 29 30 30
51 50 50 48 50 55 58 59 66 62 66 61 58 58 57 59 56 56 57 52 46 45 43 44 43 42 39 39 39 38 38 37 37 37 36 33 33 32 32 31 31 32 31 32 31
50 54 49 50 46 55 57 62 67 71 69 65 64 63 61 59 61 60 59 53 54 52 45 46 46 44 42 42 42 41 40 38 38 37 37 35 35 35 36 35 34 34 33 33 34
46 50 52 57 54 40 43 49 55 50 50 51 64 59 62 60 61 60 60 60 57 56 53 48 48 46 45 45 44 43 42 41 41 40 39 40 40 38 38 39 37 36 36 36 35
48 52 51 51 45 43 44 51 49 45 44 42 44 54 65 62 61 59 60 61 59 54 58 54 53 51 51 50 48 47 46 44 44 45 45 45 44 42 43 42 43 41 40 41 41
41 54 59 55 55 49 50 52 47 46 47 47 41 40 43 59 60 59 59 61 61 60 59 59 56 55 55 53 53 52 50 49 50 50 50 49 48 48 48 47 47 47 48 46 46
46 53 53 47 48 58 65 60 51 51 48 47 47 46 43 43 53 55 52 57 57 58 57 58 59 60 58 57 55 54 54 53 52 53 53 53 53 53 53 52 53 52 52 53 53
53 53 53 56 58 58 60 59 59 53 53 52 51 48 44 44 43 48 61 53 54 55 52 56 60 59 59 59 57 57 56 57 59 57 56 55 54 56 57 57 57 57 56 54 52
59 59 59 56 60 54 54 52 50 58 52 53 52 51 52 50 48 48 45 48 55 49 53 53 57 58 60 61 62 61 60 59 58 58 58 57 56 56 58 58 58 57 56 56 53
65 68 67 68 58 56 57 49 56 58 52 52 49 50 50 47 49 50 52 52 51 52 52 49 53 56 58 57 56 56 54 53 53 54 54 52 51 53 53 54 54 54 54 54 55
72 76 75 67 63 62 53 60 52 56 55 49 52 54 51 52 50 51 52 53 51 54 58 57 54 56 57 58 59 56 54 52 54 51 54 51 52 51 54 58 57 57 58 59 59
58 73 73 73 66 64 61 60 59 57 57 52 47 50 52 50 50 44 54 51 49 48 52 53 54 54 53 52 52 53 51 52 54 56 59 58 56 53 54 55 55 55 56 57 58
50 55 63 73 71 67 63 61 65 63 61 59 54 52 52 51 45 43 43 49 49 51 51 50 52 53 53 53 54 56 54 53 51 51 50 50 47 46 46 48 51 53 54 57 58

GFSSW_500_spd_087.txt.gz
Wind_Speed
41 39 39 38 37 38 36 33 32 31 33 39 41 39 43 40 41 42 45 46 46 45 43 41 37 34 31 30 28 26 24 22 20 18 16 12 14 13 13 14 12 12 11 9 7
44 42 41 39 39 41 37 33 29 34 32 37 35 40 47 40 45 44 49 47 44 44 41 40 37 34 33 32 29 27 25 23 21 20 17 13 11 12 11 11 11 10 10 9 8
48 45 43 42 41 43 41 38 34 39 33 40 37 41 42 40 43 47 49 48 47 42 41 42 40 37 35 32 30 28 26 23 21 19 18 16 13 11 10 9 9 8 7 8 7
52 49 45 43 43 44 44 41 42 41 34 41 38 43 42 42 43 45 47 44 41 43 43 42 40 37 36 33 31 29 27 25 21 19 17 15 14 11 8 7 6 6 5 5 7
54 52 48 45 45 45 47 46 44 40 39 41 38 41 44 43 44 47 47 47 46 44 43 42 39 37 37 33 32 30 28 25 23 20 17 14 12 10 9 7 7 5 5 5 5
57 53 49 47 47 46 49 52 47 41 48 38 42 42 42 43 44 45 46 49 47 45 44 42 40 40 38 37 35 32 30 27 23 22 20 17 14 12 11 10 9 7 6 6 7
65 54 50 49 49 47 52 51 48 47 44 39 45 43 41 44 45 46 47 48 47 45 44 42 40 40 38 37 36 34 32 28 25 23 20 18 16 17 12 15 13 11 11 10 9
59 53 56 50 50 47 50 48 53 51 48 46 42 40 41 42 43 45 46 45 46 45 45 45 42 42 40 39 36 34 32 30 27 25 21 19 17 17 15 14 14 14 14 16 14
66 60 61 50 49 48 48 46 53 54 52 44 48 40 41 50 39 43 42 43 45 47 46 44 44 43 42 40 38 36 31 28 27 26 24 22 20 20 19 17 17 19 19 20 20
61 58 56 53 51 49 48 48 55 57 56 50 55 45 42 41 43 39 44 42 42 43 46 46 46 43 42 41 36 32 31 30 29 29 27 25 24 24 22 20 20 22 24 23 24
67 60 60 57 52 50 48 48 50 58 50 50 47 52 43 39 43 41 42 41 42 44 44 45 44 41 37 36 37 36 36 35 35 32 30 28 26 26 24 21 23 25 24 24 26
61 64 67 62 54 50 49 47 46 45 44 56 44 53 48 41 39 40 41 40 41 42 41 43 42 38 38 40 39 39 38 36 35 34 33 30 29 28 27 25 25 26 26 25 27
51 67 69 62 56 53 50 48 51 49 52 47 47 44 44 47 41 41 39 39 39 39 39 40 38 39 39 38 38 38 38 35 36 36 36 33 30 29 30 28 27 27 28 27 27
51 73 68 67 61 55 52 49 51 54 55 58 52 55 45 55 44 40 41 40 39 40 41 41 40 41 40 39 40 40 37 38 39 38 38 36 33 29 31 30 28 28 29 28 28
46 65 68 71 63 58 52 50 48 50 55 51 62 58 53 50 56 48 44 41 40 40 39 38 39 39 40 37 38 39 37 38 38 38 40 36 35 31 30 31 29 28 28 29 28
38 49 59 60 63 62 55 49 49 51 59 57 55 59 53 58 56 53 50 45 41 40 40 42 41 41 39 39 40 39 38 38 39 40 42 36 35 33 31 31 31 31 31 29 28
48 39 46 56 59 62 65 58 55 59 59 60 60 57 56 55 54 55 58 54 46 43 43 43 41 40 40 40 41 40 38 39 40 41 41 36 36 35 35 34 34 33 33 32 31
43 41 45 46 54 57 66 63 63 63 63 62 62 60 57 56 54 51 50 58 54 49 43 41 43 41 40 40 39 38 38 39 39 39 38 38 40 37 37 37 34 33 32 32 32
43 45 39 49 37 55 59 58 71 70 61 62 61 62 60 59 55 55 54 50 51 56 48 46 47 45 42 41 42 41 42 41 40 41 41 43 42 39 39 38 35 35 36 36 35
47 44 44 44 54 52 58 53 44 56 52 56 61 63 60 60 61 56 56 55 56 54 53 56 54 51 51 47 45 44 45 45 45 44 45 44 44 42 41 41 41 41 40 40 40
45 52 49 61 54 50 59 54 47 45 46 53 57 64 70 66 62 57 57 57 59 57 58 60 58 59 56 53 50 47 46 46 47 48 48 49 48 46 46 45 45 46 46 47 46
54 50 55 52 53 53 57 53 47 46 46 49 43 42 47 54 55 60 66 57 53 55 58 56 57 58 59 56 56 50 49 49 54 52 52 51 51 51 51 50 50 51 52 51 50
58 52 53 57 58 59 58 48 48 49 47 51 46 45 43 45 44 41 45 60 68 55 51 54 59 58 58 59 62 64 59 57 56 57 56 55 53 55 54 55 55 55 53 53 52
58 53 51 51 59 58 54 52 54 56 57 50 49 46 45 46 46 47 46 46 46 60 54 51 54 57 59 57 55 58 60 59 58 58 58 57 54 55 54 54 52 51 52 53 54
54 60 60 55 63 65 62 62 56 59 58 55 52 55 51 50 51 49 49 47 44 45 57 57 52 54 56 60 61 58 58 57 57 56 56 55 53 53 54 50 52 53 54 54 53
55 61 61 63 62 64 69 68 63 58 59 55 56 51 58 56 54 53 52 52 50 50 50 48 50 53 59 57 55 58 55 53 53 55 56 54 53 51 53 56 55 54 55 56 57
51 57 62 68 70 66 61 68 66 66 63 61 52 53 52 49 49 52 55 54 52 52 52 50 51 50 50 53 59 59 56 54 53 54 53 53 50 51 53 54 55 55 53 53 54

GFSSW_500_spd_090.txt.gz
Wind_Speed
56 45 40 39 39 39 40 39 38 36 38 39 42 49 49 40 44 43 42 42 48 49 48 45 44 40 37 36 35 33 32 28 26 24 22 20 19 18 15 14 14 12 10 9 8
57 46 44 43 43 42 41 40 38 35 35 35 39 42 46 43 44 34 49 47 50 48 48 49 44 41 39 37 36 33 31 30 27 26 24 20 18 18 16 15 14 12 10 9 8
51 51 46 44 45 44 42 41 39 35 34 35 36 40 42 46 45 50 49 46 50 53 51 50 49 45 41 39 37 34 32 30 28 25 24 22 19 17 16 14 13 13 11 10 9
52 49 49 48 45 45 44 43 39 36 34 32 36 42 41 46 48 49 45 45 49 51 51 50 47 44 42 39 37 35 34 32 29 26 24 23 20 18 15 15 13 11 11 10 10
55 55 53 52 46 46 45 46 40 36 37 34 39 38 36 40 43 43 46 48 50 51 51 49 47 44 42 40 38 36 35 32 30 28 26 23 21 19 17 15 12 11 10 10 11
59 55 55 55 50 46 45 47 44 41 41 37 40 38 39 42 43 44 47 50 53 52 51 50 48 45 43 42 42 39 36 33 31 30 27 25 22 19 18 15 13 10 9 10 11
53 58 60 53 51 47 46 45 46 44 41 40 43 38 43 43 42 44 47 50 50 51 50 50 48 47 44 43 42 40 38 36 34 30 28 25 22 20 16 15 14 12 12 11 12
37 63 61 56 50 49 47 47 49 47 45 46 39 41 41 43 44 44 48 50 51 50 51 51 50 48 47 45 44 42 40 39 35 32 29 26 23 21 18 17 15 15 16 16 16
32 54 64 52 52 48 50 50 51 50 49 48 41 48 42 44 46 44 48 49 51 51 50 49 51 49 48 47 46 45 42 37 35 33 30 28 26 23 21 20 19 19 19 20 20
38 50 61 55 51 52 50 48 51 53 52 51 46 50 43 45 45 46 47 49 48 46 47 50 52 50 48 48 47 43 38 36 35 33 32 29 27 25 24 22 22 21 21 23 24
42 46 65 60 59 52 50 51 55 55 57 53 52 51 45 45 45 47 47 46 48 50 49 51 50 50 46 44 42 41 39 38 39 36 34 31 29 27 25 25 24 24 23 24 26
43 48 64 67 58 51 52 52 50 52 55 57 55 55 46 47 45 45 47 48 48 50 50 49 48 45 44 44 42 44 42 41 40 39 36 34 31 30 28 28 26 26 25 25 26
40 50 67 64 60 55 51 51 51 50 53 59 59 62 52 45 43 44 42 45 45 48 48 46 43 44 45 44 43 43 43 41 39 39 38 35 34 34 31 30 29 28 28 27 28
37 43 64 67 65 61 52 51 51 51 54 57 57 61 59 50 44 43 48 44 47 43 45 46 43 43 44 43 44 43 41 41 41 40 41 38 37 35 34 32 31 30 30 29 28
39 41 55 63 63 62 53 51 53 51 55 55 55 57 58 58 48 41 46 43 44 48 46 46 44 44 44 42 43 41 41 41 42 43 43 40 39 36 35 34 32 31 30 30 28
42 46 60 69 66 58 52 52 53 53 60 59 54 58 53 62 55 46 45 45 46 48 47 44 43 44 43 43 45 43 43 43 44 44 46 41 41 37 36 35 34 32 31 30 30
41 43 63 65 70 66 56 55 55 59 59 57 56 52 53 61 63 55 53 50 48 48 49 47 46 45 45 45 45 44 44 45 45 46 47 42 41 39 37 35 36 35 33 32 32
40 43 53 69 70 68 65 62 62 63 61 60 56 56 52 51 59 58 59 55 52 49 45 45 45 43 44 43 43 42 41 41 41 43 43 42 42 41 38 38 37 36 35 35 34
43 45 50 56 69 67 69 68 69 67 62 61 56 55 59 56 58 59 61 56 52 49 46 45 45 44 43 43 41 41 42 40 40 42 43 44 42 40 39 38 36 35 36 35 34
44 47 50 56 58 57 64 71 63 64 63 60 60 55 55 56 58 61 55 59 60 54 51 50 45 43 42 43 43 42 41 41 42 43 43 44 41 40 38 35 35 36 37 38 38
49 50 42 49 51 54 55 54 61 65 67 64 60 59 56 54 52 53 53 56 58 61 62 63 54 50 49 45 43 43 41 40 42 44 43 43 41 38 37 38 39 40 40 40 39
52 57 57 49 49 50 53 52 56 58 64 66 67 61 54 55 53 54 54 51 49 52 53 51 60 54 51 52 49 48 46 45 45 42 44 44 44 43 43 42 43 44 45 45 45
51 56 64 56 56 51 47 51 51 48 52 54 55 65 56 56 62 61 58 54 58 51 53 54 58 58 62 59 57 59 54 50 50 49 48 47 45 47 46 46 47 49 49 49 49
60 56 56 62 65 60 58 57 48 43 50 52 49 47 54 60 59 62 64 67 63 63 64 59 61 62 62 60 59 61 60 57 58 59 55 53 49 49 48 50 51 50 51 52 52
69 64 59 59 63 66 62 72 57 53 52 52 52 49 45 48 46 47 47 55 64 71 67 63 62 59 59 61 62 59 59 57 58 54 59 56 58 57 56 56 54 56 56 55 56
64 67 65 61 60 66 66 66 62 63 60 52 52 49 45 48 49 44 41 45 48 51 57 72 68 60 60 61 61 63 63 61 61 59 59 54 56 54 60 62 61 59 54 52 52
56 59 68 64 59 56 54 56 58 58 61 57 55 53 51 52 49 47 47 47 49 50 50 49 49 50 57 68 64 67 66 61 56 57 57 59 54 53 53 53 53 51 53 55 56

GFSSW_500_spd_093.txt.gz
Wind_Speed
52 55 58 46 44 45 45 43 41 40 40 36 34 36 40 39 34 33 41 26 53 47 38 36 43 45 44 41 39 37 34 31 28 25 24 23 21 19 18 16 14 13 11 9 8
51 54 54 55 50 46 46 43 41 41 43 42 41 40 40 39 38 31 29 32 48 47 38 43 43 44 44 42 41 39 37 33 30 28 27 24 22 20 18 16 14 12 11 9 8
52 51 52 58 52 50 47 43 42 43 44 43 42 43 45 44 46 39 37 35 45 46 45 49 49 48 44 42 41 41 37 35 34 30 28 25 23 20 19 17 16 14 12 11 9
53 51 49 47 54 50 49 44 45 44 44 42 42 43 45 47 51 48 38 44 48 49 42 48 50 51 48 45 43 40 40 37 34 33 30 28 25 22 21 18 16 14 13 11 10
51 51 51 52 55 52 49 48 46 46 44 41 39 40 41 41 45 50 45 41 51 50 46 47 51 50 48 45 44 43 42 38 37 35 31 29 27 24 22 21 18 16 14 13 12
51 57 53 56 52 51 51 49 49 47 43 40 37 35 35 36 42 50 49 47 48 49 54 52 53 51 50 47 47 43 42 40 39 35 34 31 28 26 24 22 20 18 16 14 14
39 58 58 56 58 53 51 49 50 48 44 41 38 36 35 39 43 46 46 44 46 49 51 54 57 54 51 50 48 45 43 43 40 37 35 33 30 26 25 22 20 18 16 15 16
38 42 61 54 57 59 52 51 49 50 47 43 41 38 36 40 46 46 48 43 45 48 50 53 56 55 53 50 49 47 45 45 42 39 36 33 32 30 26 24 22 20 19 17 16
41 33 55 63 56 56 55 47 49 50 49 44 43 40 39 43 40 42 38 42 43 47 50 53 57 54 55 52 50 49 47 46 43 40 37 35 33 30 28 26 24 22 20 19 17
46 35 49 66 61 61 51 49 48 51 52 48 46 42 42 40 39 42 45 42 44 46 52 55 56 55 54 54 54 51 50 46 41 40 38 36 33 32 29 27 26 24 22 20 19
36 34 39 65 63 55 57 53 53 52 54 48 45 44 47 44 46 47 42 43 47 51 54 55 57 56 56 54 51 50 47 44 43 40 40 38 36 33 31 29 28 25 23 22 21
41 37 33 53 60 61 56 49 49 50 52 51 50 47 47 45 45 50 45 46 49 50 54 55 55 52 53 54 51 47 44 46 46 45 43 41 37 37 33 31 29 28 26 25 23
37 43 41 49 65 57 54 51 52 50 49 52 53 52 48 50 44 46 46 46 47 50 49 51 51 53 53 49 50 47 47 49 48 46 44 42 40 39 36 34 32 30 28 27 26
44 44 42 54 61 65 55 51 50 49 52 55 55 53 50 53 47 46 48 47 47 47 48 49 50 49 46 48 47 46 47 48 49 46 46 45 43 44 40 37 35 32 30 29 28
55 44 40 41 60 62 56 52 52 52 55 57 58 55 54 56 51 51 46 50 47 48 50 51 48 48 48 47 46 48 46 46 47 47 47 46 46 46 41 39 35 33 32 31 30
45 43 42 46 61 60 59 54 55 56 61 62 61 60 60 57 53 54 48 50 49 47 48 48 50 47 48 48 48 48 46 47 47 48 50 48 47 47 43 39 36 35 34 33 32
48 45 45 46 62 64 65 58 57 60 62 61 61 61 60 62 61 60 54 52 48 49 51 50 49 50 48 50 51 49 48 50 51 51 53 50 47 45 42 39 38 37 37 36 35
47 42 41 50 67 68 66 61 61 62 65 62 58 59 56 56 65 57 55 55 54 45 48 49 47 51 51 50 48 49 49 51 50 50 49 47 47 47 43 41 40 39 38 38 37
51 46 48 47 66 71 66 67 65 65 63 65 59 58 62 53 60 67 60 56 54 56 47 48 51 47 48 49 48 50 49 48 47 49 49 50 48 47 45 42 41 39 38 38 38
53 51 48 65 61 64 65 64 68 65 68 64 59 58 60 58 58 59 67 61 54 55 49 48 47 49 48 49 49 48 46 46 46 48 49 50 50 48 44 39 39 38 37 37 37
50 50 47 55 62 70 63 60 68 67 67 62 61 59 57 54 56 52 64 68 64 59 52 48 49 51 53 51 48 48 48 48 48 47 45 46 49 44 40 39 40 39 38 37 37
52 48 47 52 61 70 65 56 65 65 69 65 63 60 55 52 50 51 54 67 64 62 58 54 53 52 51 49 47 46 45 44 45 45 45 45 48 47 42 40 39 38 37 37 38
57 55 55 50 55 61 67 60 60 61 65 62 62 59 56 55 52 50 45 49 52 67 60 56 60 59 57 55 54 51 47 44 43 47 48 46 48 43 41 41 42 42 41 40 41
60 57 59 63 61 58 58 62 60 60 55 63 62 60 60 59 55 55 55 52 48 48 48 52 59 64 66 60 58 59 57 54 51 52 48 49 45 45 44 42 42 42 42 43 44
69 62 61 60 59 68 55 52 56 61 54 57 63 64 61 62 60 60 57 57 56 55 56 58 60 54 58 55 62 64 65 58 59 57 56 54 51 49 50 52 51 52 53 52 52
65 66 68 62 61 60 65 64 62 52 52 57 54 52 58 63 64 63 66 64 61 61 65 63 59 56 57 56 58 59 61 70 70 64 64 66 68 64 63 60 61 58 56 56 57
57 52 60 65 57 65 60 64 61 59 56 48 51 49 46 52 52 50 55 64 62 60 61 64 63 63 61 63 63 67 55 63 62 64 66 68 62 61 58 57 56 55 55 55 56

GFSSW_500_spd_096.txt.gz
Wind_Speed
58 55 49 51 46 46 45 47 49 50 47 45 44 43 41 38 39 36 37 29 27 36 37 33 51 45 44 43 40 37 33 30 28 27 27 26 23 19 19 17 15 12 11 10 10
46 47 48 48 47 43 43 44 46 48 47 45 44 42 41 39 44 33 37 32 23 26 43 36 39 46 46 45 42 40 36 32 32 30 28 27 25 21 19 18 16 12 10 10 9
45 48 51 51 48 44 45 43 46 47 45 44 44 43 41 40 41 33 40 34 39 32 38 42 37 50 49 47 43 39 37 38 34 29 28 26 25 24 21 19 17 14 11 11 9
49 52 53 56 55 50 48 48 46 46 47 46 48 44 41 39 38 40 38 34 33 39 31 48 38 50 50 49 44 42 42 39 35 34 31 29 26 25 23 18 17 16 13 12 10
53 55 56 56 55 54 53 52 51 50 48 47 49 49 47 42 43 40 43 38 34 32 34 51 47 48 49 46 44 42 42 39 38 36 32 30 29 27 24 22 20 18 16 13 12
48 56 57 59 56 53 51 56 54 52 50 49 49 50 49 48 49 47 44 42 39 34 37 50 51 47 47 48 45 45 43 42 40 37 35 33 31 28 26 24 22 19 17 15 13
46 34 60 59 58 53 59 56 54 50 52 49 48 46 46 45 45 45 48 50 44 42 45 50 41 45 49 52 51 50 47 46 44 40 37 36 33 30 28 26 24 22 19 17 16
48 50 51 63 62 55 57 62 52 52 50 50 49 45 44 43 44 44 47 46 46 48 48 48 45 45 50 51 51 49 50 51 46 42 40 38 36 36 31 28 26 24 22 20 18
45 41 44 58 56 59 61 62 52 51 51 50 49 45 43 42 40 43 43 44 47 47 52 46 46 48 52 53 53 53 50 52 48 44 42 40 38 34 32 29 27 25 22 21 20
43 44 40 42 61 62 59 61 51 54 50 53 49 46 43 40 39 40 41 44 43 47 49 54 50 51 54 56 56 56 54 52 49 45 42 41 39 36 34 32 29 27 23 22 20
48 47 37 37 64 59 60 62 59 55 51 50 48 45 44 43 41 40 41 41 45 49 45 50 57 52 53 54 53 51 51 51 46 45 44 41 41 40 38 34 32 29 26 24 20
45 39 36 39 56 62 61 59 52 49 54 52 51 48 47 45 45 43 42 42 46 49 46 51 54 50 51 54 53 57 55 54 51 46 46 47 44 42 40 36 34 30 28 25 22
44 36 43 44 44 60 59 54 53 49 48 48 50 50 48 46 45 43 40 39 41 41 43 50 52 53 55 57 55 55 54 53 49 46 47 47 46 44 43 36 36 32 29 27 24
41 44 42 42 37 57 62 61 60 53 52 53 53 49 48 46 46 43 43 42 41 42 41 46 47 49 50 52 49 53 54 52 52 49 50 50 49 45 44 41 37 34 32 29 27
44 43 43 37 33 52 61 59 55 48 53 52 53 52 50 49 46 45 45 42 41 41 43 47 47 48 50 49 49 51 51 51 51 51 52 52 52 48 48 44 40 37 34 31 29
43 51 46 45 42 53 66 60 59 51 57 58 54 54 52 50 48 46 46 47 47 45 44 46 45 46 47 47 47 51 49 50 51 52 56 54 54 53 51 47 43 38 36 34 32
45 49 47 49 49 55 62 60 57 58 59 58 56 56 54 55 53 51 50 48 55 48 49 48 49 47 48 49 49 50 49 50 52 57 60 57 58 56 52 46 40 40 38 36 35
41 50 54 41 43 60 68 62 63 64 61 60 57 55 57 59 56 53 52 49 49 46 48 48 50 48 49 51 48 50 51 53 53 55 57 55 58 55 49 45 43 42 40 39 37
46 48 44 45 52 64 70 70 58 61 59 65 59 57 60 59 56 58 57 53 50 47 53 51 49 48 49 49 47 50 52 50 52 53 54 55 56 53 50 49 45 42 40 40 39
42 53 48 48 54 53 68 56 65 62 59 63 61 57 60 60 59 57 56 55 54 49 48 49 48 47 47 50 54 47 46 47 50 50 52 54 54 53 49 45 43 43 42 41 41
58 53 54 50 51 58 53 49 63 60 65 64 61 58 56 60 56 56 54 55 56 55 54 51 48 49 47 48 49 53 52 48 49 48 50 52 53 49 44 43 43 43 43 41 40
57 54 51 49 64 63 51 51 60 66 65 67 61 59 58 56 55 56 52 49 57 58 56 56 54 50 48 49 48 48 50 47 48 49 51 50 50 48 44 41 41 39 38 37 38
52 57 53 53 56 57 55 56 61 66 66 65 61 60 59 60 53 53 51 53 55 63 56 59 59 56 52 50 51 52 49 48 48 50 52 50 52 46 44 41 39 37 37 38 38
53 52 51 51 53 57 60 59 54 60 61 63 63 60 59 59 56 50 48 51 51 52 67 54 55 58 59 56 53 50 52 50 48 50 50 52 48 44 46 41 39 36 38 40 42
69 58 54 52 55 61 62 61 64 63 59 59 62 60 57 58 56 54 52 50 50 49 48 65 59 57 59 59 52 52 51 50 51 48 52 55 51 46 44 45 42 43 43 44 45
63 54 54 53 59 60 60 59 63 65 64 56 48 53 56 56 57 54 53 55 49 52 50 49 60 68 60 59 60 63 65 60 59 61 59 56 55 54 55 56 58 56 52 50 49
59 53 59 59 58 54 66 61 56 56 59 55 55 53 48 49 55 58 57 56 56 51 50 53 52 51 54 62 60 59 60 64 67 66 63 67 58 61 66 67 64 61 58 58 60

GFSSW_500_spd_102.txt.gz
Wind_Speed
81 74 71 66 66 66 60 64 48 50 52 55 54 53 52 49 45 42 37 38 34 30 32 30 43 50 46 43 37 39 40 35 31 29 28 26 24 22 20 18 18 18 16 17 16
63 75 72 67 60 61 61 57 62 46 49 53 55 55 56 53 48 47 43 39 38 33 32 32 39 47 48 49 42 41 41 37 33 31 28 28 27 26 23 21 19 18 17 16 15
55 58 68 72 61 55 53 53 50 55 44 47 55 56 56 53 52 49 47 47 34 37 36 32 29 43 49 50 49 43 43 41 34 33 31 30 29 27 24 22 21 20 18 16 16
50 51 57 60 67 65 51 46 47 45 48 45 52 54 58 56 53 50 47 48 38 42 39 31 29 31 39 48 50 42 44 44 40 36 32 32 31 28 26 26 24 22 19 18 18
50 47 53 56 58 60 62 54 45 42 45 42 45 51 55 56 53 51 51 51 46 43 38 35 37 34 33 38 37 56 49 49 44 39 36 36 33 30 30 29 27 23 20 18 17
47 49 50 56 58 56 56 56 54 45 43 50 45 49 51 54 53 51 50 49 50 47 39 36 35 40 26 37 40 47 54 53 45 41 38 38 35 33 31 30 29 26 23 20 19
29 46 51 58 60 60 59 55 51 49 45 44 47 49 49 52 52 52 51 48 45 46 40 41 33 38 27 38 37 52 57 54 47 44 42 41 39 36 34 32 30 26 23 22 20
32 35 48 56 60 62 60 59 54 53 49 44 43 45 52 52 51 51 50 49 48 49 47 41 36 45 40 21 44 60 59 56 51 48 45 44 37 38 35 33 29 27 25 24 22
36 36 44 58 60 63 63 63 60 59 54 53 44 46 51 49 51 51 51 49 51 50 50 46 44 35 38 32 37 62 60 58 54 50 47 44 42 40 37 34 31 29 28 25 23
44 39 46 52 57 59 64 65 64 64 62 59 55 51 44 47 52 52 51 50 54 51 50 49 41 36 41 31 28 59 62 58 55 51 49 46 42 41 38 36 35 33 30 28 24
42 46 44 45 53 57 62 67 66 61 59 51 46 48 50 51 54 56 54 54 55 52 51 48 44 36 36 26 38 57 56 55 54 52 50 46 45 43 41 40 36 35 33 30 27
53 49 54 47 47 56 57 58 58 51 53 59 57 56 56 57 55 57 57 59 58 58 51 53 44 41 40 27 42 55 55 56 54 52 51 50 48 46 45 42 40 40 37 33 31
53 49 52 48 46 51 55 57 59 58 58 56 58 59 59 59 56 57 55 56 62 51 50 52 44 48 43 37 39 58 56 54 55 53 53 53 53 52 50 47 45 42 40 36 34
54 55 55 54 56 47 41 65 59 65 61 58 58 59 54 56 57 59 54 50 53 52 47 48 47 44 39 43 41 59 55 52 55 56 57 55 56 53 50 49 47 45 43 38 36
56 51 53 51 54 48 46 46 60 64 67 62 58 60 63 56 55 60 54 51 49 48 47 47 46 46 44 46 48 54 49 47 49 51 55 56 58 55 55 53 49 46 42 39 39
57 60 52 51 52 49 49 52 53 65 76 71 61 60 60 59 58 57 53 49 46 44 43 42 40 43 42 46 51 42 42 45 48 52 58 57 58 58 56 51 46 47 45 43 40
58 48 55 55 44 54 51 54 58 62 65 70 63 59 59 58 60 60 58 53 49 48 47 46 42 42 44 44 54 56 41 46 51 56 60 58 60 60 57 54 50 50 47 44 42
52 47 53 51 52 51 52 56 55 51 54 58 67 61 62 64 58 55 58 55 49 47 46 48 48 48 48 50 47 58 48 52 57 58 59 60 66 64 56 54 50 48 48 47 44
44 50 51 53 60 59 56 46 38 46 46 57 61 60 62 62 59 60 57 54 51 49 48 46 44 42 48 46 47 49 57 46 49 54 55 59 59 58 54 52 48 46 46 44 45
58 52 45 55 55 51 59 48 49 47 47 54 61 58 62 62 61 59 57 56 52 49 46 45 44 43 46 45 44 50 46 47 51 54 55 58 60 61 55 51 47 46 45 44 45
55 56 57 57 49 54 44 42 43 51 47 54 57 57 60 61 60 60 58 56 54 52 50 49 45 45 44 51 46 47 53 51 47 50 51 55 60 57 52 48 45 44 45 46 46
69 61 56 57 54 55 46 48 50 49 47 51 55 59 55 59 58 60 58 55 53 51 52 51 49 45 43 45 46 48 42 43 46 49 51 52 52 52 52 46 41 40 42 43 46
55 60 60 56 57 55 52 47 52 52 52 47 54 54 57 50 55 57 55 53 54 50 51 51 51 50 48 47 46 48 51 44 45 45 48 48 53 49 49 45 44 42 40 39 40
66 64 70 67 53 52 56 53 54 49 52 53 50 54 51 55 52 56 52 52 52 50 48 48 51 51 49 42 43 46 49 48 45 47 48 50 48 44 42 40 35 35 38 39 40
69 64 63 62 58 56 54 51 52 51 49 50 52 53 54 53 56 53 55 51 52 49 51 51 53 50 50 47 43 42 41 46 46 45 45 48 51 42 41 38 37 38 38 40 40
66 58 53 59 58 60 58 50 46 48 47 46 47 52 53 56 53 51 53 53 53 55 54 55 55 52 52 51 51 51 44 46 53 54 57 59 58 48 44 48 49 49 48 45 43
67 64 58 58 56 54 52 49 46 44 43 46 44 47 50 52 52 53 53 48 40 49 53 54 53 52 52 49 48 50 47 52 51 53 53 57 46 49 52 52 51 49 46 44 42

GFSSW_500_spd_105.txt.gz
Wind_Speed
69 76 80 77 73 71 69 72 71 64 58 56 55 54 51 50 47 44 37 35 34 31 27 27 30 41 43 48 43 40 37 36 31 28 28 25 25 22 21 19 18 17 14 14 15
68 64 70 72 68 66 64 69 68 62 59 55 54 55 53 52 48 46 44 39 37 35 34 28 31 39 49 49 45 43 39 37 33 31 30 28 27 25 23 21 19 18 16 16 17
59 57 62 67 69 65 56 64 63 63 60 56 51 56 55 53 52 49 46 43 43 39 39 33 31 34 47 50 48 44 38 40 36 34 33 32 29 27 26 23 23 22 20 17 18
52 52 50 62 57 62 59 56 54 53 57 55 55 56 55 52 51 51 48 46 39 42 40 34 31 36 31 50 50 48 42 43 41 38 36 32 32 29 25 25 24 23 20 19 19
60 55 50 50 57 64 61 57 54 54 53 53 55 55 53 48 52 51 50 53 48 41 42 34 33 32 34 40 54 51 50 45 44 40 39 37 32 32 29 28 26 25 23 21 19
52 61 57 53 56 57 63 56 53 50 50 52 53 54 56 52 53 51 51 50 54 50 42 41 35 31 43 32 46 48 51 51 46 44 43 39 36 34 32 30 30 28 25 22 22
53 55 50 56 60 61 57 59 57 54 46 47 46 44 53 52 49 48 51 49 50 54 48 41 39 36 42 44 32 38 47 54 56 48 45 44 42 38 38 34 33 30 28 25 23
51 49 51 57 60 64 63 60 56 57 51 49 44 43 46 54 53 49 49 48 49 50 53 42 39 40 43 43 38 30 41 49 50 51 50 49 42 40 40 36 36 32 29 27 25
54 50 51 50 60 66 67 67 62 57 56 56 46 43 46 48 50 54 48 47 48 50 53 48 43 40 40 43 42 24 38 43 49 52 53 51 44 44 43 40 38 34 32 30 27
47 50 49 53 57 66 69 70 67 68 63 58 54 49 44 44 47 52 53 44 48 50 51 53 52 43 44 51 43 40 29 38 48 56 56 53 46 46 44 42 39 38 35 31 29
49 45 39 49 62 67 72 75 71 68 55 53 52 50 48 48 49 51 55 51 48 49 49 51 54 46 43 45 38 40 29 32 43 59 57 53 48 46 46 45 44 40 36 33 33
49 49 44 42 55 65 67 68 64 55 58 54 55 54 55 54 51 51 53 55 50 45 50 52 50 48 45 46 35 33 32 34 54 60 58 53 50 50 51 48 44 41 39 37 37
50 52 45 40 49 58 64 65 66 61 57 62 64 62 60 59 55 53 51 52 54 48 48 48 54 51 49 50 37 31 34 31 59 60 58 55 54 55 54 52 50 48 43 43 39
49 50 49 49 49 53 59 57 66 63 60 62 62 59 59 60 60 59 55 56 54 51 51 52 56 53 50 52 45 32 29 41 57 52 59 58 59 58 56 54 52 47 46 42 40
55 51 48 47 46 53 58 55 59 66 61 60 58 57 58 58 55 60 58 56 53 52 52 52 59 57 50 51 55 35 39 49 57 55 53 59 61 60 59 56 53 48 46 43 41
60 60 54 52 54 44 52 60 62 61 68 64 63 62 61 58 58 51 54 57 55 54 52 52 52 54 53 44 47 47 48 50 52 57 60 59 61 61 60 56 51 48 46 43 43
68 63 59 59 53 50 53 60 67 67 59 65 63 63 64 62 61 57 56 58 56 54 56 53 55 61 46 46 44 43 47 48 51 59 63 62 65 66 62 59 55 51 49 49 48
71 57 54 52 54 53 54 53 58 56 53 56 63 62 64 62 59 58 57 57 54 53 50 53 58 60 54 44 40 46 50 50 53 55 59 69 71 69 64 60 56 52 51 50 49
72 64 54 60 56 63 57 54 57 55 49 56 59 68 66 60 58 61 62 60 58 56 51 54 57 54 51 45 46 49 52 49 54 53 59 64 69 64 59 57 53 51 50 49 46
66 64 62 65 61 63 67 60 55 51 50 53 50 58 67 64 63 60 56 62 63 61 51 51 54 53 49 46 49 51 47 52 56 53 56 63 66 66 58 54 51 51 47 46 46
72 71 65 64 63 72 66 54 53 55 52 54 51 52 56 63 63 61 54 58 61 63 55 53 53 53 46 47 46 51 54 54 51 56 56 58 62 55 53 46 47 47 46 44 45
70 70 51 74 67 74 70 64 53 54 52 52 49 45 48 51 60 67 59 52 54 58 56 54 55 55 48 46 45 48 49 46 51 54 53 60 60 56 48 42 41 42 42 44 46
64 62 65 66 73 76 69 63 59 52 52 45 46 46 44 48 49 55 56 56 55 60 54 55 58 56 51 49 45 46 44 47 48 47 51 51 49 48 42 38 38 40 39 38 39
69 61 53 67 63 68 59 62 56 52 53 50 47 45 44 45 50 50 55 54 53 55 55 52 52 54 52 49 47 51 48 47 45 45 49 50 45 42 39 35 34 35 33 40 45
71 74 50 66 68 76 66 58 54 49 48 48 44 45 41 46 53 52 56 53 53 55 55 50 52 51 50 46 46 43 39 39 43 45 51 34 45 36 33 33 36 37 37 41 44
62 81 50 52 64 61 66 59 53 45 43 46 42 43 44 38 46 51 51 56 58 56 54 51 53 50 51 49 47 48 50 45 45 41 39 47 45 39 39 42 41 39 39 41 43
62 69 59 64 61 64 66 50 48 53 43 40 42 41 40 41 39 45 46 43 48 52 53 52 50 52 53 52 52 54 51 49 44 41 34 37 28 38 43 41 40 42 46 45 42

GFSSW_500_spd_108.txt.gz
Wind_Speed
92 85 77 81 82 81 81 75 73 69 67 62 59 55 55 52 48 45 42 43 43 36 34 28 24 24 32 39 43 42 37 31 27 24 23 24 21 19 20 17 15 13 13 12 10
79 66 70 72 74 77 72 73 73 68 66 65 61 59 58 54 50 48 47 46 41 40 37 35 29 27 30 41 46 45 42 34 31 27 28 28 23 23 22 20 17 16 15 13 11
66 52 60 67 71 66 69 67 67 64 62 60 61 59 59 57 53 49 48 48 43 39 35 30 29 28 26 37 45 48 44 38 36 33 31 30 26 25 25 21 21 21 18 16 15
72 66 55 54 62 61 63 64 60 62 58 57 59 61 60 60 54 51 49 48 46 41 35 35 32 28 26 29 38 46 46 41 40 34 32 31 30 28 26 27 23 21 19 17 17
69 56 52 53 49 50 53 58 58 55 54 52 53 55 58 59 55 50 48 47 44 46 40 42 37 35 34 31 38 42 45 43 42 35 34 34 33 33 31 30 25 22 22 21 18
52 53 54 54 55 53 52 50 52 52 49 50 52 54 55 59 58 53 49 49 50 49 41 42 46 40 35 31 32 39 49 46 43 41 37 38 38 36 34 31 28 28 26 23 22
49 64 53 52 53 53 53 59 48 52 49 47 47 49 53 57 59 56 50 48 47 50 47 44 40 36 33 34 35 36 38 49 47 49 43 41 42 38 37 34 33 32 29 25 24
55 58 56 57 56 59 58 54 57 52 52 49 48 49 50 57 59 59 55 49 47 50 55 46 44 42 35 33 33 39 38 39 46 50 49 45 41 40 40 37 36 35 31 27 25
47 56 55 55 55 63 65 59 50 58 52 50 52 52 50 54 55 56 55 51 49 48 52 54 45 42 38 41 33 34 38 35 36 48 54 47 40 44 44 41 38 36 35 31 30
55 53 49 54 51 59 67 69 65 51 59 56 56 54 52 49 52 54 56 55 52 48 46 48 57 50 40 42 39 36 32 41 34 39 47 45 44 46 45 44 39 39 39 37 32
54 52 54 52 60 57 69 76 75 62 56 62 58 51 47 46 51 51 55 56 55 51 47 48 48 53 43 35 37 36 35 41 35 29 40 42 42 46 48 47 43 41 41 39 35
54 56 53 48 53 57 63 68 69 65 58 58 55 52 50 50 51 52 53 54 52 50 48 51 47 45 50 46 39 39 38 38 37 42 34 44 44 50 53 50 48 45 45 43 41
57 56 59 53 50 51 58 64 65 65 51 63 57 58 56 51 51 52 52 51 50 51 52 48 46 44 46 49 50 39 32 37 40 43 37 41 48 53 55 53 52 49 49 49 45
57 51 56 52 53 56 57 64 69 68 62 58 69 69 64 60 58 55 57 52 51 48 50 53 48 44 43 44 46 45 38 40 42 43 44 42 51 54 57 56 54 52 52 49 47
57 57 55 56 50 57 57 60 71 71 68 69 55 69 65 63 60 57 58 56 52 50 51 50 53 45 41 42 45 44 48 46 46 46 42 44 52 54 61 61 57 54 53 49 46
67 50 63 57 53 55 59 70 69 68 66 71 71 65 63 62 58 58 62 59 55 55 54 51 49 51 45 45 49 52 43 50 48 52 43 38 46 49 62 59 56 53 52 50 47
69 55 59 55 49 52 58 66 69 70 73 71 68 61 63 63 65 60 61 63 59 55 52 53 51 52 52 50 49 49 52 47 51 49 47 43 49 43 58 61 56 54 53 52 51
74 59 68 57 52 51 67 64 70 73 67 70 68 63 66 65 62 58 60 62 60 56 52 54 51 49 53 57 51 53 55 54 48 57 53 48 39 37 43 66 55 53 53 52 51
73 59 68 63 57 57 61 65 59 67 68 60 69 66 64 61 60 59 61 59 57 57 55 53 52 52 51 52 52 55 56 48 46 46 50 46 35 37 36 51 59 52 51 50 52
65 62 73 63 61 57 55 43 56 57 60 56 54 64 63 63 64 65 63 60 60 57 53 53 49 48 49 50 50 50 47 49 50 56 54 50 44 41 42 42 56 57 54 47 50
63 62 70 53 64 62 62 57 49 48 51 52 56 54 58 57 61 61 62 60 57 56 55 54 50 50 50 52 48 48 51 53 52 49 48 49 47 42 44 42 45 55 48 47 49
67 70 71 58 63 67 58 51 52 54 56 51 53 52 47 50 58 57 55 53 52 54 52 54 54 51 48 47 44 43 44 45 46 44 50 48 45 47 47 44 40 44 42 43 45
67 74 74 68 63 71 61 57 57 57 52 49 49 51 46 42 49 48 55 53 52 50 51 51 55 56 54 52 48 45 45 47 47 48 48 46 41 42 45 43 38 37 40 40 40
64 70 78 63 57 64 70 59 60 59 58 54 51 49 48 47 44 45 48 55 58 55 53 50 48 52 55 53 51 48 48 49 49 50 49 49 48 43 40 38 37 37 34 34 36
64 66 75 66 56 65 67 72 64 60 57 52 50 48 44 47 44 44 51 53 54 54 56 57 56 53 52 55 50 47 42 46 47 45 47 40 46 39 31 32 33 34 35 34 35
63 65 75 68 63 51 65 75 65 58 58 51 48 49 45 42 47 47 48 55 58 54 59 60 58 54 57 53 56 55 46 44 51 49 44 43 41 41 35 29 34 34 37 38 39
59 62 72 66 58 59 66 60 63 62 66 56 50 48 47 43 46 41 40 39 45 49 52 58 54 53 56 54 55 57 54 53 51 50 43 42 30 32 30 33 36 40 42 43 42

GFSSW_500_spd_111.txt.gz
Wind_Speed
62 73 91 87 69 84 81 81 77 71 67 65 63 61 60 56 52 49 43 40 42 38 35 31 27 27 32 33 33 34 31 29 26 19 20 20 21 21 18 15 13 11 11 9 7
66 63 77 85 65 81 83 76 74 70 66 66 64 63 61 58 54 50 45 45 44 43 38 33 27 26 29 31 34 36 34 29 31 24 22 25 24 23 20 18 16 15 13 10 10
75 71 75 84 70 70 82 76 70 67 66 65 64 63 62 60 57 49 47 46 44 45 40 36 35 29 27 22 34 35 35 33 35 32 23 24 24 24 22 21 21 18 16 13 12
70 65 62 77 77 65 70 76 70 65 65 65 64 64 63 63 58 54 51 47 42 45 44 40 36 33 30 31 25 31 33 37 38 37 29 26 28 26 25 27 22 19 16 14 14
79 61 57 64 63 73 63 63 65 66 61 60 62 61 63 62 59 55 53 46 43 45 48 45 38 35 30 30 28 33 32 39 39 40 35 28 30 31 29 28 24 22 21 19 17
77 74 49 68 59 63 55 61 61 62 58 57 60 60 61 62 59 55 54 51 47 46 47 44 41 37 34 32 33 24 23 38 43 41 39 32 33 33 32 29 26 25 25 23 21
69 73 53 64 67 55 58 48 53 51 59 56 51 54 54 59 61 58 56 51 49 48 49 48 41 38 39 33 34 29 20 31 37 44 41 37 33 32 33 33 29 29 28 26 24
59 55 66 66 59 58 50 49 53 52 51 52 49 51 57 59 61 59 58 56 55 51 49 48 44 41 34 36 36 34 31 26 38 41 41 39 35 34 36 34 33 32 31 28 26
58 58 62 60 51 47 48 55 58 50 51 51 53 52 56 58 59 59 58 57 53 52 49 53 44 43 38 42 37 38 34 23 29 35 43 46 40 39 40 38 36 35 33 33 31
58 48 62 69 61 59 56 49 46 42 52 58 59 60 56 55 55 59 59 59 56 54 52 51 51 48 47 43 41 36 30 22 25 29 34 46 46 45 44 42 39 40 38 36 33
65 50 59 65 70 69 59 70 71 71 49 60 55 54 51 53 59 58 59 58 59 56 54 51 50 53 50 35 35 36 33 28 24 30 33 34 37 44 44 46 44 42 41 39 37
57 50 55 65 61 62 64 66 69 61 53 51 60 50 53 56 57 58 61 61 60 58 54 53 53 54 50 49 40 34 33 31 32 33 35 33 23 33 47 47 48 46 45 43 43
60 58 60 60 59 63 64 66 64 59 64 67 66 61 56 55 53 54 57 57 55 55 53 50 49 48 49 45 45 45 40 33 34 37 36 34 39 25 36 49 48 52 48 47 47
70 64 62 59 61 60 62 68 69 61 62 57 70 61 59 58 56 55 54 55 56 56 53 49 46 46 45 42 42 43 43 46 34 38 36 35 42 34 27 43 49 51 50 49 49
68 62 61 66 60 61 60 71 76 64 61 50 68 60 63 63 56 56 56 52 55 54 56 54 50 47 48 43 40 41 40 41 46 44 38 35 43 34 33 33 50 54 55 51 51
67 59 64 64 64 63 63 61 79 79 67 56 56 72 65 64 61 61 56 54 59 61 59 58 53 51 47 48 46 41 40 41 42 44 46 40 42 39 27 29 40 50 60 55 51
64 54 65 66 63 63 63 69 77 83 80 60 68 59 63 63 68 63 61 59 57 52 53 54 52 50 50 50 52 49 43 43 44 45 42 38 48 39 31 27 34 45 58 58 51
63 58 70 71 65 64 62 72 76 78 77 80 48 68 67 63 71 70 66 62 58 56 53 53 49 48 50 52 50 53 54 47 44 42 44 46 37 38 35 38 41 40 52 59 53
67 68 71 70 64 62 69 68 70 70 73 75 76 58 66 72 69 69 62 54 58 52 54 53 54 51 50 51 51 53 53 53 51 49 48 49 45 43 43 38 32 36 41 53 51
72 63 63 72 58 65 66 67 65 65 68 74 72 74 65 57 71 68 63 57 57 60 61 56 52 52 52 52 53 51 49 48 49 50 52 53 50 45 32 31 33 33 35 47 50
79 63 64 71 66 69 70 66 66 66 65 70 72 67 70 67 61 66 61 62 60 63 60 61 56 53 52 56 53 48 51 52 51 50 51 51 51 49 41 41 41 42 40 39 51
66 62 62 75 58 71 64 63 63 63 61 63 64 60 61 59 63 59 60 57 62 56 53 49 47 47 48 43 45 46 43 43 45 44 45 43 45 49 46 40 43 41 42 42 36
59 62 67 63 63 61 65 62 61 60 55 55 59 56 52 44 50 55 52 54 54 55 51 48 49 44 44 45 46 48 47 48 46 46 47 48 45 42 45 41 44 39 33 35 32
54 60 68 66 58 70 64 63 59 55 54 55 50 52 48 48 44 51 50 48 44 43 45 44 45 44 44 41 42 43 42 43 43 48 44 46 41 48 42 38 34 36 33 36 36
53 60 67 69 59 67 72 65 59 59 48 50 46 45 43 50 48 45 44 42 45 46 47 47 48 45 43 45 46 45 45 45 45 47 47 38 41 41 37 37 38 39 41 41 39
51 60 63 67 58 56 70 65 60 55 52 53 50 47 40 36 36 43 41 45 48 48 51 52 54 52 50 50 48 47 45 47 50 52 50 40 39 42 42 36 33 35 40 40 41
49 55 59 64 64 58 61 68 59 57 53 52 46 40 36 35 39 39 36 34 37 40 43 52 58 57 57 54 54 55 46 44 45 52 52 51 30 38 39 34 34 38 40 39 40

GFSSW_500_spd_114.txt.gz
Wind_Speed
83 63 75 73 75 67 86 74 74 78 75 71 69 67 63 60 59 57 51 43 44 40 35 32 33 31 36 36 35 31 30 24 21 25 20 20 21 20 17 16 12 13 11 9 7
98 76 70 74 75 61 79 78 72 76 76 72 69 68 66 65 61 56 49 50 49 45 38 34 32 29 31 38 36 35 29 27 25 26 22 18 19 21 17 16 17 17 14 11 10
95 79 69 74 70 78 64 72 72 73 75 73 68 68 68 66 65 54 53 50 49 46 45 37 36 33 30 31 33 38 29 28 28 28 25 19 19 21 19 20 21 16 14 14 13
89 91 68 56 74 67 64 67 76 69 73 72 69 68 68 69 65 55 54 53 50 49 45 44 38 34 30 27 28 34 33 28 31 31 30 25 18 21 23 24 21 18 16 16 15
82 91 81 65 80 75 67 73 67 69 70 69 70 69 69 68 66 60 57 56 52 49 47 45 41 35 33 27 29 27 42 38 32 36 32 30 25 24 27 26 23 20 21 19 16
74 91 89 59 79 71 75 76 76 61 69 68 69 69 67 66 63 61 59 56 52 49 47 45 44 38 38 33 34 29 24 26 37 35 37 33 31 27 28 27 25 23 24 22 19
51 79 85 68 73 69 67 61 71 56 61 68 65 66 65 62 63 63 62 58 53 49 46 44 45 44 40 35 33 28 31 26 32 36 41 40 37 28 31 31 28 28 26 24 22
41 74 90 64 74 69 67 59 63 56 52 60 64 65 65 64 65 64 63 60 58 54 50 47 47 46 43 39 35 34 35 31 24 30 42 41 35 34 33 33 31 31 29 27 27
51 73 93 76 69 65 68 66 56 46 50 56 64 65 66 66 65 64 64 61 58 54 52 49 49 49 44 43 41 41 38 28 25 23 34 40 38 37 35 34 34 32 33 32 31
43 65 84 65 58 65 67 63 61 61 61 48 56 69 67 64 62 64 64 62 60 57 55 54 53 51 51 48 44 46 36 27 27 25 25 34 35 38 38 36 36 36 36 35 32
50 56 87 72 56 62 67 67 73 71 70 80 63 52 58 62 64 64 63 63 63 60 52 58 56 51 47 47 45 36 32 33 28 32 30 24 34 33 40 41 39 39 39 38 36
56 56 70 66 69 65 66 70 57 54 55 55 51 57 56 61 65 67 64 63 62 61 65 60 57 50 50 52 44 41 39 37 35 37 30 25 21 31 35 38 43 41 43 41 41
64 66 66 61 56 68 69 64 71 65 59 54 70 64 58 60 63 64 65 63 60 60 58 57 55 51 51 51 46 42 36 33 35 34 36 31 27 21 23 20 34 44 42 45 43
70 67 68 64 70 72 69 73 72 66 69 72 69 72 68 68 67 64 63 62 61 58 55 54 55 51 49 49 48 51 49 42 31 33 38 35 37 28 24 24 25 27 41 44 48
70 68 68 67 76 74 71 70 68 68 76 78 75 69 65 67 62 66 64 62 59 57 58 56 54 50 47 46 46 48 46 37 42 44 40 34 42 27 24 24 25 24 22 33 49
64 66 57 75 73 73 72 73 70 74 69 80 74 73 74 72 70 68 65 62 61 61 59 57 55 52 49 47 46 45 43 39 40 45 51 44 44 37 24 19 23 24 26 31 39
65 67 63 69 67 71 80 79 78 91 81 60 76 77 77 71 70 71 64 60 63 60 62 58 57 55 54 52 49 48 46 45 43 45 50 44 45 50 36 31 30 25 21 23 32
70 62 65 70 68 78 75 75 85 86 82 73 68 73 78 75 70 67 69 64 56 55 54 56 55 56 54 53 49 48 47 48 48 47 45 45 45 46 33 25 28 28 29 29 30
76 67 70 72 71 77 80 79 89 81 83 71 71 74 70 74 70 67 61 59 55 51 52 52 55 55 56 54 53 53 52 51 52 51 49 52 51 46 41 40 36 34 35 35 35
71 67 67 75 73 80 82 87 82 86 80 73 65 63 64 69 62 62 61 58 57 55 58 56 61 60 58 61 61 55 52 51 51 51 51 49 49 49 48 43 39 34 31 32 34
72 69 68 75 78 81 79 79 81 78 83 78 66 54 60 56 58 60 53 54 55 60 64 63 60 58 63 58 56 56 56 55 54 54 54 50 49 45 45 48 47 47 41 37 36
59 60 73 73 71 77 70 79 78 80 75 73 71 65 56 44 54 61 52 54 61 62 63 65 64 62 57 58 56 52 51 52 56 54 52 50 46 44 45 46 48 47 47 42 39
48 65 68 66 55 78 66 77 76 78 71 69 67 67 62 61 49 63 58 56 64 62 62 61 62 59 58 58 61 61 59 56 50 49 48 50 45 44 45 46 47 47 46 45 38
48 63 71 62 50 66 74 70 82 73 73 66 61 64 62 66 66 56 53 49 56 62 59 54 53 52 52 49 45 44 42 38 38 42 41 42 42 43 39 42 40 42 41 40 41
44 58 65 51 54 64 75 81 79 71 70 64 63 61 61 62 59 55 57 49 51 51 55 57 53 51 51 49 47 43 40 40 44 45 47 45 46 44 46 41 44 47 47 45 44
40 47 61 56 53 63 74 75 76 70 66 64 62 59 52 50 53 60 62 56 55 59 50 50 51 51 52 48 48 49 50 51 48 48 50 50 51 44 46 47 46 46 46 46 45
39 43 52 57 53 57 74 74 76 66 63 61 55 51 48 51 47 45 41 42 47 50 48 47 48 47 45 47 48 53 49 51 49 50 48 51 45 44 47 49 48 46 45 45 43

GFSSW_500_spd_117.txt.gz
Wind_Speed
56 63 79 86 90 84 88 93 94 89 74 74 75 72 69 68 64 62 57 45 43 43 36 33 30 34 40 40 34 28 31 28 27 24 24 21 18 17 17 15 12 14 12 8 6
55 64 86 82 90 80 80 85 95 90 79 74 76 74 72 70 67 65 52 49 48 46 42 36 38 35 40 41 35 37 32 29 28 25 23 22 17 15 17 15 16 14 12 10 8
52 66 90 113 81 82 76 80 86 88 91 72 77 75 72 72 71 63 57 55 50 48 46 41 39 37 38 39 35 36 31 33 29 27 25 23 18 17 16 19 17 14 14 13 10
51 66 89 103 92 78 76 78 68 75 89 75 76 76 74 75 74 60 57 57 52 47 47 46 39 37 39 38 38 35 35 32 27 30 27 26 21 18 21 19 16 17 16 15 12
50 64 84 101 86 77 82 79 65 74 84 90 70 76 76 77 73 62 61 59 56 51 47 44 43 38 36 36 34 35 38 33 32 30 32 30 27 21 20 19 17 19 19 17 15
51 59 71 86 110 73 73 71 69 77 75 88 70 76 76 77 69 64 64 61 57 52 48 47 47 41 37 34 33 31 31 32 35 31 34 32 32 27 24 21 20 22 22 20 18
53 54 58 70 106 74 81 67 76 75 67 77 83 67 74 75 70 66 65 61 58 53 49 45 44 44 42 38 35 29 30 30 37 37 36 38 34 29 29 27 24 24 24 23 21
51 49 47 50 98 86 80 78 77 71 74 76 78 66 76 78 71 69 66 64 61 57 53 49 45 43 46 42 39 35 37 35 29 24 29 37 35 35 36 34 29 28 28 26 24
47 41 34 49 86 79 58 65 67 64 68 68 71 69 77 78 72 69 67 63 61 58 54 52 48 46 48 48 45 42 40 33 34 24 21 26 36 44 40 38 33 33 30 29 28
45 37 33 46 100 87 70 80 82 70 71 67 70 69 73 73 71 69 67 65 63 60 56 54 51 51 50 50 50 46 38 30 28 28 27 29 25 36 42 40 36 34 33 31 30
46 55 41 45 76 78 66 69 74 72 77 76 78 70 64 70 72 71 68 66 63 61 60 60 58 58 52 49 46 44 40 38 35 31 31 29 20 28 38 39 37 33 34 33 31
55 54 35 62 77 79 64 79 78 70 76 72 69 69 58 64 71 73 69 67 65 63 62 61 59 55 52 49 50 46 45 36 39 37 33 30 20 18 24 29 37 37 37 35 36
55 50 42 46 69 83 78 79 69 69 73 70 69 64 69 60 70 70 72 68 64 64 64 63 55 51 59 51 49 48 49 42 39 34 35 32 27 24 16 19 23 31 35 36 40
64 56 42 52 69 81 77 63 67 72 74 72 77 70 64 64 72 70 68 70 67 64 61 61 65 58 54 52 51 49 48 44 40 38 40 39 33 29 23 19 23 21 14 20 35
58 50 47 59 64 66 53 49 68 77 76 75 77 71 69 68 74 75 70 66 66 64 63 64 61 60 41 53 52 49 47 46 40 38 44 41 44 31 31 25 21 20 23 19 19
56 52 52 56 76 67 57 70 72 76 86 82 79 69 76 70 69 72 70 70 67 66 63 62 58 59 60 51 49 50 47 45 47 49 45 40 45 39 27 22 22 17 20 24 25
58 54 61 63 63 76 60 57 78 86 80 80 80 82 79 71 70 71 66 69 73 70 66 62 60 59 57 53 52 50 45 47 49 52 54 50 48 46 31 26 25 29 29 29 26
57 57 71 72 73 70 76 77 85 80 77 77 77 81 81 75 73 77 74 72 67 66 67 67 67 62 61 58 55 55 53 50 49 49 49 52 53 50 37 35 32 33 31 32 35
54 55 70 80 67 80 77 80 87 84 84 64 71 82 73 81 79 75 69 63 65 66 64 62 64 63 60 58 54 55 52 49 49 48 47 50 47 48 42 36 38 36 33 33 30
53 57 67 76 71 75 78 80 82 79 86 86 60 75 82 72 83 69 68 64 64 66 65 63 63 64 63 61 60 54 52 51 50 50 50 49 49 46 46 41 39 41 42 41 44
50 55 67 72 75 69 73 79 78 78 79 78 77 61 77 76 66 66 56 62 64 64 66 65 64 65 64 58 55 55 56 56 55 54 53 50 47 41 40 42 41 41 43 44 45
48 55 66 70 72 66 63 77 74 83 76 80 83 63 60 75 66 62 66 63 62 65 66 69 66 62 60 62 60 60 58 55 53 52 52 53 48 45 43 45 46 46 45 45 45
46 59 69 71 63 53 65 69 73 68 78 82 72 74 60 52 72 65 61 67 59 62 64 62 67 65 64 60 62 59 59 57 56 59 57 58 38 44 46 47 48 49 46 46 47
48 55 62 60 62 54 67 71 56 68 79 82 79 74 74 60 60 70 65 64 62 61 65 65 65 65 61 55 54 57 59 57 52 52 51 52 40 50 47 46 48 47 49 47 48
39 41 49 52 55 50 63 77 68 58 67 75 78 71 65 62 64 62 63 69 69 64 60 64 62 59 60 59 56 53 49 45 47 52 54 45 49 48 50 43 48 51 50 51 46
28 34 50 55 48 47 58 72 64 62 62 64 75 67 70 55 48 45 53 62 58 60 65 61 63 58 51 54 58 55 53 51 57 52 53 49 52 50 47 50 43 43 46 49 48
32 33 41 53 45 46 58 65 60 61 67 67 64 67 69 71 60 51 48 45 53 58 60 58 55 57 63 58 54 56 51 54 54 52 52 54 41 34 47 52 53 49 49 46 47

GFSSW_500_spd_120.txt.gz
Wind_Speed
63 62 62 61 62 65 62 65 72 81 80 81 76 71 70 68 68 66 63 53 50 47 45 41 36 32 33 43 34 35 35 32 30 27 28 22 20 19 18 16 15 11 6 5 4
62 63 62 62 63 63 63 64 70 81 82 79 81 72 74 71 70 70 60 57 51 51 46 41 37 34 37 38 36 34 31 29 31 31 29 21 21 18 16 16 15 11 7 6 5
62 62 63 63 63 63 62 65 69 77 81 80 82 79 75 74 75 74 62 58 53 52 49 44 41 34 33 41 38 37 32 29 34 29 26 24 23 18 18 20 14 12 11 8 7
60 62 62 62 62 62 63 66 69 81 85 78 79 80 79 79 79 75 65 57 55 53 51 46 42 39 37 32 32 40 38 35 32 29 26 27 24 22 21 18 16 14 14 10 8
62 60 59 59 60 58 62 66 73 85 90 81 78 83 81 84 80 76 64 59 60 55 53 48 47 40 41 33 35 37 36 35 34 31 29 28 26 27 21 19 17 16 15 13 11
59 58 57 55 57 57 60 70 77 83 89 82 78 78 83 87 76 77 65 63 61 56 53 50 49 44 38 36 37 32 36 34 37 32 28 31 31 26 27 20 18 19 18 16 13
58 56 55 55 55 57 62 73 80 80 85 72 74 74 81 85 76 77 67 63 60 55 52 48 45 45 41 36 31 34 35 38 38 36 36 32 32 26 32 24 22 21 21 18 16
56 55 54 55 54 58 62 76 89 84 87 72 62 66 74 84 80 78 73 67 65 62 58 55 49 46 43 42 35 33 35 36 34 40 33 35 29 30 35 30 28 24 22 21 20
56 53 52 53 54 56 60 68 93 89 86 75 69 75 79 82 77 76 77 70 67 62 58 54 49 49 47 45 39 38 40 35 32 26 32 32 25 33 37 32 32 30 25 25 24
53 51 51 51 52 52 52 62 86 84 79 82 71 75 82 76 86 72 79 74 66 65 61 57 53 52 49 47 48 45 43 34 28 28 28 23 19 23 27 33 37 36 31 26 25
51 50 49 48 46 46 50 49 68 84 80 86 79 73 78 74 84 74 79 77 71 67 65 60 58 56 52 48 45 45 41 38 38 34 32 30 27 24 26 30 40 41 37 31 25
51 48 45 42 43 46 40 55 63 78 85 89 73 76 72 73 78 79 80 80 74 68 67 65 62 55 50 49 42 46 44 42 42 38 34 31 25 26 25 23 29 34 35 30 27
48 48 43 50 49 42 50 58 76 67 65 73 74 73 74 68 68 86 71 78 73 70 67 64 62 57 53 49 47 39 38 44 44 40 37 36 32 28 22 19 23 26 27 29 30
46 47 52 59 50 41 61 60 79 65 51 68 79 77 78 75 73 74 72 76 77 72 66 64 63 57 53 46 40 41 46 46 46 42 40 37 38 32 28 19 14 13 12 15 20
46 49 54 57 43 38 53 68 72 67 59 66 78 75 76 76 76 77 74 75 74 73 68 67 64 59 57 50 50 51 52 48 46 45 42 43 41 26 32 22 14 16 18 21 20
45 50 49 62 40 41 45 73 69 70 63 66 81 81 80 75 71 70 78 79 73 69 67 64 61 58 55 51 45 51 47 47 46 45 48 45 43 33 30 25 25 23 20 22 22
46 50 49 59 49 53 50 63 70 71 62 65 84 80 80 79 74 76 79 73 78 77 68 66 63 59 59 59 49 55 51 49 49 48 50 46 49 42 30 26 20 20 24 22 17
49 50 49 64 56 58 54 56 62 70 60 61 76 79 80 76 75 74 78 74 73 63 71 73 69 65 61 60 62 53 47 51 56 54 50 47 50 48 30 30 27 27 27 27 28
48 54 54 66 55 60 62 64 70 62 71 59 77 81 83 79 66 63 72 68 60 63 62 70 70 65 64 62 61 62 63 50 48 48 49 51 48 45 36 34 32 30 32 34 34
46 49 52 65 59 72 56 58 71 41 67 72 80 83 90 86 82 71 69 73 66 66 65 68 69 69 69 64 63 59 57 54 53 53 50 51 51 47 43 34 33 33 33 36 37
40 46 54 63 65 61 56 62 70 50 37 80 75 80 75 80 88 69 57 60 61 64 63 67 67 69 70 70 64 62 62 60 55 53 53 52 51 48 43 41 35 35 36 38 38
38 39 48 58 64 54 54 63 50 73 40 68 73 73 72 71 71 71 61 55 54 61 65 70 70 68 67 64 64 64 59 56 54 53 52 51 47 46 45 45 45 42 41 41 42
34 33 42 52 58 51 51 56 69 61 51 66 72 73 70 74 73 73 74 68 66 69 70 67 69 68 70 67 66 61 59 58 56 55 54 53 52 51 51 49 47 46 44 43 45
31 32 35 53 42 47 52 45 46 55 54 77 67 71 78 76 75 77 73 67 63 63 68 68 68 67 62 55 55 58 61 61 61 59 59 55 46 50 48 47 46 47 47 48 47
26 27 34 42 40 41 50 49 43 68 57 76 78 73 59 62 70 75 63 70 71 66 66 65 64 65 65 62 56 51 48 53 57 54 56 38 48 48 49 49 49 49 46 47 47
23 24 28 32 37 34 47 54 52 56 70 77 76 76 76 58 49 68 69 58 67 69 68 61 66 66 63 61 61 57 54 53 49 48 50 51 47 45 45 48 43 45 49 48 51
24 23 22 30 36 29 40 55 55 53 49 74 66 65 67 64 67 48 43 55 62 59 58 62 65 65 65 61 60 59 55 54 49 50 45 47 34 38 43 47 51 50 50 52 51

GFSSW_500_spd_123.txt.gz
Wind_Speed
62 64 67 67 67 68 67 65 66 70 73 73 71 71 69 66 67 65 64 58 57 54 50 47 42 35 29 29 35 30 33 31 32 32 31 29 24 20 17 13 11 9 9 7 3
58 63 66 66 66 65 65 66 65 65 68 72 72 70 71 70 68 70 62 59 57 55 52 48 45 41 35 30 34 33 33 29 35 34 33 26 26 22 18 16 11 11 11 9 5
56 59 65 66 66 64 62 62 65 66 64 67 72 71 69 71 74 72 63 60 57 55 53 50 48 44 38 32 31 37 33 35 33 31 32 29 27 24 21 18 13 14 13 10 7
56 58 61 66 66 65 62 61 61 63 64 64 68 73 72 69 76 74 66 59 55 55 55 52 49 45 39 33 34 33 35 31 31 31 30 29 26 24 24 20 15 18 16 12 9
56 58 60 63 65 65 63 60 61 63 65 66 64 69 69 72 75 77 67 62 59 57 56 53 50 46 42 34 30 33 34 34 31 29 30 29 29 27 25 22 18 21 17 14 12
55 57 59 61 63 64 65 61 61 64 64 66 66 68 71 71 67 72 70 63 63 59 57 55 52 46 41 38 36 31 30 35 35 35 34 33 30 26 28 24 20 22 18 16 14
55 55 58 62 64 64 61 62 63 66 67 67 67 69 64 61 51 69 73 63 65 60 56 53 49 49 42 43 37 35 35 35 37 36 34 35 32 25 31 26 23 22 19 16 16
54 54 57 61 64 64 63 63 66 67 68 69 72 71 70 67 63 68 72 69 65 65 62 58 55 52 47 48 38 38 38 39 35 34 35 37 30 26 34 28 24 22 19 18 17
52 52 55 61 64 64 63 64 66 67 68 70 74 74 70 73 69 63 74 71 65 68 65 60 58 55 50 49 46 43 41 39 35 33 35 39 28 33 33 29 27 29 26 23 19
49 52 54 56 56 60 60 60 61 64 66 71 76 79 82 80 58 53 70 71 70 68 67 65 61 57 53 51 50 48 42 34 36 29 30 29 30 34 33 32 33 32 29 27 24
50 51 53 54 54 57 57 58 61 63 68 68 72 73 71 76 82 85 77 69 75 70 71 68 64 63 56 51 46 43 40 37 32 31 30 24 25 29 33 25 27 32 33 31 27
52 51 51 52 53 55 57 56 55 54 57 63 68 68 74 80 76 59 74 74 74 74 74 71 69 61 56 49 48 44 42 42 37 36 34 33 29 31 28 22 24 25 30 33 32
53 53 51 51 53 54 53 51 50 46 41 49 63 70 74 77 82 83 75 72 74 77 71 71 69 65 58 53 50 49 45 40 41 39 36 35 35 35 29 25 22 18 22 27 30
52 53 52 53 54 52 53 47 45 43 48 43 58 79 85 81 91 75 68 69 71 76 73 70 70 64 60 55 51 49 39 38 38 42 41 40 38 33 29 26 20 17 17 21 27
49 51 52 54 51 52 45 46 44 49 50 57 58 82 87 90 71 74 74 70 76 77 75 74 72 67 64 57 53 48 46 39 39 40 43 43 44 35 35 28 21 21 17 18 20
49 50 48 55 53 51 51 55 50 48 61 54 63 88 68 73 69 71 74 69 70 76 69 68 67 64 63 58 54 51 44 43 48 48 45 42 43 38 36 26 26 24 18 17 17
51 48 48 52 52 54 58 63 57 56 50 62 63 85 70 67 73 73 79 78 82 79 72 71 69 66 63 59 54 53 45 44 42 46 53 45 45 45 34 30 26 28 27 25 24
51 50 49 51 55 62 58 56 52 53 61 52 63 42 67 69 70 73 75 75 75 74 73 73 74 69 66 64 57 54 55 54 54 50 51 51 48 48 32 33 28 29 29 25 20
50 51 51 52 57 61 65 65 54 42 60 44 52 42 56 73 71 81 73 80 79 82 78 74 68 71 69 64 63 61 55 51 51 51 50 52 52 51 33 33 34 31 30 28 25
53 51 50 51 54 54 63 67 55 49 50 51 55 50 60 81 84 86 73 66 61 71 73 73 67 67 69 66 66 62 57 53 54 56 59 57 54 49 39 31 32 34 34 34 32
55 53 52 52 52 53 64 62 55 54 56 60 45 63 72 79 82 88 81 70 68 66 74 67 71 71 72 73 70 66 67 67 62 59 53 48 42 35 35 32 33 34 35 35 36
56 54 51 51 51 53 66 61 50 64 41 63 63 65 59 74 80 73 72 73 64 67 69 63 57 65 64 65 68 66 66 65 64 61 62 59 55 51 46 43 39 39 38 40 39
50 50 48 46 47 54 60 64 52 63 42 47 65 64 66 64 77 75 70 70 66 67 70 71 70 68 66 62 62 68 66 62 61 59 58 54 52 50 49 46 46 43 41 41 40
44 45 44 42 42 47 60 64 53 52 64 44 60 59 63 61 76 71 73 71 69 67 72 74 74 71 66 61 57 54 59 65 65 64 59 58 52 54 54 53 49 47 45 44 45
44 42 38 36 41 47 61 61 53 44 59 52 53 61 62 60 70 74 74 75 63 57 64 71 72 69 66 65 62 56 59 64 64 60 60 52 52 51 49 52 54 54 54 52 49
34 33 28 27 28 41 53 56 51 57 53 52 49 56 60 61 62 64 76 73 72 67 57 63 71 67 65 67 67 64 58 51 55 61 60 58 57 54 55 58 57 53 51 47 46
27 26 24 22 26 38 51 41 49 54 49 47 55 57 61 53 51 58 62 69 62 68 56 54 60 63 66 64 63 67 62 57 52 50 50 53 41 48 49 51 49 47 45 45 46

GFSSW_500_spd_126.txt.gz
Wind_Speed
58 59 64 69 73 73 74 75 73 71 75 65 61 53 64 69 67 68 67 51 51 52 49 46 42 46 42 39 30 30 38 33 30 32 33 28 25 22 19 19 14 12 8 7 6
55 58 61 63 68 70 71 72 72 71 72 72 66 62 54 68 72 69 59 58 53 53 52 49 45 45 40 38 30 35 36 32 33 32 32 29 26 26 22 20 18 14 10 9 8
59 59 59 63 65 68 68 69 70 71 72 75 75 71 60 59 69 69 63 59 56 53 51 52 50 46 40 34 32 32 37 31 28 30 33 32 30 28 25 22 20 16 13 12 10
58 58 59 63 63 64 64 65 66 68 72 72 73 81 80 72 70 69 64 59 54 54 53 53 52 49 45 40 36 34 32 33 32 30 31 32 30 30 26 24 22 19 17 15 13
56 56 58 61 62 61 61 63 64 64 66 67 68 72 76 74 73 72 65 61 57 57 54 54 50 48 46 44 39 38 33 33 33 33 33 31 32 30 27 23 24 21 19 16 14
55 55 58 61 61 60 59 60 61 62 64 64 64 66 71 70 67 70 64 64 57 56 57 54 51 47 46 45 42 37 36 34 35 34 33 32 34 32 30 25 26 23 20 18 16
55 54 56 59 59 59 58 59 60 60 61 63 64 64 64 56 62 68 67 64 62 57 56 54 52 50 45 43 41 39 35 38 35 35 38 34 36 28 32 29 28 25 21 19 17
56 54 55 58 58 58 58 58 61 62 62 61 63 64 61 60 61 64 66 64 65 65 58 56 54 54 49 48 44 42 40 36 35 39 37 38 31 30 35 29 26 27 23 20 18
57 55 55 58 57 58 57 58 60 63 65 62 65 63 60 59 59 60 62 62 63 61 64 56 57 59 55 51 47 46 45 40 42 36 39 42 28 33 37 30 29 28 27 24 20
55 57 56 58 57 57 56 57 59 64 62 63 68 64 57 53 57 60 59 53 53 59 64 62 61 63 60 56 54 49 47 41 32 36 35 34 29 36 37 32 30 32 31 29 25
56 55 56 56 56 56 56 59 62 64 68 62 57 54 56 58 59 61 58 50 55 56 66 67 64 68 59 54 50 48 47 42 34 35 40 33 34 37 41 37 36 31 33 29 26
56 55 55 55 56 56 55 54 55 57 62 64 63 61 63 61 61 63 65 57 58 61 61 67 69 62 56 55 52 49 46 43 41 41 40 38 32 35 38 32 31 32 31 30 30
56 56 55 55 55 54 49 48 50 52 58 60 61 62 65 67 65 64 70 62 55 50 65 66 66 64 59 58 56 53 48 44 45 45 41 37 35 35 28 26 29 27 26 25 28
54 58 56 56 55 51 49 48 45 45 53 60 62 67 68 69 69 69 76 74 74 60 56 59 68 65 62 60 59 56 48 46 48 46 47 39 39 36 32 27 26 24 23 23 24
50 54 57 55 51 51 48 47 46 44 54 60 62 66 66 68 68 69 73 74 68 64 63 58 66 65 64 58 61 57 46 46 46 46 46 46 47 37 37 31 27 27 24 23 17
48 47 54 58 55 52 49 48 49 42 54 58 64 63 64 68 68 66 80 79 67 66 61 62 69 67 64 58 58 57 49 50 49 47 51 46 47 42 41 27 32 27 25 24 17
46 45 48 52 53 53 54 53 48 48 56 59 60 60 58 57 67 66 83 90 82 78 70 62 66 65 66 62 63 63 58 56 51 48 50 43 47 48 41 35 34 29 26 24 23
46 45 49 49 50 52 49 49 53 55 57 57 54 52 57 52 55 68 55 83 90 77 70 76 76 76 74 69 62 62 61 62 58 55 54 52 52 48 36 34 35 33 30 27 28
47 42 47 49 51 50 49 49 55 57 54 55 37 34 55 47 56 76 64 70 82 81 77 71 72 67 70 67 65 66 65 57 56 52 52 58 53 53 44 40 36 33 33 30 29
48 46 49 46 48 47 52 57 56 54 55 57 38 34 44 47 53 83 66 84 74 79 75 71 67 66 65 66 68 67 64 63 62 61 60 60 58 56 41 36 36 35 34 34 32
48 50 52 51 48 45 51 58 60 57 64 61 45 37 32 43 48 77 79 80 80 63 77 76 67 71 76 74 72 68 67 65 59 62 60 60 58 50 45 37 37 38 35 34 34
47 49 52 51 50 47 46 57 63 69 70 58 61 42 33 47 51 72 64 82 77 66 70 71 65 66 71 73 71 68 68 67 67 61 59 60 63 62 51 40 30 37 39 36 34
46 51 52 51 47 44 42 47 60 69 68 53 54 62 44 47 52 59 62 72 74 73 71 71 73 73 73 76 74 70 65 66 63 63 62 60 57 51 45 41 34 37 39 39 39
50 50 52 52 44 42 43 43 60 68 67 60 48 64 54 42 49 56 65 69 62 63 67 72 73 71 66 53 61 69 59 55 64 66 60 60 59 59 57 54 51 48 44 42 42
48 46 44 45 43 43 44 47 54 66 65 62 60 66 51 44 51 58 56 73 74 70 61 70 67 67 63 69 66 64 67 62 66 62 67 55 60 57 55 54 52 51 48 45 44
45 43 40 39 39 42 44 45 47 60 67 69 65 60 59 43 52 54 65 77 82 74 68 68 59 59 61 65 63 65 62 69 63 62 61 60 59 56 55 56 58 57 55 52 48
38 35 34 34 36 40 42 41 46 64 67 68 62 53 56 55 49 60 62 58 69 74 70 70 67 64 64 69 70 73 67 63 58 54 51 58 49 58 59 61 61 58 54 49 50

GFSSW_500_spd_129.txt.gz
Wind_Speed
74 75 72 71 72 74 76 76 75 74 73 71 75 79 63 50 56 62 70 63 58 56 56 51 48 45 47 40 45 46 46 41 42 40 35 33 25 22 20 18 16 14 10 10 10
68 71 68 66 66 68 74 77 78 77 77 74 76 73 67 48 47 57 68 67 62 61 54 53 49 49 43 46 38 45 39 40 40 38 34 30 28 24 23 19 17 16 12 13 12
63 65 64 62 62 64 69 76 80 79 80 79 75 71 74 68 64 44 62 63 59 61 57 52 51 47 45 43 39 36 30 30 38 37 34 32 29 27 25 22 21 17 16 15 14
59 63 63 64 62 63 68 73 79 79 82 82 77 73 74 69 72 67 54 65 67 61 59 53 52 48 44 44 34 32 25 24 34 38 36 36 31 30 29 27 23 19 19 17 16
58 61 63 64 62 61 64 70 76 77 78 82 77 74 73 74 66 62 62 60 66 61 59 58 52 47 43 42 39 33 28 27 30 35 34 36 34 33 29 28 25 21 20 18 18
59 57 62 64 62 60 60 66 71 73 74 78 75 77 76 73 66 71 42 64 63 64 58 55 54 49 46 44 44 38 34 32 33 36 37 36 34 36 31 31 28 24 22 19 19
60 59 58 62 62 62 62 65 69 70 72 71 73 75 80 72 83 60 44 60 59 63 59 54 51 50 50 44 41 40 40 38 35 34 33 38 38 32 34 32 29 25 22 20 19
59 60 59 59 61 62 63 66 69 68 68 68 70 73 77 80 84 84 69 55 61 61 60 58 56 55 52 51 45 48 45 40 37 36 37 41 38 30 34 34 31 28 25 22 20
61 62 59 58 59 60 61 63 66 67 66 67 68 69 74 74 77 78 79 66 65 68 60 59 61 58 56 55 51 51 47 43 36 37 40 41 32 32 36 34 31 29 28 26 23
63 63 60 60 58 59 59 61 65 68 68 68 68 67 68 64 66 68 67 69 68 66 53 62 59 59 60 60 58 52 51 42 36 36 36 38 32 34 35 35 31 35 32 29 24
62 64 59 62 61 60 59 62 67 69 66 61 61 60 64 62 64 63 62 66 65 66 63 60 67 64 63 58 54 54 49 40 34 36 39 40 33 37 43 40 36 36 33 27 24
61 62 60 63 62 61 61 59 59 59 59 60 61 60 63 63 61 59 60 59 61 57 65 65 64 58 59 60 55 53 48 42 37 40 44 41 32 35 43 40 34 35 33 28 31
63 63 61 63 63 62 59 58 58 57 59 59 59 61 61 60 58 57 57 56 58 57 56 57 54 56 63 62 57 55 51 44 41 42 47 44 38 38 39 36 35 38 35 33 31
63 62 63 64 65 62 60 58 56 56 58 60 59 59 61 61 59 54 54 52 58 48 52 47 48 57 61 64 58 56 53 47 44 46 50 47 47 39 38 35 33 34 33 31 30
63 60 62 62 62 60 57 58 57 57 60 60 60 61 59 61 56 55 53 57 54 57 61 53 54 52 52 55 56 55 53 46 46 48 51 49 54 39 40 36 28 25 26 25 24
63 60 60 63 62 58 57 57 58 55 60 59 60 59 60 62 59 54 53 52 46 55 64 57 54 53 50 51 55 54 52 49 48 51 60 52 52 47 42 32 30 31 30 27 26
63 59 62 60 59 61 60 57 53 57 60 56 57 59 56 56 60 57 56 56 52 58 68 61 58 55 48 55 58 56 53 56 57 61 60 55 55 54 41 39 35 34 31 29 27
61 57 57 56 57 59 62 59 61 60 57 56 53 54 57 57 57 57 55 59 58 62 65 68 68 68 53 52 56 60 60 61 63 61 62 62 61 62 42 40 40 38 35 31 28
62 59 56 53 55 60 59 61 64 57 52 52 52 55 55 55 54 54 60 58 58 62 74 71 74 69 66 57 54 56 65 56 59 59 62 64 56 60 43 38 38 37 37 33 30
58 53 51 49 55 57 62 60 56 53 51 52 51 50 55 52 53 56 58 63 61 66 76 79 73 67 65 67 62 61 59 65 63 64 62 63 62 60 45 39 37 38 35 33 33
53 51 47 47 51 55 62 62 59 55 52 51 48 41 49 46 50 51 58 61 63 64 68 74 77 73 70 69 62 60 66 64 62 64 61 61 66 58 48 41 42 39 38 41 38
52 48 46 49 53 52 52 55 56 55 54 53 53 51 46 44 43 49 56 59 56 59 71 66 81 85 80 74 70 66 65 66 68 68 64 63 67 61 54 43 40 41 42 36 36
49 46 47 45 46 45 46 49 49 50 50 54 54 53 51 50 48 47 60 53 49 65 70 82 91 86 83 83 77 70 68 68 71 70 69 63 63 56 54 48 44 45 39 39 37
49 49 43 44 38 37 35 36 40 43 49 53 53 55 57 47 49 54 50 55 53 62 72 66 79 86 83 71 67 66 62 57 61 71 64 64 57 53 54 52 47 46 50 45 39
45 46 40 35 36 37 39 40 38 40 43 51 56 55 60 55 53 47 49 44 48 62 75 60 75 72 77 77 73 62 63 63 71 67 69 56 61 55 53 52 52 47 40 37 39
46 43 38 33 33 35 41 41 39 39 44 50 58 61 68 62 46 39 46 34 50 63 70 62 70 73 65 72 72 73 69 63 60 62 71 60 60 55 55 57 55 53 54 53 52
34 38 38 33 34 37 38 39 37 37 41 45 50 62 71 66 61 57 46 49 38 53 75 81 80 76 74 67 71 74 70 67 60 59 63 64 38 45 52 55 56 55 56 54 50

GFSSW_500_spd_132.txt.gz
Wind_Speed
74 74 76 77 76 76 73 72 73 71 70 70 67 65 63 58 45 59 52 58 59 59 58 53 51 50 51 41 37 39 42 43 38 31 31 32 27 27 23 23 19 15 12 10 11
70 73 73 74 76 76 77 77 78 78 75 74 72 68 65 61 53 45 51 54 57 62 60 57 54 54 51 46 41 38 39 40 39 34 34 35 31 31 25 24 21 17 14 12 12
64 67 72 72 74 73 75 76 77 79 78 77 76 72 68 66 68 57 39 52 52 57 61 60 59 54 53 49 45 40 37 40 41 42 39 39 35 32 29 27 24 18 16 14 12
58 61 64 68 68 70 71 72 75 78 80 80 78 76 73 67 71 66 51 48 48 47 55 65 60 61 54 51 48 44 38 41 41 42 44 40 37 34 30 31 24 21 18 16 15
57 56 58 61 61 64 67 67 70 73 76 80 79 79 78 72 66 74 74 56 53 52 44 52 65 62 58 55 49 47 40 38 35 35 40 40 37 36 31 31 26 23 22 19 18
57 56 56 57 58 61 64 64 67 71 73 76 78 79 81 78 71 72 63 68 62 42 53 41 51 62 59 54 51 45 45 33 30 28 31 33 34 38 34 31 29 26 24 21 20
58 57 56 58 58 59 63 64 66 69 70 74 76 80 83 78 75 74 63 58 69 75 48 59 47 52 56 56 51 45 44 43 28 29 29 30 36 35 32 35 31 29 28 23 23
66 61 59 58 59 57 62 64 66 66 69 72 76 78 81 79 74 71 65 61 49 53 48 54 64 52 56 57 56 51 46 49 35 30 29 34 31 29 35 36 32 32 30 26 25
54 63 58 58 60 59 60 64 65 66 69 72 73 77 82 81 72 67 69 63 47 44 51 56 59 64 60 58 57 55 52 49 40 36 34 38 30 29 37 36 32 33 31 30 28
72 55 61 56 59 59 58 64 66 63 65 69 71 74 80 77 72 64 70 70 71 66 48 42 40 59 65 62 60 56 54 50 42 36 38 38 28 29 35 38 34 35 34 32 28
64 67 65 61 53 59 61 65 69 70 68 65 66 70 74 76 72 66 69 72 71 73 77 56 45 47 54 57 56 54 53 51 41 38 42 41 34 31 39 35 39 36 35 31 28
76 60 67 61 59 58 63 59 60 62 65 67 68 67 70 70 69 65 70 76 81 57 69 62 55 45 46 50 54 55 54 49 43 42 44 43 38 33 37 37 35 32 33 32 32
69 75 60 62 64 62 58 57 58 58 60 60 64 66 68 68 66 64 69 73 81 91 77 71 53 56 57 57 58 56 56 50 45 43 47 45 44 38 37 38 34 33 35 33 33
73 71 69 68 67 63 59 57 57 56 58 61 61 60 64 64 64 63 62 67 72 75 70 67 59 63 57 56 59 60 54 48 44 46 49 48 52 44 40 37 35 28 30 31 33
66 62 67 67 62 62 58 59 57 56 59 57 59 59 62 62 60 60 59 62 62 62 58 56 59 64 70 58 55 60 56 51 47 48 51 53 58 46 42 40 30 24 28 31 36
81 57 69 65 62 59 58 59 59 56 62 57 56 60 60 61 60 57 55 57 56 62 66 61 60 55 58 62 60 58 57 57 50 50 61 52 56 56 43 37 29 27 28 31 34
62 67 68 64 59 59 59 58 57 61 59 58 57 56 56 58 58 53 56 55 58 61 64 56 57 50 51 52 55 54 55 57 58 58 61 55 58 58 42 36 35 32 31 30 30
66 64 68 64 60 62 61 59 61 60 60 55 53 56 55 56 57 54 51 57 53 55 53 60 61 53 54 55 52 45 47 58 65 61 60 64 63 63 49 34 34 36 32 31 29
61 69 72 64 62 62 61 63 63 59 55 55 52 54 57 55 55 55 54 50 50 49 51 50 54 59 50 53 51 50 52 44 58 58 62 66 64 63 55 40 36 33 35 34 32
66 68 65 59 58 57 58 57 57 57 54 55 54 52 51 54 55 54 53 52 49 48 48 51 51 52 56 63 56 53 45 51 56 59 61 61 66 65 60 41 37 38 37 34 36
64 65 59 56 56 57 56 56 56 56 56 55 54 52 52 47 49 52 52 49 50 45 49 49 54 51 56 70 62 58 56 51 51 59 59 59 64 58 59 49 42 36 35 36 36
73 66 59 57 59 55 52 54 54 57 56 55 53 50 50 41 44 42 49 46 47 51 56 50 53 56 56 57 62 66 63 59 61 58 57 60 65 59 58 50 41 40 38 36 35
69 63 59 57 56 50 50 51 53 55 55 54 53 50 41 41 42 50 48 43 44 43 44 49 62 63 61 66 70 72 70 68 65 64 64 59 58 51 53 53 42 41 40 37 43
60 63 63 58 49 41 38 39 49 52 53 52 53 52 49 45 43 42 45 49 45 44 45 50 53 63 63 66 65 70 65 67 66 68 60 58 51 48 50 53 49 45 43 43 40
53 55 50 44 37 30 31 32 34 45 51 52 52 53 52 51 45 41 42 43 44 45 50 54 53 54 59 66 75 77 72 70 74 66 67 56 57 50 50 52 52 48 45 45 45
40 43 36 29 28 28 27 32 32 34 41 46 51 48 49 54 55 49 51 49 47 48 50 53 53 53 61 65 74 81 81 79 78 75 68 69 63 53 56 58 56 50 48 46 45
38 36 32 26 26 31 29 27 28 31 32 32 31 35 45 51 54 61 60 56 52 50 50 54 52 56 60 63 76 83 79 79 75 71 67 67 54 44 51 54 56 54 52 48 49